GFSGL_850_thetae_000.txt.gz
Theta_e
320 321 322 321 323 322 323 324 321 324 326 324 326 325 326 327 327 328 327 327 327 329 329 329 329 329 328 327 327 326 327 325 325 322 321 324 321 317 310 318 317 315 314
318 320 321 320 322 322 324 323 324 326 327 327 325 326 327 327 327 328 328 329 329 329 329 328 328 328 327 327 326 325 325 325 325 321 320 319 320 319 319 322 321 321 319
316 318 320 320 322 321 320 321 320 319 327 328 328 328 327 323 326 328 328 329 330 331 330 330 328 329 329 328 327 325 323 321 322 320 318 319 320 319 318 317 316 317 317
316 316 318 321 321 321 324 323 322 321 320 325 326 328 329 324 322 328 330 330 330 330 331 330 330 329 327 326 325 320 317 318 319 319 319 319 318 317 319 319 318 318 318
317 316 316 320 319 320 322 323 322 322 320 319 317 320 319 322 320 317 317 318 320 324 327 328 328 327 324 320 315 318 311 319 320 320 319 319 320 318 317 320 319 319 318
318 318 316 316 319 320 320 322 320 321 320 320 320 320 319 318 318 318 318 317 317 317 317 317 318 318 317 317 319 318 319 321 321 320 320 321 321 320 320 320 320 319 318
319 319 317 315 317 319 320 321 322 321 321 320 319 319 313 315 317 318 319 320 320 318 318 319 319 318 317 317 316 315 317 317 318 318 322 322 321 323 320 318 318 318 318
319 319 318 314 315 318 319 321 321 319 319 320 321 320 317 312 312 314 315 315 316 316 315 314 314 313 311 310 309 309 309 310 311 310 311 314 311 313 311 313 315 317 316
318 319 318 315 315 317 318 320 320 318 319 320 321 318 315 308 308 309 310 310 311 310 308 307 308 309 311 310 310 310 310 311 311 312 313 313 313 313 311 309 314 314 315
318 319 318 316 316 317 317 319 313 316 318 318 319 317 312 307 305 305 305 310 305 305 306 307 309 311 313 313 314 314 314 314 314 314 314 314 313 313 311 310 308 311 312
319 318 319 318 316 318 319 317 309 311 317 317 317 311 308 306 305 305 305 309 308 309 311 313 314 315 315 315 315 314 314 313 313 312 312 311 311 311 310 310 308 305 307
319 318 319 319 316 317 315 311 310 314 315 309 311 310 309 308 309 310 311 313 314 314 314 315 315 314 314 313 312 312 311 311 310 310 311 311 311 310 310 309 309 308 307
320 319 320 320 317 316 313 311 314 309 315 314 314 315 315 312 313 314 314 315 315 315 316 314 313 312 311 311 310 310 310 312 315 316 315 314 314 312 311 314 317 315 314
321 320 321 320 318 315 317 316 317 316 317 316 316 316 316 315 314 314 314 314 314 313 312 312 311 311 311 311 311 313 316 319 318 317 316 314 313 313 316 315 312 311 309
321 322 322 321 315 315 314 317 316 315 316 317 317 317 317 317 316 314 313 313 312 312 313 314 315 316 316 315 317 317 316 316 317 317 316 317 317 314 313 313 310 309 308
321 322 322 320 320 318 316 316 314 316 311 314 316 317 317 317 316 314 313 314 315 316 316 316 318 318 316 317 320 321 320 319 318 318 316 313 312 311 309 306 306 306 306
318 320 321 321 321 319 318 316 316 311 311 310 312 313 317 317 316 315 316 316 316 316 317 319 318 316 318 319 320 320 318 315 314 309 308 309 308 305 305 305 305 305 305
322 319 320 321 321 321 319 318 317 316 313 312 313 313 314 314 314 315 315 316 317 318 318 318 319 320 320 319 317 314 309 308 309 309 308 307 305 304 304 304 304 304 303
325 323 320 321 320 321 320 320 319 318 318 316 315 313 313 315 317 319 319 319 320 319 318 319 319 318 318 317 316 311 309 309 310 308 305 300 301 302 302 302 302 302 302
325 324 323 322 322 321 322 321 321 320 320 320 323 323 322 321 321 320 319 320 322 321 321 320 321 319 313 310 311 313 311 305 299 297 296 297 297 297 299 300 301 302 302
325 325 323 323 323 323 323 322 322 322 321 322 322 324 323 322 321 321 320 321 320 322 311 314 311 313 313 309 302 299 298 297 295 294 295 295 295 296 297 298 300 300 300
325 325 324 323 323 323 323 323 323 323 323 324 325 324 323 321 319 317 313 314 315 312 313 313 311 306 301 298 296 296 295 294 294 294 295 298 297 295 297 299 299 298 297
325 325 325 324 322 323 323 324 323 323 325 323 322 322 317 315 314 316 315 315 314 312 307 304 300 297 296 295 295 294 294 293 293 293 293 293 297 297 298 298 297 297 296
324 325 325 324 323 323 324 323 324 325 322 318 317 316 315 314 313 316 316 311 304 302 302 301 297 295 294 294 293 293 293 293 293 292 294 296 297 297 296 296 296 295 294
324 323 323 323 323 323 324 323 322 319 318 317 316 314 312 314 313 307 305 304 304 306 298 295 294 293 293 293 293 293 292 292 292 292 295 296 296 296 296 295 294 294 294
323 323 324 323 322 322 321 319 317 317 316 314 311 312 315 308 305 303 302 300 297 294 294 293 292 293 293 292 292 292 292 292 291 291 291 295 295 294 294 293 293 293 293

GFSGL_850_thetae_003.txt.gz
Theta_e
323 324 325 327 329 329 330 330 327 324 326 326 327 328 327 327 327 327 327 327 327 325 324 325 328 328 326 329 329 328 327 327 328 328 326 326 326 325 321 322 324 316 313
322 323 323 327 328 329 330 332 329 327 324 326 327 327 328 329 327 328 328 327 327 327 325 325 328 329 328 328 328 327 328 327 326 324 325 325 323 320 314 320 323 320 320
319 323 323 326 327 328 327 323 331 330 329 326 326 327 327 329 329 330 329 329 329 329 328 328 329 328 328 327 327 326 327 327 327 324 325 323 322 324 320 323 325 323 323
318 321 324 324 326 328 326 324 329 331 329 329 326 323 327 328 332 332 332 331 330 329 329 328 328 327 328 327 328 326 324 325 326 323 322 322 323 323 325 324 319 318 319
318 319 323 323 324 329 327 326 324 325 327 328 329 324 324 328 330 331 332 332 331 329 327 329 329 329 329 328 325 321 321 322 322 322 321 321 321 323 320 323 323 322 321
318 318 321 322 322 326 327 326 325 323 322 323 324 323 320 318 324 325 327 329 330 330 331 330 330 328 327 317 318 317 320 321 322 321 322 322 322 322 323 323 322 322 322
319 318 318 321 322 323 324 323 323 323 323 323 322 322 318 318 317 317 319 323 324 318 317 317 319 315 314 315 318 317 318 321 324 324 324 323 324 325 323 323 320 322 321
320 319 317 318 321 322 322 323 324 324 322 322 321 320 319 318 319 320 325 325 322 323 321 320 318 316 318 317 316 316 316 317 317 318 317 320 319 316 318 314 316 315 316
320 320 318 316 319 322 323 324 326 326 326 325 323 322 320 312 314 316 319 322 323 323 322 323 322 317 313 315 320 320 318 313 312 313 314 314 314 313 313 313 317 320 320
320 320 319 317 318 320 321 324 325 326 326 324 324 322 320 309 310 310 314 317 313 315 312 309 310 311 309 312 319 316 317 315 314 314 314 314 314 314 313 311 309 310 312
320 320 320 318 318 319 320 322 323 323 322 323 322 322 321 319 307 307 310 313 314 313 311 308 310 312 313 315 316 315 318 315 314 313 313 313 313 313 313 312 312 310 307
320 320 320 320 318 319 320 322 323 321 321 322 322 321 320 315 306 305 309 312 312 313 314 314 315 315 315 315 314 314 313 312 311 311 315 317 317 316 316 314 313 312 312
321 320 321 321 318 320 323 324 322 320 321 321 320 319 318 317 307 306 307 313 313 316 317 316 316 315 314 313 312 310 309 309 310 312 317 320 320 318 316 315 315 314 317
322 321 321 322 319 320 322 323 321 321 320 318 318 318 317 317 317 310 312 314 314 318 318 317 313 312 311 310 310 311 311 311 312 317 319 320 319 319 319 318 316 313 310
322 322 321 322 320 319 321 321 320 320 319 319 318 318 318 317 318 315 315 315 315 315 313 311 311 311 314 316 317 316 318 319 320 321 321 320 320 318 313 310 308 308 309
323 322 322 322 322 319 320 320 319 319 318 318 318 318 319 319 318 317 316 314 314 311 311 314 318 320 320 320 320 321 322 321 321 317 314 312 310 310 309 307 307 306 306
324 323 323 323 323 320 319 319 319 317 318 316 318 318 318 318 318 317 315 313 312 314 315 317 320 321 321 320 322 324 323 317 319 313 310 309 309 309 305 303 305 305 305
325 324 323 323 322 322 320 319 318 318 317 316 315 317 317 317 316 317 316 314 314 314 314 318 321 320 321 324 322 319 316 314 311 312 314 311 302 301 304 304 303 303 302
327 325 323 324 323 323 322 321 319 319 318 317 316 312 314 317 318 316 315 313 314 317 318 320 321 323 321 319 316 316 314 312 313 305 299 302 303 303 302 302 302 302 302
327 327 325 323 323 322 323 322 321 320 319 318 316 314 311 312 312 312 312 312 316 322 321 323 321 317 314 314 312 313 310 299 301 302 300 297 300 302 302 302 302 301 301
329 328 327 325 324 324 323 323 323 322 321 320 320 318 316 312 312 312 314 320 324 324 322 316 313 316 313 313 307 299 298 297 297 296 296 298 301 299 300 301 300 300 299
329 329 328 327 326 324 325 324 324 323 323 322 322 323 324 322 323 324 324 324 321 316 312 312 313 313 306 301 299 298 298 296 295 295 299 299 298 298 299 300 299 298 298
329 329 329 327 326 326 325 325 324 324 324 323 324 323 323 325 324 321 315 312 313 312 313 312 308 301 298 301 307 301 296 295 294 294 295 297 299 299 299 298 298 298 297
329 328 328 328 327 326 326 325 325 324 324 325 324 323 323 320 316 312 312 311 310 307 305 300 297 299 304 301 297 295 295 294 294 294 297 298 298 298 298 297 296 296 296
328 329 328 328 328 326 326 326 325 325 325 325 321 320 317 315 314 313 309 306 308 304 302 305 305 301 298 295 294 294 294 294 293 293 296 298 297 297 296 295 294 294 294
327 328 328 328 327 326 326 325 326 325 322 320 319 317 315 314 311 310 311 306 305 305 305 303 298 295 294 294 294 294 294 294 293 293 293 296 296 295 292 291 292 291 291

GFSGL_850_thetae_006.txt.gz
Theta_e
325 326 328 330 330 330 329 326 324 327 328 328 326 326 325 325 327 327 326 325 325 325 326 327 327 327 328 328 329 328 328 328 327 329 329 328 328 329 327 325 320 315 313
324 325 327 330 330 330 327 327 326 325 325 328 327 327 326 325 325 325 323 323 324 324 325 327 328 328 327 328 327 327 327 328 327 326 327 327 328 327 324 319 321 320 316
323 324 326 328 329 328 327 327 327 327 327 328 329 329 327 327 327 327 327 326 326 325 325 327 326 328 328 328 328 328 327 327 326 326 325 325 325 322 318 316 323 323 323
321 324 325 327 328 326 328 330 329 327 325 327 328 330 328 327 327 328 328 327 327 327 326 327 326 327 328 328 327 327 328 328 325 324 324 322 318 320 320 316 319 317 319
320 323 324 326 330 327 326 328 330 328 324 324 327 330 329 330 330 329 328 329 329 328 327 328 328 327 327 327 326 326 325 327 326 323 321 322 323 323 321 317 318 320 321
319 321 324 324 329 327 327 323 324 325 325 324 324 326 329 330 331 329 328 328 328 328 327 328 327 328 328 328 326 324 324 324 323 322 321 322 321 321 321 319 321 323 323
318 319 323 323 325 328 327 325 323 322 324 324 322 319 326 326 326 329 330 329 329 330 329 330 330 329 326 323 320 320 323 321 324 323 321 322 322 323 322 323 323 322 323
320 319 320 322 323 326 325 324 324 323 323 322 320 318 318 318 322 324 326 320 319 322 321 321 324 324 314 316 315 320 322 321 322 324 324 323 325 325 325 324 323 322 321
320 320 318 321 322 323 324 323 322 322 322 321 320 318 319 319 324 325 324 322 322 320 322 320 317 317 317 317 317 316 315 315 314 314 314 314 314 314 315 316 314 315 317
320 321 319 318 322 323 323 324 324 323 323 324 324 322 314 316 318 318 320 323 320 322 323 322 318 315 314 314 317 313 312 313 312 312 313 313 313 313 313 312 312 310 309
321 321 320 317 319 321 323 323 325 325 326 325 324 323 321 311 311 313 317 320 316 314 311 311 311 309 310 317 318 317 320 319 317 315 314 315 317 317 316 315 314 314 314
321 321 321 319 317 320 321 322 323 323 325 324 324 323 322 316 308 309 314 316 313 312 310 309 311 311 313 316 316 316 316 316 313 311 312 316 318 319 318 317 315 314 314
321 321 321 320 318 320 321 322 322 320 324 321 323 321 321 318 308 307 312 313 312 313 313 314 314 314 314 314 313 312 311 310 309 309 317 320 321 319 318 317 318 318 314
322 321 321 320 320 321 319 320 320 320 322 323 321 321 320 319 309 306 309 312 313 316 316 316 315 315 314 312 311 310 310 310 310 311 318 319 320 320 320 320 317 311 309
323 322 322 321 321 321 320 323 320 322 314 322 320 319 319 318 312 307 308 312 313 317 318 318 316 313 311 311 313 315 315 317 320 321 322 322 321 318 312 311 308 304 305
324 323 322 323 322 320 320 323 322 322 321 320 319 318 318 318 316 312 310 313 315 316 317 315 312 312 314 318 320 320 319 320 322 322 320 316 312 312 310 303 305 305 305
324 324 323 322 323 321 322 322 322 320 321 318 319 319 319 318 318 317 315 314 314 313 313 311 314 318 320 321 322 321 320 321 321 321 316 313 310 300 304 304 303 303 301
325 325 324 322 324 323 321 320 323 320 319 319 318 318 318 318 318 318 318 316 315 312 311 313 316 319 322 322 323 324 322 321 318 312 311 301 303 303 303 301 302 302 301
326 326 325 324 323 325 322 321 319 321 319 317 317 317 318 318 318 318 317 317 315 313 313 314 317 322 321 321 323 322 321 319 314 303 298 298 297 299 300 300 299 298 298
328 327 325 325 325 324 324 322 321 319 321 319 317 315 316 317 317 316 316 316 314 314 316 318 321 322 323 323 321 319 316 305 298 300 303 297 298 296 297 297 297 299 299
330 328 327 325 325 326 324 324 323 322 320 321 319 318 316 312 316 317 317 316 315 314 317 323 323 324 323 320 317 313 300 300 304 300 297 299 296 296 296 297 296 296 297
331 330 329 327 326 324 326 324 325 323 323 321 321 319 319 318 313 312 315 316 313 315 323 323 322 321 317 314 306 301 300 304 302 297 297 295 297 297 297 296 296 296 295
330 331 330 329 328 327 325 326 324 325 325 323 322 321 320 317 316 313 313 316 321 324 323 322 320 315 311 302 301 304 303 300 296 296 296 298 298 296 297 297 296 295 294
331 330 330 331 330 329 328 327 326 326 325 325 324 322 321 318 320 321 323 324 325 323 320 317 316 311 302 305 307 304 299 297 296 295 296 296 296 296 297 296 293 292 292
330 330 329 329 330 329 328 328 327 327 326 325 325 323 321 325 325 325 324 323 320 320 316 314 303 301 307 307 303 300 298 295 294 294 295 296 296 296 294 292 292 291 290
329 328 329 329 329 329 328 328 327 326 326 326 324 323 324 324 321 321 321 319 317 314 311 300 302 306 304 300 299 296 294 294 294 294 294 294 294 293 291 291 291 290 289

GFSGL_850_thetae_009.txt.gz
Theta_e
325 327 329 329 330 328 326 325 326 328 326 327 327 326 325 325 325 326 326 325 325 326 327 327 329 330 329 330 329 329 329 328 327 326 327 327 327 327 328 328 328 325 321
325 326 329 329 329 327 326 326 326 327 326 326 326 325 325 326 326 326 325 324 326 326 326 325 326 329 330 329 328 328 327 326 327 328 328 328 327 329 328 327 324 318 314
324 324 328 329 329 327 328 326 327 326 327 327 326 324 325 326 324 324 325 325 325 326 326 327 328 329 329 329 328 328 327 326 326 327 327 327 329 328 324 321 317 316 315
323 324 328 328 327 327 329 328 325 327 328 328 327 326 325 326 326 326 324 323 324 325 327 328 328 327 328 327 327 327 326 327 326 327 326 325 327 326 318 312 312 315 313
321 322 326 327 326 327 329 327 324 326 327 328 328 327 327 327 327 326 326 327 326 325 328 327 328 328 327 326 326 327 328 327 325 324 324 325 322 316 311 310 313 316 318
320 321 323 328 328 326 327 326 326 324 327 328 329 328 328 329 329 329 328 328 327 327 327 327 327 328 327 327 326 327 327 327 325 322 320 317 314 312 313 315 316 318 321
319 320 320 328 328 327 323 323 326 325 323 322 328 329 329 329 328 327 327 327 327 328 327 327 326 327 327 326 326 324 325 327 322 321 321 321 321 322 322 322 322 322 322
319 319 319 324 328 328 325 323 324 325 323 319 324 326 326 328 329 329 328 328 328 328 328 328 327 327 327 325 323 322 324 323 322 326 322 322 323 322 322 323 324 325 325
318 319 319 322 323 327 325 324 323 323 322 319 317 319 322 325 326 320 321 325 326 325 326 328 326 320 320 320 319 321 323 322 324 324 325 324 324 325 324 322 322 319 315
319 320 318 320 322 324 324 323 322 323 322 320 319 319 320 323 323 322 320 322 324 322 319 317 323 317 314 316 314 319 317 320 320 320 316 314 313 313 315 315 315 314 314
320 321 319 318 321 321 323 324 323 320 322 324 323 319 317 322 324 324 323 320 320 323 322 319 317 317 316 316 316 314 314 313 312 312 314 315 317 317 316 317 315 315 314
320 321 320 318 319 321 322 323 323 320 321 325 324 323 318 312 315 317 320 320 317 315 316 317 315 313 313 317 317 316 319 319 317 314 313 315 319 320 318 317 317 317 317
321 321 321 320 317 318 320 322 322 321 325 324 326 324 321 317 310 311 316 316 313 311 309 310 311 310 314 316 317 318 318 318 316 310 314 320 320 319 319 319 318 315 309
322 321 322 321 319 317 319 319 319 319 322 325 324 323 321 316 313 308 311 314 312 312 311 311 312 312 314 315 314 312 311 309 308 310 317 319 320 320 320 316 312 310 308
323 322 321 321 320 319 318 319 319 317 315 318 320 321 320 318 314 307 308 312 312 313 314 314 314 314 314 313 312 310 310 312 311 314 319 321 321 318 314 312 308 303 302
323 322 322 321 320 320 319 319 320 319 315 315 317 318 317 315 316 313 306 310 312 315 316 316 316 315 314 311 310 314 318 319 319 321 321 319 315 313 306 302 302 302 301
324 323 323 321 321 320 320 318 319 321 320 322 316 319 319 318 317 317 309 307 311 313 316 318 317 313 312 318 319 319 319 318 320 321 319 316 315 300 300 298 297 297 296
323 324 323 322 321 321 320 320 318 319 320 321 319 319 320 319 319 318 316 309 307 312 314 316 314 312 318 320 320 321 319 320 320 320 318 306 299 299 297 297 297 296 296
325 324 324 323 322 322 321 321 319 319 320 319 320 318 319 319 319 319 318 317 313 313 314 314 312 313 318 319 322 322 320 320 319 316 300 306 306 297 297 296 296 296 295
327 326 325 324 323 323 324 323 322 320 322 321 319 318 318 318 318 318 318 318 318 317 315 313 312 315 319 321 322 321 320 318 309 301 305 304 298 297 296 296 295 295 294
329 328 326 325 324 323 323 325 323 322 320 321 321 320 318 316 318 318 318 318 317 317 315 313 312 313 316 321 320 319 318 310 302 305 305 298 297 296 296 295 295 294 293
331 329 328 326 325 325 324 323 325 324 322 321 319 320 320 319 317 315 317 317 316 315 314 314 316 317 319 321 321 319 313 304 308 304 300 297 296 296 296 295 295 293 293
331 331 331 328 326 325 326 326 325 325 324 323 322 321 321 320 319 318 315 316 315 315 315 314 316 321 321 321 319 316 307 308 305 300 297 297 297 296 296 295 294 293 293
331 331 332 331 328 327 326 325 326 326 325 325 323 323 322 322 321 319 317 315 316 315 315 314 315 320 319 316 308 305 305 305 305 298 297 297 296 295 295 294 293 293 292
331 330 330 331 331 330 329 327 328 327 325 325 325 325 324 323 321 318 317 315 314 314 315 316 318 317 315 310 303 306 306 307 298 297 296 296 296 295 293 293 293 292 291
329 330 330 331 331 330 330 330 328 328 328 327 326 325 324 323 320 318 316 314 313 314 317 316 315 313 306 303 305 307 307 300 297 295 296 296 295 293 293 293 292 292 291

GFSGL_850_thetae_012.txt.gz
Theta_e
325 327 328 329 329 326 325 326 327 326 325 326 325 323 323 324 324 325 324 323 325 329 329 330 329 328 328 329 328 328 329 328 328 329 327 329 329 328 326 325 327 328 327
324 326 328 329 329 327 326 326 327 326 326 326 326 325 325 325 326 325 326 328 328 328 329 329 329 329 329 329 329 329 329 329 328 328 328 327 327 326 326 326 328 325 321
323 325 328 328 327 327 326 326 326 325 325 325 325 325 325 325 325 326 324 325 325 326 325 327 329 328 328 329 330 327 327 327 326 326 328 328 327 327 328 327 326 320 316
323 324 327 327 325 329 326 327 326 327 327 324 324 325 326 326 326 324 324 326 326 326 326 326 329 329 329 329 327 326 326 327 325 325 326 326 327 328 327 323 315 316 318
322 323 326 326 328 329 325 326 327 328 328 326 325 326 326 325 324 324 325 325 324 325 327 327 329 329 328 328 328 326 325 325 325 325 326 326 326 327 323 312 311 315 316
321 321 323 326 326 328 325 326 328 328 329 328 327 326 327 328 327 326 326 325 326 327 328 328 328 328 328 327 327 326 326 326 325 324 324 324 324 320 312 313 314 316 318
320 320 321 327 326 325 325 324 324 323 326 328 327 327 328 329 328 327 327 327 326 327 327 327 326 326 325 326 327 327 327 326 322 319 317 317 318 319 320 321 321 322 323
319 320 319 328 327 325 323 325 325 323 321 328 329 329 328 327 326 327 327 328 326 327 327 328 327 326 326 326 326 325 326 326 325 322 322 321 322 322 322 322 322 323 325
319 319 318 327 327 326 322 323 324 322 320 324 324 328 328 328 327 327 327 327 327 327 327 327 327 326 326 326 324 323 324 323 323 326 324 323 325 325 325 325 323 324 323
320 318 318 319 327 327 324 323 323 322 320 320 322 322 323 321 323 326 329 329 328 328 328 328 326 327 324 323 322 321 323 324 325 323 324 324 317 313 312 313 314 315 315
323 318 319 318 321 324 325 324 323 322 321 319 319 323 324 322 321 319 320 319 318 318 320 326 322 317 316 316 317 320 322 321 320 317 315 313 314 316 316 317 317 316 316
323 318 319 318 319 321 322 323 322 322 322 321 320 318 324 325 324 324 322 320 319 319 318 315 315 315 316 316 316 317 316 315 314 312 313 314 316 318 319 318 317 316 313
322 319 320 319 318 320 321 321 323 321 321 323 323 321 315 322 323 322 321 322 319 319 318 318 316 317 316 316 317 315 315 316 316 314 311 312 318 319 319 319 316 314 309
323 320 320 320 318 319 319 320 320 321 318 321 325 324 322 317 312 314 316 317 318 314 312 313 314 313 313 317 317 318 320 320 318 313 312 317 319 319 319 316 311 307 306
323 320 320 321 319 318 318 318 319 318 317 316 321 323 323 321 315 310 310 314 314 311 310 310 311 310 313 317 318 317 313 310 309 309 312 315 319 318 315 313 310 304 300
323 321 320 321 320 319 318 318 319 318 318 317 316 320 320 318 316 312 308 309 313 312 312 311 312 311 313 315 314 312 310 310 310 310 315 320 319 317 315 304 301 298 297
322 322 321 321 321 320 319 319 319 319 320 319 316 316 319 316 314 315 310 307 310 312 314 314 314 313 313 313 312 311 310 313 316 318 321 320 318 312 301 299 297 297 296
322 322 322 322 322 321 320 319 319 318 317 315 317 314 318 318 318 317 318 313 307 311 312 315 315 316 316 314 311 311 315 318 318 319 320 318 309 299 300 298 297 296 296
324 323 322 322 322 321 321 320 320 319 317 315 318 316 317 319 319 319 318 318 309 307 311 312 316 317 316 312 316 319 319 319 318 319 318 309 300 304 299 297 296 296 295
327 325 323 323 323 322 321 321 320 320 319 317 316 318 316 319 319 319 319 319 317 311 308 310 313 315 315 313 316 319 320 319 318 318 313 303 306 299 297 297 296 295 294
330 327 325 324 324 324 323 322 321 321 321 320 318 316 317 317 318 318 318 319 318 317 316 313 312 314 313 312 312 318 320 319 318 316 306 305 300 300 301 296 295 295 295
331 330 327 325 324 324 324 323 323 322 323 323 322 320 319 319 318 317 317 318 318 318 318 318 316 313 313 312 314 318 320 319 317 308 304 303 300 300 296 295 295 295 294
332 331 330 327 326 326 325 324 324 323 323 324 324 323 322 320 320 320 319 317 317 317 318 318 317 315 313 314 315 318 320 319 315 305 304 304 298 296 296 295 295 294 293
332 332 331 329 328 328 327 325 325 324 324 323 323 324 324 323 322 320 320 319 318 317 316 317 317 315 314 316 316 318 315 311 304 301 302 304 297 297 296 295 294 293 293
333 332 331 331 330 330 329 327 326 325 325 325 324 325 324 323 323 323 322 321 320 318 316 316 316 315 315 317 317 316 308 301 300 302 307 298 297 296 295 294 293 293 293
332 332 331 331 331 331 331 330 329 328 327 327 326 325 325 325 325 325 323 321 320 317 315 315 314 314 316 317 316 310 302 301 305 303 298 298 296 295 294 293 293 293 293

GFSGL_850_thetae_015.txt.gz
Theta_e
325 326 328 329 327 326 325 327 326 325 324 321 319 322 322 322 322 325 325 325 324 325 326 329 329 329 329 327 326 326 329 328 328 328 327 326 325 328 326 327 326 327 327
324 325 328 329 327 326 326 327 326 326 325 325 324 321 321 324 324 325 324 323 323 329 329 329 328 328 328 328 329 329 328 328 328 328 327 327 328 328 327 325 325 327 325
323 324 328 328 326 327 326 326 325 325 326 325 325 324 324 325 325 326 327 328 328 328 328 329 329 329 329 328 328 329 328 327 328 327 328 328 328 327 326 325 327 321 316
322 324 327 327 326 326 326 326 326 325 325 325 325 325 324 325 326 324 325 325 325 325 326 328 329 329 329 329 329 326 328 328 328 328 328 327 326 326 326 327 326 320 317
321 323 326 325 328 325 327 326 327 326 324 324 325 325 325 326 325 323 325 325 325 325 325 328 328 328 329 329 326 326 326 326 326 327 327 326 327 328 326 322 316 314 316
321 322 324 326 328 324 326 327 328 328 326 324 324 325 325 325 324 325 325 325 325 325 327 327 329 329 328 327 326 327 326 324 325 325 325 326 326 326 315 312 311 315 319
320 321 322 325 327 325 326 327 327 328 328 327 326 327 328 328 326 326 326 325 326 327 327 328 328 328 327 326 325 325 325 325 325 324 324 323 319 314 314 317 320 322 323
320 320 320 325 325 325 324 323 322 324 328 327 327 328 327 328 328 326 327 326 327 327 327 327 327 327 327 326 326 326 326 324 322 320 320 321 321 321 321 321 322 322 324
320 319 319 322 326 323 325 325 323 321 327 328 328 327 326 327 327 327 327 326 326 327 324 323 324 326 326 326 325 325 325 323 323 323 323 323 324 323 323 323 321 317 317
320 319 318 319 326 326 322 323 322 320 322 324 329 328 327 327 327 327 327 327 326 327 328 325 325 326 326 325 324 323 322 322 325 323 323 324 322 316 312 313 315 317 317
322 319 317 318 325 327 325 322 322 321 318 319 322 323 321 325 327 328 328 327 327 327 327 327 326 326 326 323 322 322 322 324 322 321 321 320 314 313 315 317 318 319 319
322 319 318 318 321 324 326 324 322 322 319 318 319 321 322 319 318 321 322 322 324 327 327 324 322 321 320 320 320 321 322 322 321 320 316 314 315 316 317 318 319 319 319
322 320 318 318 317 319 324 324 323 322 321 319 318 320 323 323 323 321 320 320 320 318 317 322 318 314 317 317 317 319 320 316 316 314 313 314 314 315 318 319 319 319 314
322 322 318 319 318 320 320 321 322 322 321 320 320 317 320 323 323 322 322 322 321 321 321 319 317 316 316 317 317 316 315 314 314 314 313 311 312 318 319 319 318 314 308
321 322 318 319 318 318 319 320 319 319 319 315 316 320 319 315 317 319 318 318 318 319 319 318 319 317 317 316 318 316 317 318 318 316 312 310 315 318 319 317 310 308 305
321 322 319 319 320 318 318 319 319 319 318 318 315 316 321 320 318 314 310 312 315 315 313 311 313 314 312 314 317 316 316 316 313 310 310 312 313 319 317 310 306 304 299
321 321 320 319 320 320 318 318 319 319 319 320 318 317 318 319 320 319 313 310 310 313 312 311 310 312 311 313 315 315 314 313 311 309 310 311 318 318 314 311 303 299 296
322 321 320 319 319 320 320 319 319 318 317 319 319 319 318 319 320 319 317 316 309 309 312 312 311 312 311 312 314 315 314 311 310 310 312 317 319 317 313 303 298 297 296
323 322 321 320 319 320 320 320 319 319 319 317 317 317 315 315 319 319 319 318 314 307 309 312 313 313 313 312 312 312 312 311 310 313 317 319 318 316 304 299 297 296 295
324 323 322 322 320 320 321 321 320 319 319 319 317 314 314 312 316 318 318 318 318 317 312 308 311 313 315 315 315 315 312 310 311 315 318 318 315 307 300 298 296 296 295
326 324 323 323 322 322 321 321 321 320 320 319 319 317 314 314 312 315 317 318 318 317 317 315 308 309 312 315 316 317 313 314 317 317 317 315 312 301 299 296 298 297 296
328 327 326 324 323 323 322 322 322 322 321 320 320 320 318 316 316 315 315 316 317 318 318 318 316 312 308 310 313 316 315 314 317 317 316 314 304 300 298 307 303 296 295
330 330 329 328 327 325 324 323 323 323 323 322 322 322 322 321 318 317 317 316 316 316 317 317 318 318 317 314 308 310 313 312 313 317 315 309 301 298 306 303 297 294 294
331 331 330 331 330 329 327 325 324 324 324 324 323 323 323 323 323 322 320 320 320 319 318 317 317 317 317 318 318 313 311 313 317 316 314 303 299 304 302 297 295 294 294
332 332 332 331 331 331 330 328 327 327 326 326 325 324 324 323 323 324 324 323 321 321 320 320 319 318 317 317 316 313 312 316 317 315 307 300 304 302 296 296 295 294 293
332 332 332 332 332 331 331 330 329 329 328 328 327 326 325 325 324 324 324 324 324 323 323 322 321 319 317 316 314 313 313 316 312 310 302 302 302 302 296 296 294 293 293

GFSGL_850_thetae_018.txt.gz
Theta_e
325 326 327 328 326 325 325 326 325 324 322 321 320 324 323 324 322 324 325 325 324 325 325 326 328 328 328 327 326 325 328 328 328 328 328 327 327 327 326 326 326 326 326
325 326 327 328 326 326 326 326 326 325 323 320 318 322 321 323 324 325 325 324 324 324 325 329 328 328 328 325 326 327 328 328 328 328 327 326 326 327 328 326 326 327 324
324 324 327 327 327 326 325 325 325 326 325 325 322 322 322 324 325 325 324 325 327 328 328 329 328 328 328 327 326 327 329 328 327 327 326 326 326 326 326 325 327 324 321
322 324 327 327 328 326 325 325 325 325 325 325 325 324 325 326 325 325 326 326 327 328 329 328 328 327 327 329 328 328 328 327 328 327 327 326 326 327 326 326 326 320 316
321 324 326 326 326 326 325 326 325 324 325 325 324 324 325 325 324 325 325 325 324 325 328 328 330 328 328 328 327 328 327 328 327 326 328 328 327 327 326 326 321 317 317
321 323 325 328 325 326 326 327 326 325 323 325 325 324 325 324 324 325 325 324 324 324 326 330 327 329 327 327 326 328 328 327 328 327 326 326 326 326 325 321 314 316 319
321 322 325 327 325 327 327 327 328 326 325 325 326 326 326 325 325 325 325 324 325 326 326 327 328 328 327 326 326 326 326 327 325 325 326 326 327 322 312 312 314 319 321
322 321 325 326 325 325 324 323 326 328 327 326 327 328 328 327 326 326 326 326 326 326 326 326 329 327 326 326 325 325 324 324 324 324 323 321 314 314 318 320 321 321 322
322 321 322 325 325 324 324 322 322 328 327 328 326 326 327 327 327 327 326 327 327 327 327 326 328 327 325 326 326 325 324 322 321 320 320 320 320 321 321 321 321 321 320
323 320 320 325 324 324 324 323 320 324 328 328 327 326 327 327 327 326 326 326 324 326 326 327 326 326 326 326 325 323 322 323 322 322 323 324 322 322 317 314 314 315 315
323 320 319 321 326 322 322 322 320 320 323 328 327 327 327 327 327 327 327 327 325 323 324 326 326 326 325 324 323 322 323 324 323 322 323 322 315 313 314 316 317 316 317
323 320 318 319 325 326 323 322 320 318 318 321 322 320 323 327 327 327 326 326 327 326 325 325 325 326 325 322 322 323 324 323 321 321 319 316 314 314 316 317 318 319 320
322 321 318 318 322 326 326 322 321 320 317 318 319 320 319 318 321 323 324 326 327 327 326 326 325 324 323 321 321 322 322 321 320 319 314 314 314 315 315 317 319 320 319
322 322 318 318 317 325 325 324 323 322 320 317 316 318 320 321 319 318 318 319 319 319 325 320 317 316 316 316 318 320 320 318 315 315 313 313 313 313 315 318 319 319 315
321 322 319 318 318 317 320 323 322 321 320 317 317 314 316 318 320 320 319 318 318 320 319 318 316 314 314 316 315 316 316 315 314 314 314 314 312 313 317 318 318 316 311
321 322 321 318 318 317 318 320 321 321 320 319 316 316 316 314 314 317 318 319 319 319 319 319 318 316 315 315 315 315 314 314 316 318 318 316 312 313 315 318 316 312 305
321 321 321 318 319 319 318 317 318 319 321 321 320 318 316 319 320 319 316 313 314 316 316 316 314 315 314 314 314 314 314 315 318 318 314 311 312 314 315 318 315 311 302
322 321 320 319 318 319 319 318 318 317 317 318 319 319 318 318 321 322 320 317 314 310 312 314 312 311 312 312 312 314 315 315 316 314 310 310 313 313 316 316 312 305 299
324 322 321 320 318 318 319 319 319 318 318 316 317 317 318 317 318 321 321 320 316 312 309 311 312 312 311 312 311 312 314 315 316 315 311 310 312 313 317 313 309 300 297
325 324 322 321 320 318 318 319 319 319 319 318 318 316 316 316 315 315 317 317 316 314 311 308 309 312 312 312 311 310 310 312 314 313 310 310 312 315 315 312 304 298 297
326 325 323 322 321 320 318 318 319 319 320 319 319 318 317 315 313 312 312 314 313 312 312 311 309 307 310 311 313 313 311 309 309 310 309 309 312 316 313 307 300 297 295
326 326 325 324 322 322 321 320 319 319 320 320 320 319 319 318 317 314 312 311 312 312 313 314 314 313 313 310 309 311 314 314 313 312 309 310 314 315 311 305 297 295 297
325 326 326 325 324 323 322 322 322 321 321 321 321 321 320 319 319 318 315 314 313 314 315 316 316 317 318 318 317 314 309 309 311 313 314 312 314 314 312 301 297 298 303
326 325 326 327 327 326 324 324 323 323 322 322 322 323 322 321 320 321 321 320 317 316 316 316 316 317 317 317 318 318 318 313 314 313 315 314 315 311 304 299 301 302 302
329 329 327 326 329 329 329 328 327 326 325 324 323 323 324 323 322 322 322 323 323 322 321 321 320 320 320 319 318 317 317 318 315 312 314 313 313 308 301 299 302 301 296
331 331 331 328 328 330 329 330 330 329 328 327 326 326 326 325 325 324 323 323 323 323 323 323 323 322 321 320 319 318 316 316 314 311 311 313 313 308 301 301 302 299 295

GFSGL_850_thetae_021.txt.gz
Theta_e
325 326 327 328 326 325 326 326 325 322 322 321 322 324 325 323 323 324 324 325 325 325 326 326 325 327 328 325 325 325 327 328 328 328 328 326 326 325 326 326 326 326 325
325 326 327 328 326 326 326 326 324 323 321 321 321 324 322 323 324 325 325 325 324 325 325 327 328 328 328 325 326 325 328 328 328 328 327 325 325 325 326 326 326 325 323
324 325 328 327 327 325 326 326 326 325 322 320 320 320 321 324 325 324 324 323 326 325 328 328 329 328 327 327 327 326 328 328 328 327 327 327 325 326 326 326 326 324 320
323 325 327 327 326 325 325 325 325 325 325 324 323 323 325 325 326 326 327 327 329 328 328 329 329 328 328 327 327 328 328 328 328 327 327 327 326 327 325 326 325 317 314
323 324 326 326 326 325 326 325 325 325 325 325 325 326 326 325 325 325 326 325 326 329 328 328 327 327 328 328 328 328 328 327 327 327 326 327 326 325 325 325 321 317 320
322 324 325 327 326 325 327 325 324 325 324 324 324 325 324 325 325 325 324 324 325 329 327 328 328 328 328 327 328 327 326 327 326 326 326 326 326 325 326 324 319 319 321
322 323 326 325 326 326 327 327 325 324 325 325 325 325 325 324 325 325 324 325 325 327 327 328 328 328 328 327 328 327 327 327 327 326 326 326 326 325 326 318 317 321 323
323 322 326 325 327 327 327 327 327 326 326 326 327 327 325 325 325 326 325 326 326 327 326 327 328 326 326 326 327 326 326 326 326 326 327 326 326 325 320 314 317 320 322
324 322 325 326 325 323 322 324 328 327 326 327 326 328 327 326 326 326 326 325 328 327 328 328 327 327 326 324 326 325 324 324 325 325 327 326 318 312 312 318 321 322 322
325 321 322 325 324 323 322 322 327 328 327 326 327 327 327 327 326 327 326 327 326 326 328 327 326 325 325 326 325 324 321 319 317 318 317 316 319 321 321 321 321 323 319
324 322 320 324 324 324 324 320 323 328 328 327 327 327 327 327 326 327 324 327 327 326 326 327 325 326 326 325 323 321 320 321 321 321 321 321 321 322 320 316 316 316 316
323 323 320 321 325 323 323 320 320 324 328 327 327 327 327 327 327 327 326 325 326 326 326 325 326 324 323 324 322 323 323 322 322 323 323 320 316 314 315 317 317 318 318
322 323 320 319 325 324 321 321 319 319 323 322 321 324 327 327 326 326 327 325 324 326 326 325 325 325 323 322 322 324 322 322 322 322 319 314 313 315 316 317 318 318 319
322 323 321 318 321 326 325 321 320 318 318 320 323 320 320 323 326 326 327 327 326 326 325 326 326 325 323 322 323 323 322 321 320 318 315 314 314 315 315 317 318 319 317
321 322 322 319 318 323 326 325 322 320 318 316 318 320 320 317 317 316 316 319 325 327 325 322 321 320 322 321 321 321 321 320 317 316 314 313 314 314 314 316 317 318 314
320 321 322 320 318 317 323 324 324 323 320 319 317 315 316 320 320 318 318 317 317 317 318 321 317 314 314 315 316 318 319 318 316 314 314 314 314 313 313 315 316 314 311
319 319 321 321 318 319 319 321 321 321 321 320 320 317 317 314 315 319 319 319 319 320 319 319 317 314 313 313 314 314 314 315 315 315 316 316 316 314 312 315 315 314 310
322 320 318 320 318 318 317 320 322 322 320 318 318 319 317 317 320 318 315 316 316 317 317 319 317 316 316 315 314 315 315 315 315 316 318 318 316 312 312 314 314 313 310
324 322 320 318 318 317 318 319 321 322 321 321 317 317 318 317 317 321 323 321 317 313 312 313 314 313 312 312 313 313 313 314 316 316 317 317 314 311 313 314 313 311 308
325 324 322 320 319 318 318 319 321 321 321 321 318 316 316 317 317 317 319 321 321 319 314 311 310 312 313 312 312 311 313 313 313 316 317 316 313 311 313 313 313 313 308
325 325 323 321 320 318 316 318 320 320 320 321 319 317 315 315 315 315 314 315 317 317 316 313 311 310 310 311 312 312 312 311 311 311 313 315 315 311 312 312 313 311 305
326 325 324 322 322 320 319 317 317 318 319 319 319 319 318 318 318 318 316 314 313 312 313 313 312 312 310 309 308 310 312 312 312 311 310 309 311 310 311 312 312 307 302
326 326 325 323 323 322 321 320 319 317 317 318 318 319 319 319 319 318 318 318 316 314 312 311 312 312 313 314 314 313 313 310 309 311 313 313 309 308 309 311 312 308 302
326 326 326 325 323 323 322 322 322 321 320 319 319 319 319 319 320 320 319 320 320 319 315 314 312 313 314 316 316 317 317 318 318 317 311 311 311 311 310 311 310 305 298
324 325 324 325 325 324 324 323 323 323 323 322 322 321 320 321 321 321 321 320 320 321 321 319 317 316 316 316 316 317 317 317 317 317 318 312 311 312 311 311 311 304 298
325 326 324 323 324 324 324 325 325 325 324 325 325 324 323 323 322 323 323 322 322 322 322 322 322 322 321 321 321 320 320 320 318 317 316 315 311 312 310 311 307 301 300

GFSGL_850_thetae_024.txt.gz
Theta_e
330 331 332 333 331 331 332 331 329 330 328 329 329 329 328 325 324 325 327 328 325 326 326 327 327 327 328 327 328 326 325 325 327 328 328 328 326 324 323 325 325 325 322
330 330 332 332 331 331 331 331 329 329 328 328 328 329 324 323 324 325 326 328 327 327 326 327 328 328 328 326 326 325 327 328 328 327 327 326 325 325 324 325 325 325 323
328 329 333 332 332 331 331 330 330 328 328 328 329 329 321 324 326 325 326 324 326 328 328 329 329 329 328 326 327 327 329 328 327 326 326 326 325 325 325 326 325 322 317
327 330 332 332 331 332 331 331 331 329 328 328 328 324 325 325 325 324 325 326 326 328 330 329 329 329 327 326 327 329 329 328 327 327 326 325 325 325 326 325 322 321 315
326 330 332 332 331 331 331 332 331 331 330 330 328 325 325 326 327 328 331 331 328 329 330 330 330 330 329 326 328 328 328 328 327 326 326 326 325 325 326 324 320 315 314
327 329 331 332 331 332 331 331 331 330 330 330 330 326 325 325 325 325 326 329 329 328 328 328 328 328 328 328 328 328 328 328 327 326 325 326 326 326 325 321 317 320 321
327 329 331 331 331 333 331 330 331 331 330 330 330 325 325 325 325 325 325 327 329 329 328 329 328 327 328 328 327 327 328 327 326 326 326 326 326 325 325 323 322 323 323
326 328 331 331 331 331 332 332 331 331 328 326 326 325 324 325 325 324 325 327 327 328 329 327 329 328 327 327 327 327 327 327 327 326 325 325 325 325 323 321 325 325 323
325 327 330 330 331 331 331 332 332 328 326 327 327 327 326 325 326 326 327 327 327 328 329 328 327 327 328 327 327 327 326 326 326 326 325 325 326 326 323 322 321 323 323
325 325 330 330 330 329 329 332 332 331 328 327 328 328 327 326 326 327 327 327 327 328 327 329 326 325 326 324 325 326 325 326 326 326 325 326 325 324 315 320 324 324 324
325 325 328 330 329 330 327 330 332 332 332 328 328 327 327 326 326 325 326 327 327 328 328 326 326 325 325 325 324 323 325 325 327 327 327 322 316 314 317 325 326 326 322
325 325 326 330 330 330 329 329 332 332 332 331 328 328 327 327 326 325 326 327 328 327 327 325 326 326 324 324 324 319 317 319 321 321 322 323 323 323 322 321 321 320 320
324 325 326 329 329 330 330 327 330 333 331 331 331 331 328 327 326 325 326 327 327 327 327 326 325 324 323 322 321 321 321 325 324 324 324 324 323 320 317 316 317 317 318
324 326 326 327 330 328 328 326 326 329 329 327 327 330 330 330 327 325 326 326 329 328 327 325 324 323 325 323 324 324 325 325 325 323 320 318 314 314 316 316 317 318 319
325 326 326 325 327 329 327 325 323 324 325 325 325 324 328 329 330 329 327 328 328 328 326 325 326 325 325 324 324 323 323 323 323 322 320 315 314 316 316 316 315 316 313
326 326 325 324 325 327 329 328 324 323 320 322 325 325 323 322 323 325 327 328 328 326 326 327 326 326 325 324 325 324 324 322 322 321 319 316 316 316 315 314 314 314 313
324 325 325 323 324 324 326 329 328 324 322 319 318 318 324 323 318 316 317 318 320 325 327 323 321 322 323 323 323 323 323 323 322 320 319 317 317 316 315 314 314 314 312
326 324 324 323 323 323 323 326 327 327 324 322 318 317 317 317 320 320 320 319 319 319 320 320 320 320 318 318 319 320 321 322 322 320 319 319 318 317 315 315 314 313 310
328 325 324 324 323 322 323 323 323 323 324 323 322 318 317 318 318 316 319 321 321 320 320 321 322 321 321 319 318 318 319 320 321 320 320 319 319 318 316 315 314 312 310
329 327 324 325 323 322 322 322 322 322 322 322 322 323 320 317 317 320 319 317 318 318 317 317 318 320 321 321 320 320 319 320 320 320 320 319 319 318 317 315 314 311 308
329 328 325 325 324 323 321 322 322 321 322 322 322 322 322 317 320 320 320 320 321 320 320 319 318 316 316 318 319 319 319 319 319 319 319 319 319 318 317 316 314 310 307
329 329 325 325 325 324 322 321 322 322 322 322 322 322 321 320 320 320 321 321 320 321 321 321 320 318 317 316 315 317 317 317 318 318 318 318 318 317 316 315 313 309 306
329 328 326 326 326 325 324 323 322 322 322 322 322 322 322 322 321 320 321 322 322 321 321 321 321 320 319 318 317 315 314 315 316 317 317 316 316 315 315 314 312 308 305
328 328 327 326 326 326 326 325 324 323 323 322 322 322 322 323 323 322 321 322 323 323 323 321 320 320 320 319 319 318 316 314 314 314 315 315 315 314 313 312 310 306 305
327 327 327 326 326 326 326 326 326 326 325 324 323 323 323 322 324 323 322 322 323 324 324 323 323 321 319 319 320 319 318 315 316 317 317 316 315 314 312 310 308 305 306
327 328 328 327 327 326 326 327 326 327 327 327 326 325 325 325 324 324 323 323 324 324 324 324 322 321 320 317 316 318 317 315 315 316 317 317 315 314 312 309 307 307 307

GFSGL_850_thetae_027.txt.gz
Theta_e
331 332 332 333 333 332 330 331 330 330 329 329 330 329 330 329 328 328 326 326 327 326 324 324 327 328 328 329 329 329 329 328 328 328 327 327 325 324 321 324 324 324 324
331 331 332 333 333 331 332 330 330 328 329 329 329 330 330 330 330 325 330 330 329 329 328 328 328 328 330 327 328 325 325 327 326 327 326 325 324 322 323 323 324 325 323
330 330 332 333 333 331 331 332 329 329 329 329 329 330 329 330 329 331 327 327 327 327 328 329 328 329 328 327 326 326 328 328 327 326 325 325 324 324 324 324 324 322 320
329 331 332 333 332 332 331 333 331 329 329 329 329 330 331 327 328 330 328 328 331 330 329 330 330 328 328 327 327 328 328 328 326 325 325 324 324 324 324 323 322 321 316
328 332 331 334 332 332 330 331 330 329 329 329 331 330 326 326 327 329 329 329 331 333 330 330 329 327 326 328 328 329 328 327 326 326 325 325 324 325 323 322 320 319 315
329 331 332 332 332 332 330 330 331 331 329 330 331 329 326 328 327 329 330 329 331 331 330 330 330 329 327 328 329 329 328 327 326 325 325 325 324 324 324 323 317 313 313
329 331 332 332 332 331 331 331 332 330 329 329 330 329 328 325 325 326 328 329 330 331 329 329 329 328 328 329 328 328 328 327 326 325 325 325 325 325 323 316 315 318 320
329 331 332 332 332 332 331 331 332 331 331 329 329 331 327 325 325 325 328 330 330 329 329 328 328 328 328 327 328 328 327 327 326 326 325 325 325 324 323 318 321 323 321
328 331 331 332 332 332 332 331 332 328 327 327 327 327 326 325 325 325 328 330 330 329 329 330 328 328 327 327 328 328 326 326 326 326 326 325 324 324 322 321 326 324 321
327 330 331 332 332 332 333 331 330 331 332 328 328 327 325 325 326 326 328 329 330 329 328 328 328 328 327 327 326 327 325 327 326 325 325 325 325 324 325 325 324 324 323
327 329 331 332 332 332 334 332 330 332 331 329 328 327 327 327 327 327 328 328 329 330 327 326 325 327 326 326 326 326 326 326 326 325 325 326 326 323 322 321 325 326 326
327 328 331 332 331 331 333 334 332 331 331 331 329 328 327 326 325 326 327 327 329 329 328 325 325 325 324 324 325 326 326 325 325 325 325 325 325 321 324 325 326 326 325
327 327 330 332 331 332 331 333 334 332 330 332 331 330 328 327 326 326 326 327 329 329 327 326 325 325 325 324 323 326 326 326 326 326 323 321 322 324 322 322 324 325 323
327 328 329 331 331 332 330 331 331 332 329 330 331 332 331 329 327 327 327 327 327 327 326 325 324 322 322 319 318 323 325 323 323 324 324 325 325 324 322 320 318 319 317
327 328 329 331 331 331 329 327 327 330 329 327 328 331 331 330 329 329 327 329 328 328 327 324 324 326 324 323 322 323 326 326 325 325 324 323 321 319 319 318 318 317 316
326 327 328 328 331 330 328 327 325 326 327 326 325 326 329 331 329 327 329 330 330 327 329 328 328 327 326 325 325 325 325 325 326 325 323 321 319 319 319 319 318 317 316
326 326 326 327 328 331 329 328 325 324 323 325 326 325 324 325 326 327 327 328 329 327 328 328 328 328 327 325 324 324 325 324 324 324 323 321 320 319 318 318 317 317 317
327 326 326 325 326 326 330 331 330 326 324 320 322 325 325 323 320 319 326 327 327 327 328 327 326 326 326 325 324 324 325 325 324 324 323 322 320 319 319 318 317 317 317
328 327 327 326 324 325 325 328 330 329 328 324 322 317 322 324 322 317 316 319 322 323 325 323 323 322 321 321 323 323 323 324 324 324 323 322 321 320 319 318 318 317 316
329 328 327 327 324 324 324 324 326 327 328 326 324 322 316 317 317 320 320 319 322 321 320 320 322 323 322 321 319 319 320 321 322 323 323 322 321 321 320 320 318 317 315
330 329 327 327 326 324 323 324 324 324 324 324 325 325 323 315 319 317 316 319 322 322 321 321 321 321 323 323 323 322 320 319 320 322 323 322 321 321 321 320 319 318 316
331 331 328 327 327 325 324 323 324 323 323 323 323 323 323 323 320 320 321 320 318 318 319 320 320 319 318 319 321 322 322 321 321 321 322 322 321 321 321 320 320 318 317
332 332 331 328 327 326 325 323 323 324 323 323 323 323 323 323 323 321 320 321 321 321 321 321 322 322 321 319 318 318 320 321 320 320 321 321 321 321 321 320 319 318 317
332 332 332 330 328 327 326 325 324 324 324 324 323 323 323 323 323 322 321 321 321 322 323 322 321 322 322 322 320 319 318 317 317 319 320 319 320 320 320 320 319 318 316
331 332 332 331 329 327 327 327 326 326 325 325 324 324 324 324 325 324 323 321 321 322 323 323 323 322 322 322 322 321 320 319 317 315 315 316 318 318 318 318 317 316 315
329 331 331 331 330 329 328 328 328 328 327 326 325 325 325 325 324 324 325 324 322 322 323 324 324 325 325 324 322 322 321 320 319 318 316 317 317 317 318 318 316 314 313

GFSGL_850_thetae_030.txt.gz
Theta_e
333 333 331 330 332 331 331 331 329 330 330 329 326 327 328 328 327 327 325 324 323 324 324 324 326 327 327 329 329 329 329 329 328 327 327 328 328 329 328 324 324 324 324
332 334 331 331 333 331 330 330 328 329 328 328 329 329 329 329 327 327 329 329 328 326 326 327 324 328 328 329 329 329 329 328 327 328 328 327 328 326 323 324 324 324 324
332 332 331 333 331 331 330 330 328 327 328 329 329 329 329 328 326 329 329 328 326 327 327 327 327 329 328 328 326 325 326 327 326 326 325 323 323 323 325 324 325 324 323
331 332 330 331 331 331 330 329 329 328 328 329 329 329 328 327 328 328 329 329 329 329 327 328 326 328 327 327 326 325 327 327 327 324 323 322 323 323 324 324 323 322 321
330 331 330 332 331 331 330 330 330 329 328 330 330 328 326 328 327 328 330 330 330 330 330 329 328 327 326 327 327 328 327 326 324 324 323 323 324 324 324 323 322 321 319
333 333 331 332 331 330 329 329 327 329 328 330 327 327 329 327 328 329 329 330 330 330 330 329 328 327 328 328 328 328 327 325 325 324 324 324 324 324 323 323 323 319 315
331 333 331 333 332 331 330 330 330 330 329 328 329 328 327 326 327 328 329 330 330 330 329 329 328 328 328 329 329 328 326 325 325 324 324 323 324 324 324 322 318 315 314
331 333 331 333 333 332 332 331 329 329 328 329 329 330 325 325 326 328 330 330 330 330 330 329 328 329 328 327 328 327 326 325 325 324 324 324 324 324 323 321 314 313 315
331 333 332 333 332 331 332 330 329 328 328 328 330 328 325 324 325 328 329 330 329 329 329 328 328 328 327 327 328 327 326 325 325 325 324 324 323 322 318 317 319 319 319
330 333 333 333 332 333 330 330 329 328 329 328 328 329 325 324 325 328 329 329 329 329 328 328 328 327 327 327 328 327 326 325 325 325 325 324 324 321 318 324 323 320 319
329 332 333 331 332 333 331 329 331 331 329 332 328 327 325 326 326 328 329 328 328 327 327 327 327 326 326 328 326 326 326 326 326 325 325 324 323 322 322 325 324 322 321
329 332 333 333 333 333 332 330 332 331 330 329 329 328 327 327 326 328 329 328 328 327 327 327 326 326 326 326 327 326 326 326 325 325 325 325 324 324 324 324 325 326 325
328 331 333 332 332 331 334 332 331 331 330 329 329 328 327 325 326 326 329 329 329 327 324 324 324 325 325 326 326 326 325 325 325 325 326 325 321 319 322 322 324 326 326
328 330 332 332 333 331 333 333 330 331 333 333 330 329 328 327 326 327 328 329 328 326 325 325 325 326 324 326 326 326 325 324 325 325 325 323 322 321 323 323 325 326 326
328 329 332 332 332 332 331 332 333 332 333 333 333 329 329 328 327 326 328 328 327 326 324 324 324 323 322 325 324 324 324 324 323 322 320 323 322 323 323 322 321 322 323
328 329 330 332 332 332 330 328 329 330 329 329 332 331 330 328 327 327 328 327 326 325 323 322 324 321 318 321 324 325 326 324 324 325 326 326 325 325 324 320 318 317 317
328 329 329 332 331 332 331 327 326 327 328 326 326 328 329 331 327 327 328 328 328 327 326 327 326 327 323 320 320 326 327 326 326 325 323 322 321 318 319 319 318 318 317
326 328 329 329 331 332 329 329 326 325 324 326 326 324 325 328 328 326 328 329 329 328 329 328 327 328 327 325 323 323 325 325 326 326 324 324 322 319 319 319 319 318 317
327 327 327 326 329 329 332 330 329 327 325 323 325 325 325 324 322 319 326 327 328 328 327 329 329 329 328 327 325 324 324 325 325 324 325 324 323 320 320 319 319 318 317
328 327 326 328 326 327 327 330 331 330 328 325 321 322 324 325 323 320 317 324 327 327 326 327 329 326 324 324 326 326 324 325 325 325 324 323 323 322 320 320 319 318 318
329 327 328 328 326 326 325 326 328 330 331 328 326 325 317 316 319 318 318 314 314 321 321 320 320 322 323 323 322 320 321 323 324 324 325 325 324 323 322 321 320 320 319
329 329 328 327 329 326 325 325 325 326 327 330 328 326 326 324 316 313 313 315 315 314 320 323 322 321 321 323 324 323 322 320 319 321 322 324 324 323 323 322 321 321 320
331 330 331 329 327 329 326 324 324 325 325 325 325 326 326 325 324 323 319 315 313 312 314 319 322 321 320 320 320 321 323 323 323 322 321 321 322 323 323 323 322 322 321
332 333 332 331 330 328 328 325 324 324 325 324 324 324 324 324 323 323 323 322 319 318 318 318 315 317 322 322 321 320 319 318 320 322 322 322 322 322 322 322 323 322 321
333 332 333 334 331 331 329 327 325 324 324 324 324 324 324 324 323 323 323 323 322 321 322 322 321 321 319 319 323 323 322 320 319 318 319 321 321 321 322 321 321 321 321
331 333 332 334 334 331 330 329 327 326 325 324 325 325 324 324 324 324 323 323 323 323 322 322 323 323 323 323 321 321 323 322 322 320 319 318 317 319 320 320 320 320 320

GFSGL_850_thetae_033.txt.gz
Theta_e
333 331 331 330 330 331 330 331 329 330 330 326 326 327 326 325 327 326 325 325 323 323 324 324 324 325 327 325 325 324 327 326 325 327 328 330 330 329 327 327 325 322 323
333 332 330 329 330 332 330 330 328 328 327 328 329 328 328 328 327 326 326 327 327 326 325 327 324 327 327 328 329 328 326 328 327 328 329 329 329 328 326 323 324 324 324
332 332 329 330 332 331 329 328 327 328 329 328 330 329 328 328 326 328 329 327 326 326 326 326 327 326 328 328 328 328 328 328 327 327 328 328 324 323 323 324 324 323 323
332 332 330 332 331 330 330 328 327 327 328 328 329 328 327 328 327 327 327 328 328 326 327 327 327 327 327 326 326 327 327 327 326 328 325 323 323 324 324 323 323 323 322
331 331 329 330 330 330 329 329 328 327 328 328 329 329 326 330 328 326 328 329 329 329 329 327 326 327 327 327 326 325 326 326 325 324 324 323 323 324 324 323 323 322 321
331 330 330 331 330 330 329 329 330 327 328 329 329 326 324 327 326 329 330 329 330 330 329 328 327 327 327 327 326 326 327 326 324 323 323 324 324 324 323 324 323 322 319
331 331 331 331 330 329 329 328 330 329 329 328 328 326 327 326 328 329 330 330 330 330 329 328 327 329 327 327 328 327 326 326 325 323 323 325 323 323 323 323 323 323 321
331 331 331 331 330 331 330 329 328 328 328 328 328 326 325 326 329 329 329 330 329 329 329 328 328 328 328 328 327 326 325 325 323 323 324 324 324 324 324 324 323 319 316
332 331 331 331 332 331 331 329 327 328 328 328 328 325 324 326 328 329 329 329 329 329 328 328 328 327 328 328 327 325 325 324 323 323 324 324 324 324 324 321 317 314 313
333 331 331 332 330 331 330 329 328 328 329 328 328 326 325 324 328 329 329 328 329 329 328 328 327 327 327 328 327 326 326 324 323 323 324 324 323 322 318 316 315 313 312
331 332 332 333 330 332 329 329 329 329 328 328 328 327 325 325 327 328 329 329 329 328 330 326 326 326 327 327 327 326 325 324 324 324 324 324 322 316 317 319 317 316 315
330 332 332 330 332 331 329 330 330 329 329 328 328 327 326 326 326 327 328 328 327 327 326 326 326 327 327 327 327 326 325 324 324 324 322 321 318 317 324 325 323 323 320
331 333 333 332 332 331 330 330 330 330 329 328 328 327 327 326 327 328 327 327 326 327 326 326 326 326 327 326 327 326 325 325 325 324 324 323 322 320 322 325 324 325 325
330 333 333 333 332 330 331 330 329 330 329 329 328 328 326 325 326 328 327 327 325 325 325 325 325 326 326 326 326 326 326 326 324 324 324 324 323 322 324 323 324 325 325
329 332 332 331 332 329 330 331 329 331 332 331 329 328 327 325 327 328 327 327 325 324 324 325 325 325 326 326 326 325 325 325 324 324 325 323 322 320 320 321 322 324 325
328 330 332 331 333 329 330 333 331 331 329 333 331 328 327 327 327 328 328 327 325 325 325 325 323 325 325 325 325 325 324 324 325 325 324 323 321 320 317 319 321 321 322
328 328 330 331 332 332 329 330 328 328 328 333 331 330 327 327 326 327 327 327 325 323 324 323 320 323 324 324 324 323 323 322 322 321 320 318 318 319 321 323 323 322 320
327 328 328 328 332 332 330 329 327 328 328 330 331 329 328 329 326 327 327 327 325 324 321 322 321 317 319 320 322 323 325 324 324 324 325 325 324 324 324 323 322 319 317
327 328 328 328 332 331 331 330 328 326 326 327 325 327 327 328 328 325 326 326 325 326 324 326 326 326 324 320 316 326 326 327 325 325 326 326 324 323 323 319 317 318 319
327 327 327 328 330 331 331 330 329 328 326 324 324 325 324 325 326 324 326 326 326 326 327 327 328 328 328 328 327 325 321 324 326 325 326 326 325 324 324 323 320 319 319
327 327 326 327 327 330 329 332 330 330 329 328 327 319 321 323 323 321 318 325 326 326 325 326 327 328 329 329 328 327 327 325 324 324 324 324 324 324 324 324 323 321 320
327 327 327 326 328 327 328 327 330 331 331 331 330 329 326 320 318 318 319 317 314 317 320 323 324 327 328 325 325 324 323 326 326 325 324 324 324 325 324 324 323 322 321
328 328 327 326 325 329 326 327 325 327 328 330 331 330 329 327 325 323 318 314 314 315 313 312 314 317 319 324 322 323 323 322 322 321 321 322 323 323 324 325 324 323 323
329 329 329 328 327 327 329 327 326 325 325 325 327 329 329 328 326 325 324 323 322 318 314 312 313 314 319 321 321 321 321 322 323 323 323 322 320 320 320 322 323 324 323
332 330 330 330 329 330 328 329 328 326 324 325 325 325 325 325 325 325 324 324 323 322 321 320 315 312 312 314 320 321 321 320 320 319 319 321 322 323 322 322 321 321 322
332 332 333 331 331 331 332 330 328 329 327 324 324 324 324 324 324 324 324 324 323 323 322 322 321 317 316 317 317 315 317 322 323 322 322 320 319 320 322 322 322 322 322

GFSGL_850_thetae_036.txt.gz
Theta_e
331 329 327 331 329 330 330 330 328 328 328 326 326 326 326 326 326 325 325 326 326 324 324 325 325 325 325 325 326 325 323 326 326 326 328 328 327 328 327 327 327 327 326
330 330 330 330 330 331 330 330 328 328 327 327 327 327 327 327 326 326 325 324 326 326 324 323 325 326 327 328 323 325 325 326 325 325 328 329 328 327 326 325 324 322 321
330 331 329 329 329 331 330 329 329 327 328 330 329 329 328 328 327 326 328 328 327 325 326 326 325 326 327 328 325 326 327 326 326 327 327 328 327 326 324 324 323 323 322
331 330 328 329 331 330 329 326 328 328 329 328 329 329 328 327 327 327 327 327 327 326 326 326 326 327 327 328 327 327 328 327 325 325 327 326 325 324 324 322 322 322 320
331 330 328 330 330 329 328 327 327 327 327 327 328 329 328 325 325 326 327 328 329 328 326 326 327 327 326 326 327 327 327 327 327 326 324 323 323 322 323 322 322 321 321
330 330 329 330 330 329 329 328 327 327 327 327 328 328 324 325 324 328 329 329 329 329 328 327 327 327 327 327 326 324 325 326 326 325 324 323 323 323 324 323 323 322 317
330 329 330 328 329 329 328 329 328 327 327 329 328 325 326 326 327 329 329 330 330 330 327 327 328 327 327 327 326 325 325 325 326 324 324 323 323 324 323 322 323 322 322
330 330 330 330 329 328 328 329 329 329 328 327 327 326 325 328 328 329 330 329 329 329 329 327 328 327 327 328 327 326 325 325 325 324 324 324 323 323 323 323 322 322 320
331 330 330 331 329 330 329 328 328 328 328 328 327 324 326 328 329 329 329 329 328 328 328 328 330 327 328 327 326 325 324 323 323 323 323 324 322 322 323 323 322 321 318
330 330 330 331 330 330 330 328 328 329 328 328 326 324 325 327 328 329 328 329 328 327 329 326 329 327 328 326 326 325 324 323 323 324 323 323 323 323 323 323 323 320 315
331 330 330 331 329 330 329 328 327 328 328 328 328 325 324 325 328 329 328 328 328 328 328 327 326 327 327 326 325 325 324 323 323 324 324 324 323 323 323 322 318 314 311
332 331 331 332 330 331 329 328 329 329 328 328 328 326 324 325 328 328 327 328 327 327 326 326 325 326 327 326 325 324 324 323 324 324 324 324 323 320 318 315 314 315 313
332 331 332 331 331 330 328 329 329 328 328 327 327 326 324 325 327 327 327 326 326 326 325 326 326 327 327 326 326 325 323 323 323 323 323 322 317 317 320 320 320 321 321
330 332 331 331 331 331 330 329 328 328 328 327 328 327 326 326 327 327 326 326 326 325 325 326 327 326 326 327 326 325 324 324 323 323 322 320 317 321 324 323 322 323 324
329 332 332 332 330 329 329 329 327 329 329 328 327 327 326 326 327 327 326 326 326 325 325 325 326 325 326 326 326 325 325 324 323 322 323 322 320 319 321 323 323 323 324
330 332 332 332 331 330 328 329 328 330 331 332 330 327 326 325 326 327 327 325 324 324 324 325 325 325 325 326 326 325 325 325 324 324 323 323 323 321 321 322 321 321 322
328 330 332 332 331 330 327 330 330 331 329 331 331 327 326 326 326 327 328 326 324 324 324 324 325 325 325 325 325 325 325 325 324 324 324 324 324 323 320 317 317 320 320
328 328 330 331 330 329 328 330 332 330 329 331 332 328 327 326 327 327 327 326 325 325 325 323 323 324 325 325 324 324 324 324 324 324 324 324 322 320 318 316 315 317 319
327 328 328 328 328 329 331 327 329 327 328 328 330 329 329 326 326 327 327 326 324 322 323 322 320 322 323 323 323 323 323 323 322 321 320 318 317 319 321 322 323 323 322
325 327 327 327 327 328 331 331 329 328 326 326 326 326 327 328 326 326 327 327 326 324 320 320 320 318 316 316 318 319 319 320 323 323 323 324 324 325 325 325 324 323 322
327 326 327 327 327 326 330 331 330 329 328 325 325 324 325 324 324 324 324 325 325 324 324 321 322 324 324 323 321 317 317 323 325 326 325 325 324 325 326 325 325 324 323
328 327 327 327 326 326 327 331 330 330 329 328 327 326 324 324 324 322 320 319 323 324 325 325 324 325 325 326 327 327 328 326 324 322 322 322 324 324 325 325 324 324 324
328 328 327 327 326 326 326 327 330 330 331 330 329 330 328 325 324 322 320 318 317 315 317 323 324 324 325 327 327 328 329 328 327 326 326 326 325 324 324 324 324 324 324
327 328 328 327 327 326 326 327 327 327 328 329 328 329 329 330 329 328 326 324 322 318 315 314 314 313 316 321 325 327 328 325 324 325 324 322 322 323 323 323 324 323 323
330 328 329 327 327 327 326 325 328 327 326 326 327 327 326 327 328 328 328 327 325 324 323 320 317 314 313 312 312 313 319 326 324 321 322 323 323 323 323 322 321 320 320
331 331 331 329 329 328 327 327 326 328 328 327 326 325 325 324 324 325 325 325 326 325 324 324 323 322 321 320 319 314 312 314 318 320 321 321 320 320 320 321 321 322 323

GFSGL_850_thetae_039.txt.gz
Theta_e
334 333 332 330 328 329 330 328 328 326 326 325 325 325 326 326 327 327 326 326 326 325 325 325 325 326 326 326 325 326 326 323 324 329 327 329 325 326 327 330 329 326 325
333 327 324 326 328 330 329 329 328 328 326 325 327 326 326 326 327 326 326 325 325 323 324 324 325 325 325 325 325 325 325 324 325 326 325 326 327 326 327 326 325 326 327
326 329 329 329 329 330 331 329 327 326 328 328 327 328 328 328 327 326 327 327 327 327 325 325 325 325 325 325 326 325 325 325 324 326 327 327 327 326 325 326 326 326 322
329 331 329 329 329 330 330 329 328 327 328 328 328 328 328 327 327 327 327 326 326 326 326 326 326 325 326 326 326 325 325 326 326 325 326 326 325 322 323 321 320 320 320
330 329 328 329 330 329 328 327 327 327 328 326 328 328 328 327 326 326 327 328 327 327 327 326 327 327 327 327 324 325 327 326 325 327 325 324 322 322 321 321 321 320 321
330 329 328 329 330 329 326 326 327 326 326 326 327 328 327 324 324 326 327 328 329 329 327 327 327 326 327 327 327 327 327 326 326 325 324 323 322 323 323 321 322 321 319
330 330 329 330 329 329 328 327 327 326 326 327 328 326 325 326 326 328 329 330 329 329 328 327 327 327 326 326 325 325 324 326 326 325 325 324 323 323 323 322 321 321 320
330 329 329 328 329 329 328 328 327 326 326 328 327 325 325 327 329 330 330 329 329 328 327 327 328 327 327 327 326 325 324 326 326 326 327 325 325 323 323 323 322 322 320
330 329 329 329 329 328 328 328 328 327 328 328 328 325 326 328 328 329 329 328 328 328 327 327 327 327 327 326 325 325 325 325 325 326 326 326 324 323 323 322 322 322 319
330 329 329 330 329 329 328 328 328 328 328 328 327 324 326 328 328 328 329 329 327 327 326 328 327 327 327 326 326 325 324 324 324 324 324 323 323 323 323 322 322 322 321
330 330 330 331 330 330 329 327 328 328 328 328 326 324 325 326 328 328 328 328 328 326 325 327 326 327 325 325 324 324 324 323 323 323 323 323 323 323 323 322 322 321 319
330 330 330 330 329 330 329 328 327 327 327 328 328 324 324 325 327 328 328 328 327 326 327 326 327 327 325 324 324 324 323 323 323 323 323 323 323 323 323 323 322 319 315
329 331 330 331 330 331 328 328 328 328 328 328 328 327 324 324 327 327 326 326 326 326 327 326 325 326 325 325 324 323 323 323 324 323 323 323 323 323 321 318 314 313 313
329 331 331 331 330 330 328 328 328 327 328 327 327 327 324 325 327 326 325 326 325 325 325 326 326 326 325 324 323 323 323 324 324 324 324 323 322 319 316 314 315 316 317
328 331 331 330 330 330 329 328 328 328 327 327 327 327 326 325 326 326 326 326 326 325 325 326 326 326 326 325 324 323 323 324 324 324 323 321 318 318 317 318 320 321 322
328 331 331 331 330 329 328 328 327 329 330 329 328 327 326 326 326 326 326 326 325 325 325 325 325 324 326 324 325 324 324 323 323 323 322 318 318 321 321 321 321 321 322
328 330 331 331 331 329 327 327 328 329 330 331 332 329 327 325 326 326 326 325 325 324 325 327 324 323 325 326 325 324 324 324 323 323 322 322 321 320 320 320 321 321 321
326 328 329 331 331 330 325 326 328 328 329 330 330 330 327 325 326 327 327 324 324 324 324 325 326 326 326 325 325 325 325 324 323 322 323 323 323 323 323 321 320 319 316
325 327 329 329 329 330 328 325 326 329 329 329 328 328 326 326 327 327 327 325 324 324 324 324 323 325 325 325 325 325 325 325 324 324 324 323 323 323 321 319 316 315 315
325 325 327 329 329 330 329 328 325 329 327 328 327 327 327 326 326 327 327 327 325 324 324 324 323 322 324 324 324 324 325 324 323 323 323 323 323 322 319 316 316 317 321
328 325 325 327 328 329 328 329 329 327 326 326 326 326 325 324 324 325 326 326 326 325 323 321 322 321 320 322 323 323 323 323 323 323 323 321 319 319 319 321 323 325 325
327 328 326 326 328 328 328 326 327 329 329 328 327 325 325 325 324 323 320 321 324 325 325 324 321 320 319 317 316 319 320 320 319 319 320 322 324 324 324 324 324 324 324
328 328 328 327 327 328 328 327 324 327 329 329 329 328 327 325 325 325 323 321 319 317 321 324 324 324 321 322 322 320 320 320 320 319 320 322 323 323 323 322 323 323 323
328 328 328 328 328 327 328 327 327 325 327 328 328 329 329 328 328 329 328 327 325 323 319 317 317 321 323 324 324 324 325 325 326 326 327 328 327 327 327 326 325 325 325
328 327 327 328 328 328 328 328 327 326 326 326 327 327 327 328 328 328 327 328 328 328 326 324 322 318 315 315 316 319 321 323 324 325 327 328 327 325 323 322 322 323 322
332 330 329 328 328 328 328 327 327 327 327 327 327 327 327 326 326 326 326 326 325 326 326 326 326 324 322 321 320 318 316 314 313 315 318 321 326 326 324 321 320 320 321

GFSGL_850_thetae_042.txt.gz
Theta_e
336 334 333 332 332 331 330 328 328 327 325 324 325 325 324 324 325 325 326 327 327 327 324 326 325 325 325 324 324 325 324 325 324 326 328 327 328 327 331 328 331 330 330
333 333 332 330 328 326 328 328 328 326 326 324 325 325 325 326 326 326 326 326 326 326 323 324 324 325 326 326 326 326 325 325 323 328 328 326 328 326 329 327 330 331 328
332 329 325 324 327 329 330 329 327 328 325 325 326 327 327 327 327 326 325 326 326 326 326 325 324 324 325 325 325 325 325 325 325 326 326 327 326 327 328 328 327 325 326
327 324 326 328 329 330 330 329 327 326 327 327 327 327 327 327 326 326 327 327 326 327 326 326 326 325 324 324 325 325 325 324 326 327 325 326 326 325 326 325 325 325 323
326 326 328 328 329 330 329 329 327 327 327 327 327 328 328 327 326 326 326 328 327 326 326 327 327 326 325 326 325 325 325 324 326 324 326 325 324 324 324 324 323 320 320
327 328 328 329 330 329 328 329 327 327 327 327 326 327 327 324 324 326 327 328 329 329 327 326 327 327 327 327 327 327 325 324 326 325 325 325 322 323 323 322 321 320 320
328 328 328 329 329 329 326 325 327 326 326 326 326 327 325 326 325 325 328 329 329 329 328 327 327 327 327 326 326 326 326 326 325 325 324 325 324 322 322 321 321 320 321
329 329 329 330 329 328 326 326 327 326 326 327 328 326 325 327 329 329 329 329 329 327 327 327 327 326 326 327 327 326 326 326 326 325 325 325 324 323 322 322 321 321 320
330 330 329 328 328 328 328 327 327 326 326 328 327 325 327 328 328 329 329 328 328 327 327 328 327 327 327 326 325 324 323 325 324 324 324 324 324 324 323 322 321 321 319
330 329 329 329 329 328 327 328 328 327 328 328 327 324 327 328 328 328 329 328 327 327 327 327 327 327 327 325 326 324 325 324 325 325 325 324 324 323 322 322 322 322 321
329 329 329 329 329 329 327 328 328 328 328 328 326 324 325 326 328 328 328 328 326 326 326 327 327 327 326 326 325 325 324 325 325 325 324 323 323 323 323 322 322 322 321
329 329 329 330 330 330 329 327 328 328 328 328 327 324 324 325 328 328 328 327 326 325 325 326 326 325 324 324 324 324 324 324 324 324 323 323 323 323 322 322 322 321 317
329 329 329 330 330 330 328 328 327 327 327 327 328 326 324 324 327 326 326 326 325 324 324 327 325 323 323 323 323 323 323 323 323 323 323 323 323 323 323 322 321 319 318
329 330 330 331 329 331 328 328 328 328 328 326 328 327 326 324 327 326 325 325 324 324 325 326 325 324 322 323 322 323 323 323 322 322 323 323 323 323 322 321 319 318 316
329 330 330 331 329 330 328 328 328 328 327 327 327 327 326 324 326 325 325 325 325 324 324 325 325 323 323 323 323 323 323 323 322 322 323 323 323 323 320 316 313 312 313
328 329 331 330 329 329 328 327 328 329 328 328 327 327 327 325 325 326 325 325 325 325 325 325 325 324 323 323 323 323 324 323 324 324 323 323 323 319 316 314 314 315 316
327 327 331 331 330 327 326 327 326 329 330 330 328 328 327 325 326 326 326 325 325 325 325 325 325 325 324 323 323 323 323 324 324 324 323 322 320 318 318 317 319 320 320
327 326 329 331 331 329 324 326 326 328 329 330 330 329 326 325 326 326 326 325 324 324 324 323 324 324 323 324 324 323 323 323 323 323 321 319 318 318 320 321 320 320 321
326 326 328 330 331 330 328 324 327 328 329 329 329 328 326 325 326 326 326 324 324 324 324 325 325 325 326 325 325 324 324 324 323 323 322 321 321 321 322 322 322 321 320
325 325 325 328 330 331 330 327 325 327 328 328 328 327 326 326 326 326 326 325 324 324 324 323 323 324 325 325 325 325 325 324 323 322 322 322 322 322 322 322 322 321 319
326 326 325 325 328 329 329 328 327 323 327 326 327 327 325 323 324 325 326 326 325 324 324 324 323 322 322 324 324 324 325 325 324 324 324 323 323 323 323 323 322 320 317
326 327 327 325 325 327 329 329 327 327 327 325 325 325 326 326 325 324 323 324 325 325 325 323 322 322 322 320 320 323 323 324 324 324 324 323 322 322 322 320 318 319 321
327 327 327 327 326 326 327 329 328 327 326 328 327 327 326 326 325 325 324 323 322 320 321 324 325 323 321 320 319 318 318 319 320 322 322 321 320 319 318 320 323 323 324
328 328 327 328 328 328 327 327 328 328 326 326 327 328 328 328 328 328 328 328 327 326 324 321 319 319 324 324 322 320 320 320 316 314 314 315 316 318 320 322 325 326 326
328 327 327 327 328 328 328 328 328 328 328 327 326 327 328 328 329 328 328 326 326 327 327 327 326 324 319 315 315 318 320 322 323 323 323 324 324 325 326 326 327 327 326
329 327 327 327 327 327 327 327 327 327 327 328 328 328 327 327 327 328 328 328 328 328 327 327 326 326 327 326 324 321 317 315 314 316 320 322 323 323 324 324 325 326 326

GFSGL_850_thetae_045.txt.gz
Theta_e
339 337 333 332 331 331 331 331 331 329 328 326 326 326 325 323 325 325 325 325 326 326 326 325 326 326 325 325 324 324 325 326 323 325 327 328 326 328 327 327 328 330 331
335 334 333 332 331 331 331 328 328 327 324 325 325 325 325 325 325 326 326 326 326 326 326 324 326 325 325 325 324 325 325 325 326 327 326 327 327 329 328 329 330 331 330
333 332 331 331 329 326 328 328 327 326 325 325 326 326 326 327 327 326 326 325 325 325 326 324 324 324 326 326 326 325 326 325 325 325 325 326 326 327 327 329 330 329 330
332 330 326 324 327 329 329 329 327 327 325 326 327 327 327 327 326 326 326 328 328 326 327 326 324 324 325 325 324 325 326 326 325 326 327 327 326 327 328 329 326 326 323
326 323 326 328 329 330 330 328 327 327 327 328 327 328 328 328 326 326 326 326 327 327 326 326 327 326 325 325 324 325 326 325 326 325 326 326 328 326 326 326 325 325 323
323 327 328 329 330 330 329 328 326 327 327 327 327 327 327 324 324 325 326 327 328 328 327 327 326 327 325 325 326 325 325 324 326 325 326 325 325 326 326 325 325 323 320
326 328 328 329 330 329 329 328 326 327 327 326 326 328 325 326 325 324 327 329 329 329 328 326 327 327 327 327 326 326 325 325 324 324 325 325 323 324 325 325 324 322 321
330 328 328 329 329 328 326 326 326 326 326 327 328 326 325 327 329 329 329 329 328 328 327 327 326 325 325 325 326 326 326 325 325 325 326 325 324 324 323 323 322 322 321
331 329 329 329 329 328 326 326 326 325 326 328 327 325 328 328 329 329 329 328 328 327 327 327 327 326 326 327 326 326 326 326 324 324 324 324 324 324 323 322 321 321 321
332 331 329 328 329 328 328 327 327 326 326 328 327 325 328 328 328 329 328 329 328 326 327 327 327 327 326 326 326 325 326 325 325 324 324 323 323 322 322 322 322 322 321
332 331 329 329 329 328 328 328 328 327 328 328 326 325 327 328 328 329 328 327 326 326 327 327 327 327 326 326 325 324 324 324 324 324 324 323 322 321 321 321 322 322 321
331 330 329 329 329 329 328 328 328 328 328 328 325 324 326 327 328 328 327 326 325 325 326 326 326 326 325 325 325 324 324 324 324 324 324 323 323 322 322 322 322 322 321
330 330 329 330 329 329 329 328 327 328 328 328 327 324 324 326 328 326 326 325 324 325 326 325 324 324 324 324 325 325 324 325 325 324 323 323 323 322 322 322 322 321 320
329 330 329 330 329 330 329 328 328 328 328 327 328 326 324 325 327 325 325 325 324 325 325 323 323 323 323 323 324 323 324 324 324 324 323 323 322 322 323 322 322 320 318
329 330 330 330 329 330 329 328 328 328 328 327 327 328 327 324 326 325 325 325 324 326 325 324 323 323 322 321 322 322 323 323 322 323 323 323 323 322 322 322 321 320 318
328 329 330 330 329 330 329 328 328 328 327 326 327 327 327 326 326 325 325 324 324 325 325 324 323 323 322 321 322 322 322 322 323 322 322 322 323 323 322 322 320 318 317
328 329 330 330 330 329 329 328 328 329 329 327 327 327 326 326 326 325 325 324 325 325 325 324 323 322 322 322 323 323 322 322 322 323 323 323 322 322 321 317 314 315 317
328 328 329 330 331 329 329 330 330 329 329 330 328 328 326 325 326 325 325 324 324 325 325 325 324 323 322 323 323 322 324 323 323 323 323 323 322 323 320 321 320 320 321
327 327 327 328 331 331 328 329 330 330 331 329 330 328 326 325 326 325 325 325 324 324 324 324 324 324 323 322 323 323 323 323 324 323 324 323 323 322 321 323 323 323 323
326 326 326 327 330 331 330 328 329 329 329 328 328 327 326 325 326 325 324 324 324 324 324 323 324 324 324 324 323 324 323 323 323 323 323 323 322 320 321 321 322 324 323
325 325 325 326 328 330 330 329 328 327 328 327 328 326 325 325 326 326 325 325 324 325 324 324 324 324 323 324 325 324 324 323 324 324 324 323 323 323 322 324 325 325 325
326 324 325 325 325 327 330 330 329 327 328 327 326 326 327 326 325 325 325 326 326 325 324 324 324 323 322 323 324 324 325 325 325 324 324 324 324 323 324 325 325 326 325
326 326 326 326 325 325 327 330 329 328 328 327 327 325 325 325 325 324 324 323 322 323 325 325 325 323 322 322 321 321 322 323 324 324 325 325 325 325 325 325 325 325 325
327 327 327 327 327 327 326 327 329 330 329 328 328 328 327 327 327 327 327 327 326 326 324 322 320 320 324 324 322 320 320 319 318 318 321 323 323 324 323 325 325 324 323
328 327 327 327 327 328 328 328 329 330 330 329 328 328 328 329 329 328 328 328 327 327 327 327 326 326 324 321 319 319 322 323 322 321 320 318 316 318 321 321 321 321 322
330 327 327 327 327 327 326 327 327 327 328 328 328 328 328 328 327 327 327 327 327 327 326 326 326 326 326 326 326 326 325 324 322 321 323 323 324 324 325 325 325 325 326

GFSGL_850_thetae_048.txt.gz
Theta_e
344 344 343 341 338 336 337 337 335 333 334 335 335 334 332 332 330 330 331 331 331 329 326 325 328 327 327 327 329 329 327 327 325 327 326 327 327 327 326 324 324 323 329
343 341 339 338 338 337 337 337 333 335 334 334 332 331 331 330 332 331 331 330 331 327 326 326 325 328 328 327 326 324 330 328 327 326 327 328 326 328 329 328 328 328 329
338 338 338 338 337 337 336 333 334 333 332 331 331 331 331 331 332 332 332 332 332 327 325 326 324 325 327 327 324 327 328 327 325 326 326 326 328 330 329 331 330 332 331
337 337 337 336 335 334 333 333 333 332 331 331 331 331 332 332 332 331 332 331 327 327 326 326 324 324 326 326 328 327 328 326 326 325 327 327 328 328 329 331 329 330 328
336 334 333 333 333 334 334 334 333 331 331 332 332 332 332 332 331 331 331 327 327 326 327 326 325 324 326 326 326 328 328 328 326 326 326 327 328 326 328 328 327 327 325
331 331 332 333 334 335 335 334 332 331 332 332 332 332 332 329 324 325 327 330 328 328 328 326 326 327 326 325 326 327 328 324 326 326 327 327 327 327 327 326 326 323 322
330 332 333 334 335 334 334 333 331 331 332 332 332 331 330 329 325 325 327 329 329 329 328 326 326 327 326 325 325 326 326 324 325 326 327 327 327 327 326 325 324 324 323
330 332 333 334 333 333 333 332 331 331 331 331 331 331 330 327 328 328 329 330 329 328 327 326 327 327 327 326 326 326 326 325 326 326 326 326 327 326 325 325 324 324 322
331 332 333 332 333 332 332 332 332 331 330 331 330 331 328 329 330 329 330 329 329 328 327 327 326 325 327 327 327 326 325 325 325 325 326 325 325 326 326 325 324 322 320
331 332 332 332 333 332 332 332 331 329 330 331 331 328 329 329 329 329 328 328 328 327 328 327 326 325 326 327 327 327 325 325 325 325 325 324 323 324 325 325 322 321 320
332 332 332 333 333 333 333 331 330 330 331 330 330 327 328 329 328 328 328 327 327 327 327 327 327 326 325 326 326 326 325 325 325 324 324 324 322 323 322 322 321 321 322
332 332 333 334 333 333 333 331 330 331 331 330 328 326 327 329 328 328 326 326 326 327 327 327 327 326 326 325 326 325 325 325 324 324 324 323 322 322 322 321 321 322 323
333 333 333 334 333 333 332 332 331 331 331 331 329 328 326 330 328 327 326 325 325 326 327 327 326 326 325 325 325 324 324 324 324 324 324 323 322 321 321 321 320 321 321
333 333 334 333 333 333 332 332 332 330 331 330 329 328 326 328 327 326 325 325 325 326 325 325 325 325 325 325 324 325 324 324 324 325 324 323 322 321 321 320 321 322 323
333 333 333 333 333 333 332 332 332 330 330 330 330 329 328 326 327 326 325 325 325 325 324 324 324 324 324 324 323 325 325 325 325 324 324 323 322 322 322 322 323 322 320
333 333 333 333 333 332 331 330 329 328 327 327 329 330 328 328 326 325 324 324 325 325 323 323 323 323 322 321 322 323 324 324 323 323 322 323 322 322 322 322 323 322 320
332 332 331 330 330 331 331 331 330 328 327 327 327 327 327 326 326 325 324 324 326 325 323 323 323 322 322 322 322 323 323 323 324 323 323 323 324 324 322 324 324 323 322
332 332 330 330 329 329 330 332 332 331 330 328 327 327 326 326 326 325 324 325 325 325 324 323 323 322 322 322 322 323 323 324 325 324 325 325 324 325 325 325 322 321 320
331 330 330 330 330 328 328 330 331 332 332 330 328 327 326 326 325 325 324 325 325 325 325 324 325 325 323 323 325 326 325 326 326 326 326 326 326 326 326 324 323 321 321
330 330 330 330 331 330 327 328 330 332 332 331 329 327 325 326 325 325 325 324 325 324 325 325 325 326 325 326 326 327 327 326 326 326 326 326 327 326 325 324 323 323 323
328 330 331 330 330 330 329 326 328 329 331 330 330 327 326 326 326 324 325 327 327 328 326 325 325 325 326 326 326 326 325 326 328 328 327 328 327 326 325 324 324 324 324
328 329 329 329 330 330 330 329 327 327 328 329 330 326 326 328 329 328 327 328 329 329 328 328 328 328 328 327 327 327 326 327 327 326 327 327 326 326 325 325 325 326 326
328 329 328 328 329 329 331 330 329 328 327 327 328 325 326 329 328 328 328 329 329 330 329 328 328 327 327 328 328 328 328 327 327 327 327 327 328 327 327 327 327 327 327
330 329 329 330 330 330 331 331 331 330 328 327 328 328 327 329 329 329 329 329 329 329 329 329 329 329 328 328 328 327 327 327 328 328 328 328 329 329 328 328 328 328 328
333 332 332 332 332 332 332 333 332 332 331 329 329 330 330 330 331 332 332 332 332 332 331 331 331 330 329 328 328 328 328 326 326 326 327 327 327 327 327 327 326 326 326
328 327 328 329 330 331 332 332 332 332 332 332 331 331 330 330 329 329 329 329 330 331 331 331 331 331 330 330 329 329 329 328 327 324 324 325 326 326 326 326 325 325 324

GFSGL_850_thetae_051.txt.gz
Theta_e
348 348 348 348 347 346 344 342 341 340 339 336 336 337 336 336 334 333 333 332 331 330 329 329 327 328 327 327 327 328 329 330 326 329 329 328 328 327 326 326 326 323 320
346 347 347 346 344 342 341 340 339 338 336 334 335 336 334 333 333 332 331 331 332 333 329 326 326 327 327 327 329 329 328 329 329 329 327 326 327 325 325 324 323 322 325
345 344 343 341 341 340 339 338 337 335 334 334 334 333 332 332 331 333 332 332 330 330 330 326 326 325 327 328 330 329 327 328 330 328 326 328 327 331 329 328 326 332 332
342 341 341 341 340 338 337 336 334 334 334 333 332 332 331 331 332 332 332 331 331 329 326 325 326 325 326 328 328 327 327 328 328 325 327 327 330 328 330 330 331 332 330
340 340 339 338 337 336 334 334 333 334 333 332 332 331 331 332 332 332 332 330 331 327 327 326 326 325 324 327 327 329 329 329 327 326 327 328 330 328 329 330 329 328 327
338 337 336 334 333 334 334 333 333 333 332 332 331 332 333 331 330 329 329 331 329 327 327 328 326 325 324 326 326 327 328 328 325 325 326 328 328 328 329 329 327 327 324
334 333 333 333 333 335 334 333 333 332 332 332 332 333 332 330 324 324 325 329 331 329 328 327 326 327 326 326 325 326 330 326 325 326 326 328 327 327 329 328 327 328 326
333 332 333 334 335 334 333 332 332 334 334 333 333 333 331 329 326 325 327 333 330 329 327 325 325 327 327 328 327 327 326 327 327 327 326 327 328 327 328 327 325 325 324
332 332 332 333 334 333 333 331 333 333 333 332 333 331 333 328 330 330 330 330 330 328 327 326 327 326 327 325 328 326 328 326 327 327 327 327 327 327 325 326 325 323 321
331 332 332 333 333 333 332 332 333 334 332 333 331 331 329 329 330 329 330 330 329 328 327 327 326 326 326 328 328 328 327 326 326 327 325 326 326 326 325 325 324 323 322
331 332 334 333 333 332 331 333 333 333 333 332 332 329 329 329 328 328 328 329 328 328 328 327 325 325 326 326 328 327 326 327 325 325 325 324 324 323 323 324 324 324 323
332 333 334 333 333 332 333 334 333 333 332 331 330 328 328 328 328 328 327 328 328 328 327 327 326 325 326 326 327 326 325 324 325 325 325 323 323 322 322 322 322 322 322
332 333 333 333 333 333 333 333 333 331 331 332 330 330 328 328 328 327 326 325 326 327 327 327 327 326 326 325 326 325 325 324 323 324 324 323 323 322 321 322 321 324 323
332 334 332 333 333 333 333 332 331 331 331 332 330 330 329 328 327 326 325 325 325 326 327 327 326 326 326 325 324 325 324 324 323 323 323 322 322 323 323 321 322 322 324
333 333 334 333 333 332 333 333 333 331 331 333 330 329 329 330 329 328 325 325 325 326 325 326 325 325 325 325 324 324 323 324 324 323 322 323 321 321 321 321 322 322 325
332 334 333 333 333 333 332 331 331 329 330 331 329 329 329 330 326 326 325 325 325 324 324 324 324 325 325 324 324 323 323 323 324 325 324 323 322 322 322 322 322 324 325
332 333 333 333 333 330 331 332 330 327 327 328 329 329 329 328 326 325 324 324 325 324 324 323 323 324 324 323 324 324 325 325 325 325 324 323 323 323 323 324 324 324 323
332 332 329 329 329 329 331 332 331 330 329 327 327 328 327 326 325 324 324 325 325 324 323 323 323 323 323 323 323 324 324 325 325 324 323 324 325 324 323 324 325 325 325
332 329 330 329 328 329 331 332 332 330 331 330 327 327 326 326 325 324 324 326 325 325 325 326 324 322 323 323 324 324 325 325 325 325 325 326 324 323 324 325 326 325 323
331 328 330 330 329 328 331 330 332 333 332 330 328 327 326 326 325 324 325 325 325 325 325 325 326 326 324 324 325 325 325 326 326 326 327 327 327 326 326 326 325 324 323
330 328 331 331 328 328 328 330 331 331 332 332 330 327 326 325 325 325 325 326 326 326 326 325 327 327 328 326 326 326 326 327 325 327 327 328 328 328 327 326 325 324 324
329 327 330 330 328 328 327 328 329 330 330 331 330 326 326 329 328 328 328 327 328 329 329 328 328 328 328 327 328 328 328 328 328 327 327 327 327 328 328 327 325 325 325
329 328 329 330 328 329 328 327 326 327 329 332 328 326 329 330 330 329 329 329 329 329 329 329 329 329 329 328 328 329 328 328 328 328 328 329 328 327 326 326 326 325 325
329 328 327 329 329 328 329 329 328 327 326 329 328 327 329 331 329 328 329 330 330 330 330 329 328 328 328 329 329 329 329 329 328 328 328 328 329 329 329 329 328 328 328
328 328 327 329 329 328 329 331 330 328 327 327 329 328 326 327 330 330 330 329 329 328 329 329 329 329 329 329 329 328 328 327 327 328 329 329 328 328 329 329 329 328 328
332 332 332 332 331 333 333 332 332 330 330 330 330 330 330 330 330 330 330 329 331 331 331 331 331 331 330 329 326 327 328 328 328 327 326 327 328 328 328 327 326 326 326

GFSGL_850_thetae_054.txt.gz
Theta_e
347 347 349 347 350 351 351 347 347 346 345 339 340 339 337 334 334 332 333 333 331 330 330 329 330 328 327 326 327 327 328 328 328 327 326 327 327 327 326 328 328 316 318
348 349 349 352 348 350 347 344 342 342 340 338 338 334 333 334 333 332 330 332 330 329 329 328 327 325 326 327 327 327 330 329 325 327 328 327 328 328 327 327 327 319 319
349 348 348 346 345 345 343 342 339 338 336 335 336 333 335 333 331 331 330 331 332 331 330 329 326 326 326 326 327 327 327 328 327 327 327 327 327 330 328 326 326 323 325
344 345 345 344 342 341 340 338 338 336 334 335 335 334 332 331 331 331 332 332 330 329 329 329 326 326 325 327 327 328 326 327 328 327 326 327 327 327 328 327 328 327 329
343 342 341 340 340 339 338 337 335 334 334 334 333 332 331 331 331 332 331 331 329 329 327 326 325 325 326 327 328 326 325 327 328 326 327 326 325 327 327 326 326 327 328
340 340 340 340 338 337 335 334 333 334 334 333 332 331 331 332 331 332 330 330 330 329 327 326 327 326 325 326 326 327 327 327 326 325 327 328 327 327 326 326 327 327 325
340 339 338 336 335 334 335 333 332 334 333 332 330 331 333 332 331 327 327 327 330 329 328 328 326 325 324 326 326 326 328 328 327 324 326 327 326 327 326 326 326 327 326
337 335 334 334 334 333 333 332 333 332 331 332 332 333 332 331 326 324 325 326 330 330 328 327 326 327 326 326 325 327 328 326 325 324 326 328 328 328 327 327 326 326 326
334 333 334 334 333 333 332 332 332 332 332 332 333 332 331 328 327 326 329 330 330 329 327 326 325 327 326 326 327 327 326 327 326 326 326 327 327 327 327 327 325 324 324
333 333 334 336 334 332 332 332 333 332 330 331 332 330 330 329 330 329 330 330 329 328 327 326 326 327 327 327 328 327 327 326 326 326 326 327 327 326 327 327 326 326 325
332 332 335 335 332 331 332 332 332 331 331 332 331 330 332 329 329 329 329 330 329 328 327 326 325 326 326 326 328 326 325 326 325 325 325 326 326 324 324 325 326 325 325
332 335 335 332 333 333 333 332 331 332 330 331 330 331 330 329 328 328 328 329 329 327 328 326 325 326 326 327 327 327 326 325 325 324 325 324 325 323 323 324 324 323 323
334 335 333 332 333 333 332 332 333 331 330 331 328 331 330 328 328 327 326 325 326 328 327 327 326 326 325 327 326 325 325 324 324 322 322 322 323 324 323 323 323 323 323
334 333 332 333 333 332 332 332 331 330 329 331 331 329 329 329 327 326 325 325 326 327 327 327 326 325 325 325 324 324 323 323 323 322 322 322 322 322 322 323 322 322 322
332 331 333 332 332 332 333 333 332 330 330 330 331 330 329 327 327 327 326 325 326 327 327 326 326 325 326 324 325 325 324 323 324 324 324 323 322 322 322 322 324 324 324
332 332 334 334 333 333 332 333 331 331 330 330 330 330 330 329 327 327 325 324 325 325 325 326 325 325 325 324 324 323 323 323 323 323 324 322 322 323 323 322 323 322 324
333 333 332 333 333 331 332 330 329 329 330 331 329 329 328 329 326 325 324 324 325 323 323 324 325 325 325 323 322 322 322 324 324 324 323 323 323 322 322 322 322 322 323
333 331 331 333 333 333 331 332 330 327 328 329 329 329 329 327 325 324 324 325 324 324 323 323 324 324 324 324 324 323 323 323 324 324 324 323 323 322 322 322 322 324 323
333 330 331 333 332 331 331 331 331 330 330 327 327 328 327 325 324 323 324 325 324 324 324 323 323 324 324 323 324 324 324 324 325 324 324 324 324 323 323 323 323 323 325
332 329 330 329 328 331 332 332 333 332 330 327 326 327 326 324 324 324 325 325 324 326 327 325 324 323 324 324 324 324 324 324 325 325 325 324 324 323 323 323 324 325 326
330 328 330 329 328 329 332 331 333 333 331 329 328 326 326 325 324 325 325 325 326 325 325 327 326 325 324 324 324 324 325 325 326 327 326 326 325 325 324 324 324 326 326
329 328 331 330 328 330 331 331 331 333 332 331 329 326 326 326 325 325 326 326 327 327 326 326 328 327 326 327 326 326 326 326 326 326 326 327 327 327 326 326 327 328 326
328 327 330 330 329 328 329 331 330 332 332 329 326 326 328 328 328 327 328 328 328 329 329 329 328 328 327 327 327 327 327 326 326 326 326 326 327 327 327 327 325 327 327
329 326 328 330 328 328 327 327 331 332 331 323 328 329 329 329 329 329 329 329 329 330 329 329 329 329 329 328 329 328 328 328 328 328 328 328 328 329 330 329 330 328 326
331 327 327 329 330 329 330 327 328 331 329 325 329 330 330 331 330 331 330 330 330 329 329 329 329 329 329 328 329 327 328 328 328 329 329 329 329 328 327 326 326 327 327
331 330 329 330 330 330 330 328 328 329 330 328 327 328 331 330 331 330 330 329 329 329 329 329 329 328 329 329 328 329 327 326 327 327 327 327 327 328 328 328 328 328 328

GFSGL_850_thetae_057.txt.gz
Theta_e
326 328 330 334 334 341 352 351 347 346 341 343 343 344 342 340 338 336 332 331 332 330 329 329 329 328 328 326 326 327 328 328 328 326 326 326 327 328 328 328 326 318 323
328 330 338 342 343 351 350 347 348 345 343 343 344 342 339 338 335 332 331 333 332 330 328 329 327 327 325 327 327 327 327 327 328 326 327 327 326 327 327 327 323 317 322
343 344 344 345 349 349 348 348 347 346 344 341 340 338 333 331 332 331 331 332 332 330 330 328 327 327 325 326 327 326 329 329 327 326 327 327 328 326 327 329 324 318 329
343 345 347 348 349 347 348 345 345 342 338 336 335 332 333 333 330 329 328 330 331 331 330 329 329 326 326 326 326 325 328 328 326 326 327 329 328 327 328 327 323 325 327
344 345 346 347 345 344 341 340 338 335 335 335 334 334 331 331 330 329 330 330 331 329 329 329 328 326 325 325 327 327 327 327 327 327 326 326 327 327 326 326 328 328 327
344 345 344 343 343 341 338 336 336 334 334 334 332 332 330 330 330 330 331 331 331 329 329 327 326 327 326 326 327 327 326 324 327 327 324 327 326 324 325 325 323 324 326
342 342 341 340 339 338 336 336 333 333 333 333 332 330 330 330 331 330 331 331 327 329 327 327 328 326 326 325 327 327 327 327 327 325 325 325 325 326 325 324 324 324 324
340 340 339 338 338 336 334 332 332 333 332 333 331 330 330 332 331 329 325 327 327 330 330 328 326 326 324 325 327 326 328 329 327 326 324 325 325 326 326 324 324 325 325
339 339 337 335 334 333 333 332 332 332 332 331 331 332 331 331 329 325 325 327 329 330 328 326 326 327 326 326 326 328 328 325 325 324 325 326 326 326 325 325 325 326 325
336 334 334 334 331 331 332 332 331 331 331 332 332 331 331 328 327 327 329 330 329 329 327 326 325 326 327 325 326 327 326 325 325 325 325 326 326 326 325 325 322 324 325
333 334 334 332 332 332 332 332 332 332 331 331 331 331 330 329 329 329 330 329 328 328 327 326 326 326 326 326 326 326 324 326 325 326 326 326 326 326 326 326 325 324 324
333 334 334 334 332 332 332 332 332 330 331 331 331 328 329 328 329 329 329 328 328 327 327 326 326 326 326 326 326 326 325 324 325 325 324 324 324 326 326 325 326 325 325
334 335 333 332 332 332 332 332 331 331 330 331 329 329 328 328 328 328 328 328 327 327 327 325 325 325 325 326 327 326 324 324 325 324 326 324 325 323 324 324 325 324 324
334 332 332 333 332 331 332 331 331 331 330 330 329 329 327 327 327 326 325 325 326 328 327 326 326 325 327 327 327 325 324 323 323 323 323 323 324 322 323 324 324 324 322
332 331 330 332 332 333 332 332 331 330 329 330 330 328 327 326 326 325 325 325 325 327 326 325 324 325 325 324 323 323 323 323 322 321 322 322 323 323 324 323 323 323 322
331 331 331 330 331 332 332 332 332 330 330 330 330 330 328 327 326 326 324 324 326 327 326 326 325 324 323 323 322 322 323 322 322 321 321 321 322 323 324 323 322 322 323
330 331 330 330 331 333 332 332 330 330 330 330 330 330 329 328 327 325 324 324 325 325 325 326 325 325 324 323 324 324 324 323 322 323 322 322 322 323 323 323 324 324 324
330 329 331 332 331 331 331 329 328 328 330 330 329 329 329 328 326 324 323 324 324 323 323 325 325 325 324 323 323 323 322 322 323 322 324 322 322 323 322 323 323 323 322
330 331 332 333 332 331 332 330 328 327 329 329 329 328 327 325 324 323 323 324 324 323 322 322 324 324 324 323 323 322 322 322 323 323 324 324 323 322 322 322 322 322 322
327 331 332 333 333 331 332 330 330 330 328 328 328 328 326 325 323 323 324 324 325 325 324 323 323 324 324 324 324 323 323 323 323 323 324 323 324 322 322 322 323 322 323
332 332 331 331 334 331 332 331 332 331 329 326 327 326 326 324 324 324 324 324 325 327 325 324 323 323 323 323 324 324 324 324 324 324 325 325 324 324 323 323 323 322 323
332 330 329 330 331 331 331 332 331 330 329 327 326 326 325 324 325 325 325 325 325 325 326 327 326 324 324 324 324 324 325 325 326 326 326 325 325 324 324 324 324 323 324
328 329 330 331 330 330 330 332 332 331 330 326 325 324 326 326 326 327 327 327 328 327 326 327 327 327 327 327 326 326 326 326 325 325 325 325 326 327 327 326 326 325 326
328 330 330 330 330 330 330 330 332 331 331 327 325 326 326 327 327 327 328 328 329 329 329 328 328 328 328 327 327 327 326 327 327 327 326 326 326 327 328 329 328 328 328
328 329 329 329 330 330 330 331 333 331 327 326 327 328 328 329 329 330 329 329 329 329 328 329 329 328 328 328 328 328 328 328 328 328 328 328 328 328 328 329 329 328 328
328 328 329 329 329 329 331 331 329 327 328 329 330 330 330 330 330 329 329 329 329 329 329 328 328 328 328 327 327 326 327 326 326 328 328 328 328 328 328 328 328 328 328

GFSGL_850_thetae_060.txt.gz
Theta_e
328 326 324 323 324 329 331 330 329 333 348 346 344 340 341 341 340 339 338 335 333 331 330 329 328 329 328 328 327 327 328 327 328 326 326 327 328 326 327 328 325 321 322
329 330 328 326 328 335 335 331 331 344 347 341 339 342 342 340 340 338 336 333 331 330 329 328 329 329 328 327 326 326 327 328 328 326 326 327 328 329 328 328 327 320 323
332 328 327 329 331 331 332 339 351 348 343 342 342 341 340 340 338 336 332 331 331 331 330 329 328 327 328 325 326 327 327 328 327 327 326 326 326 327 328 328 325 320 324
331 328 328 334 341 339 344 351 347 345 342 342 343 341 338 335 333 331 330 330 331 331 330 331 329 328 328 325 326 327 327 328 328 327 326 326 326 327 327 327 322 323 323
329 337 343 343 343 349 351 348 344 344 343 340 339 330 331 331 331 329 327 328 329 331 331 329 329 329 326 325 326 326 325 327 327 326 327 327 327 325 326 327 323 320 326
338 339 343 342 347 348 346 343 345 341 337 334 333 332 330 331 330 329 328 329 330 330 330 329 329 327 326 325 325 327 325 327 327 326 327 328 325 325 326 326 323 323 326
340 341 343 343 345 342 341 338 336 336 335 334 332 332 331 330 329 329 329 330 330 329 329 327 327 326 327 326 326 327 327 326 326 326 326 326 324 326 325 325 324 323 324
338 341 342 343 341 339 337 336 334 333 332 332 331 330 330 329 330 330 330 330 330 328 330 329 328 327 325 325 327 326 327 326 327 327 327 325 324 324 325 325 325 325 323
339 340 341 340 338 336 335 333 330 331 332 332 332 330 329 329 331 330 328 324 326 328 330 328 326 326 325 324 326 327 327 328 328 327 325 323 324 325 324 323 324 323 324
339 339 339 337 336 335 331 332 331 331 331 332 331 331 331 331 330 327 324 325 329 329 329 326 326 326 326 325 326 327 328 326 324 324 323 324 324 325 325 324 320 322 323
337 336 336 334 332 331 331 330 331 331 331 331 331 331 331 329 326 326 328 329 328 328 328 326 325 325 326 326 325 326 326 324 324 324 325 325 326 325 324 325 323 323 324
334 333 333 331 328 331 330 331 331 331 331 331 331 330 329 328 329 328 329 328 327 327 327 326 326 326 326 325 326 326 324 324 325 326 326 327 325 325 324 324 323 323 325
333 334 333 331 331 331 331 332 332 332 331 331 330 329 326 327 329 329 328 328 328 327 326 325 326 326 326 326 327 325 324 324 326 326 326 326 326 325 324 324 325 324 324
333 334 332 332 331 332 331 331 331 330 330 330 329 327 327 327 327 327 327 327 327 327 327 325 326 326 326 327 326 325 324 324 325 324 324 323 324 324 324 325 325 325 324
334 334 332 332 332 332 332 331 330 330 329 329 329 327 325 326 327 325 325 324 325 327 326 325 326 325 326 326 326 324 324 323 323 322 322 321 322 323 324 324 325 324 323
332 332 332 332 331 331 331 331 331 331 330 329 328 328 326 325 326 325 324 324 325 327 326 326 324 325 326 326 324 323 323 322 322 321 321 321 322 323 323 323 324 323 323
331 331 331 331 330 330 330 329 330 330 330 329 330 329 326 326 326 325 323 324 326 326 326 324 323 323 322 321 322 321 322 322 321 321 321 321 323 322 323 323 322 323 322
330 329 328 329 330 331 331 331 329 329 329 329 330 330 328 327 326 324 323 324 325 325 326 325 324 324 323 322 322 322 322 321 321 321 321 321 321 321 322 323 322 322 323
329 329 329 329 330 331 331 331 329 329 329 330 329 330 329 327 325 323 323 324 323 323 324 325 325 325 324 324 323 323 322 321 321 322 320 322 322 322 322 322 323 323 323
329 329 328 329 331 331 330 328 328 329 329 329 328 328 327 325 323 323 324 323 323 322 322 322 324 324 324 323 323 322 321 321 321 322 322 323 323 323 322 322 322 323 323
330 331 330 332 332 331 331 329 328 328 329 329 328 327 327 325 323 323 324 324 324 324 323 322 323 324 324 324 323 322 322 322 322 322 323 323 323 323 322 322 322 322 322
329 330 331 333 333 331 331 330 330 329 327 328 327 326 324 323 323 324 324 324 326 326 326 324 323 323 323 323 324 324 323 324 324 324 324 325 324 324 324 323 323 323 323
330 331 331 333 333 332 331 331 330 329 326 326 325 324 324 324 324 324 324 325 325 325 327 326 325 324 323 324 324 324 324 325 325 326 326 326 326 326 325 325 325 324 323
330 329 330 331 331 331 330 330 330 328 326 325 325 324 324 325 326 327 328 327 328 326 325 326 327 326 326 327 326 326 326 326 326 326 325 325 326 326 326 327 327 327 327
330 329 330 331 331 332 330 329 330 328 324 325 325 325 326 328 327 328 328 328 328 328 328 328 327 327 327 327 327 327 326 327 327 327 327 327 327 327 326 327 327 327 327
329 330 330 330 331 331 331 331 331 328 324 325 326 326 327 328 328 328 328 327 328 328 328 328 328 328 327 327 328 327 327 327 327 327 327 327 327 327 326 326 326 325 324

GFSGL_850_thetae_063.txt.gz
Theta_e
325 328 328 327 324 324 324 325 326 329 328 331 344 346 345 341 340 339 340 339 339 335 334 331 330 328 328 329 329 330 328 328 328 327 326 326 326 328 327 327 322 324 324
323 325 326 324 324 325 324 325 329 332 330 335 346 346 343 339 339 339 340 338 334 332 331 329 328 328 329 328 328 327 326 327 328 327 326 326 328 327 326 327 322 324 323
327 326 326 326 326 326 325 327 333 333 329 342 346 345 339 339 338 338 338 335 332 330 330 328 328 329 328 328 327 326 326 327 328 327 326 326 328 328 326 327 325 321 323
334 332 330 330 328 326 327 331 334 331 334 347 342 339 340 339 338 338 335 331 330 331 330 329 330 329 327 328 326 326 327 327 328 327 327 326 326 327 328 328 326 320 324
330 333 331 328 327 327 329 332 332 339 347 343 341 340 339 339 338 334 329 329 330 330 330 330 330 329 329 328 326 326 326 327 328 327 326 326 326 326 329 327 325 319 323
333 332 330 328 328 338 340 335 344 347 343 342 342 340 334 328 330 330 328 327 328 329 330 330 329 328 328 328 325 325 326 327 326 326 326 326 326 325 327 326 326 319 323
338 333 332 338 340 340 339 346 345 344 342 341 339 328 329 332 331 329 328 328 329 330 330 330 329 329 328 326 327 325 327 326 326 327 325 326 325 326 325 326 325 320 321
340 337 336 338 340 339 342 343 344 343 340 334 332 331 330 331 331 329 328 329 330 330 329 328 327 327 327 327 326 326 326 326 326 327 327 326 326 325 324 326 325 321 323
334 338 338 340 340 342 342 342 341 337 335 333 331 331 330 329 329 329 329 330 330 329 327 329 329 327 325 325 325 327 327 326 326 327 327 327 325 324 324 323 323 322 322
333 337 338 338 340 338 337 335 335 334 333 331 331 330 330 329 329 330 330 328 325 325 327 329 327 326 326 325 325 326 326 326 327 327 326 323 323 322 323 323 324 323 325
329 336 337 338 337 336 335 333 329 328 330 332 331 330 330 331 330 330 326 324 327 328 328 327 326 326 326 325 325 326 326 327 326 325 323 323 324 324 323 323 323 322 323
333 336 337 337 336 335 331 329 331 331 332 332 331 331 331 330 327 325 326 328 328 327 328 327 326 325 326 326 325 326 326 324 323 322 323 323 324 324 324 325 322 319 322
330 336 336 335 334 330 329 330 330 330 331 331 331 331 330 328 328 328 329 328 327 326 326 327 326 325 326 326 326 326 324 324 324 324 322 323 324 323 322 324 323 323 323
334 332 331 331 330 331 329 330 331 331 330 331 331 330 328 327 328 328 328 328 326 327 326 325 326 326 326 326 326 324 324 323 325 322 322 322 323 324 324 324 324 324 323
331 332 330 329 331 330 330 331 331 331 331 330 329 328 325 325 327 327 327 327 326 326 326 325 327 326 325 326 325 323 323 322 323 322 322 322 324 324 323 324 324 323 323
333 333 331 331 331 331 331 331 331 330 329 329 329 327 325 326 326 325 324 324 325 327 326 325 326 326 326 325 324 324 324 323 322 322 322 322 321 321 322 324 324 324 323
333 333 332 331 332 331 331 331 330 330 330 330 329 327 325 324 326 324 324 324 325 327 326 326 324 324 324 324 325 323 322 322 321 320 321 320 321 321 321 322 323 323 323
333 331 330 331 331 331 331 330 330 330 330 330 329 327 326 326 325 323 323 324 325 326 326 325 324 323 323 323 323 321 321 321 320 320 320 320 320 321 322 323 323 323 323
330 330 330 330 330 330 330 330 330 329 329 329 330 328 327 327 326 323 322 324 325 325 325 325 324 323 322 321 321 321 321 321 320 320 320 320 320 320 322 322 323 322 322
329 327 328 329 330 331 331 331 330 329 329 329 330 329 328 327 324 322 324 323 323 323 324 325 325 324 323 323 323 323 322 321 321 321 321 321 322 321 321 322 322 322 322
328 328 328 329 331 331 330 328 328 329 329 329 329 328 326 326 323 323 323 323 323 322 322 322 324 325 324 324 323 322 321 321 321 321 321 322 323 323 323 322 322 322 323
329 329 329 329 330 330 329 327 328 329 328 328 328 327 325 323 323 324 323 324 323 324 323 323 324 324 324 324 323 322 321 322 322 321 321 322 323 323 323 322 322 322 322
330 330 330 329 331 331 329 328 328 328 328 327 327 325 323 323 323 324 324 324 325 326 325 323 324 324 323 323 323 323 323 323 323 324 324 324 325 325 325 324 324 323 323
329 330 329 328 330 331 330 330 329 327 327 326 325 323 323 323 324 324 324 325 325 325 325 325 324 323 323 324 324 324 324 324 325 326 326 326 326 326 326 326 326 326 327
330 330 329 329 331 331 330 329 326 325 326 324 324 324 323 324 324 326 327 327 326 325 326 327 326 326 326 326 326 326 326 326 326 326 326 326 326 326 326 326 326 326 326
329 330 330 329 329 329 329 327 325 325 325 324 324 325 326 326 327 328 328 327 327 327 327 327 327 327 327 327 326 326 326 326 326 324 325 325 325 325 325 326 325 325 324

GFSGL_850_thetae_066.txt.gz
Theta_e
316 318 320 326 327 331 332 334 332 328 326 326 328 327 341 344 344 340 340 339 338 337 338 333 334 333 330 329 329 329 329 329 327 327 326 325 326 325 327 327 327 327 328
326 320 321 327 327 330 332 330 325 324 325 326 329 331 343 345 344 340 338 339 338 337 336 332 331 329 327 328 328 328 328 327 328 327 327 326 326 327 327 327 325 323 323
337 322 321 323 327 330 329 325 324 325 324 327 329 334 344 345 341 338 337 339 338 335 331 330 328 328 328 328 328 327 326 325 327 327 327 326 330 327 327 327 321 324 325
337 330 321 322 325 329 327 324 324 324 327 331 331 334 345 344 338 337 337 339 335 332 330 329 328 328 328 327 328 326 325 326 327 327 327 327 329 328 326 327 323 323 322
338 334 327 324 324 325 324 326 325 327 332 332 330 343 345 338 338 336 337 336 330 329 331 330 329 330 329 327 327 327 325 326 327 328 327 327 328 328 328 328 326 321 323
338 335 333 330 329 329 328 326 329 335 334 331 339 346 338 339 338 337 334 327 329 329 330 329 330 330 329 328 328 326 325 326 326 327 327 327 329 327 326 328 326 320 324
336 336 334 331 329 328 330 333 335 334 334 341 345 339 338 339 337 332 328 327 327 328 329 329 330 329 328 328 328 325 326 326 326 326 326 326 326 326 326 327 326 320 324
332 338 335 335 335 333 333 338 337 335 338 342 341 339 337 330 329 329 328 327 328 329 330 330 328 328 328 327 326 327 325 326 326 326 327 325 326 325 325 326 326 323 320
328 339 337 337 337 339 340 338 335 342 342 341 341 331 328 330 330 330 328 328 328 330 330 329 328 328 327 327 325 325 326 326 326 326 327 327 326 325 325 325 325 323 324
326 332 338 339 337 335 338 339 340 340 342 336 330 330 330 330 331 329 329 328 330 330 329 327 328 328 325 325 325 326 327 326 325 324 326 326 326 325 324 323 324 323 321
325 328 335 337 338 338 338 337 340 339 334 332 330 331 331 330 329 329 329 330 328 325 325 327 328 326 326 326 324 326 326 326 326 326 327 325 323 323 323 323 323 322 322
328 328 335 337 336 336 337 339 337 334 334 332 331 330 330 329 330 330 329 325 325 327 326 328 327 326 325 326 325 326 327 327 326 324 324 322 323 323 323 322 322 323 323
328 331 335 335 335 335 333 334 333 330 330 331 331 330 330 330 330 326 325 327 327 326 326 327 326 325 326 326 325 326 326 324 323 322 322 322 323 323 324 324 323 321 323
325 329 334 336 335 334 330 327 328 331 332 331 331 330 330 330 327 327 328 328 327 325 325 326 326 325 326 325 326 325 323 323 321 322 323 323 323 323 322 324 321 320 320
325 325 325 334 334 332 329 330 330 330 330 330 330 330 330 328 327 327 328 328 326 325 325 325 326 325 325 326 324 322 322 322 322 322 322 322 323 324 323 322 322 322 322
325 323 329 333 331 329 329 330 330 330 330 330 330 329 326 325 327 327 327 326 326 325 326 325 326 324 324 324 323 322 322 322 322 322 322 322 323 323 323 323 324 324 322
323 331 332 330 331 329 330 330 331 331 330 330 329 327 324 327 326 325 324 324 325 326 326 325 325 326 323 324 324 323 323 322 321 321 322 322 322 322 323 323 324 323 323
330 329 329 330 330 330 330 331 331 330 330 329 328 326 325 326 324 323 323 324 324 326 326 325 326 324 324 324 324 324 323 322 320 320 320 320 320 321 322 322 323 323 324
331 331 331 331 331 331 331 331 330 329 329 329 327 326 325 324 323 322 322 323 325 325 326 325 324 324 323 324 322 321 321 320 320 320 320 320 320 320 321 322 322 322 322
333 331 331 331 331 331 330 330 330 330 329 329 328 327 326 325 324 322 323 325 325 325 324 325 324 324 322 320 321 320 321 321 320 320 320 320 320 320 321 321 321 323 322
331 330 330 330 330 330 329 329 329 329 329 329 329 327 327 327 323 323 323 322 323 323 324 324 325 324 323 322 322 322 322 321 320 320 321 321 322 322 322 322 322 322 322
329 330 329 329 330 330 330 330 329 329 329 329 329 328 327 325 323 323 323 325 323 322 322 323 324 324 324 324 323 322 321 320 320 320 321 321 322 322 323 323 322 322 322
328 328 329 330 330 329 327 327 328 328 329 329 328 327 325 323 323 323 323 324 325 323 322 323 323 324 324 324 323 322 321 321 321 321 321 321 322 324 324 324 323 323 322
329 329 329 330 330 329 328 327 328 327 327 328 327 325 323 323 324 324 324 325 325 324 323 323 323 324 323 323 323 323 323 322 323 323 324 324 324 324 325 325 325 325 325
329 329 328 328 330 330 329 328 327 328 327 326 324 323 323 323 324 324 324 325 325 325 325 324 323 323 324 324 324 324 324 324 325 325 325 325 325 325 325 325 325 325 323
329 329 328 328 329 330 329 328 327 327 326 324 323 323 323 324 324 325 325 325 324 325 325 325 325 326 326 326 326 326 326 325 324 324 325 325 325 325 324 325 324 324 323

GFSGL_850_thetae_069.txt.gz
Theta_e
325 328 331 320 314 316 318 322 322 323 327 335 335 329 328 326 329 341 343 343 341 338 338 339 339 333 334 334 331 330 330 330 331 330 326 326 325 325 325 327 327 326 328
322 327 332 331 316 316 319 322 323 327 332 336 333 328 326 327 334 343 344 340 338 338 337 337 336 333 333 330 328 328 329 329 330 331 327 326 326 327 327 327 327 327 328
321 326 333 335 321 317 320 326 329 333 335 334 329 325 327 328 337 344 343 340 337 337 336 337 333 332 330 328 327 327 328 327 326 330 328 327 325 327 327 327 326 323 324
321 327 333 335 322 319 323 329 331 332 330 327 324 325 330 332 341 344 341 337 337 338 337 332 331 329 327 327 327 328 327 327 326 328 328 327 327 328 327 327 323 325 325
320 326 333 335 325 320 323 329 332 329 325 325 325 330 333 336 342 343 338 336 338 337 333 331 329 328 328 328 327 328 327 326 326 328 327 327 327 328 326 327 324 324 324
319 325 329 335 327 319 323 329 329 327 325 325 328 332 333 338 343 338 337 336 337 333 330 330 329 329 330 329 328 328 328 326 326 326 327 327 326 327 327 327 325 327 325
322 325 327 338 333 322 325 329 326 324 325 327 332 333 332 339 338 338 336 336 331 329 330 330 330 330 330 329 328 328 327 326 326 326 327 327 327 327 328 328 327 326 324
322 323 327 339 337 334 326 326 325 326 327 331 334 332 339 339 339 337 335 327 326 328 329 329 330 330 329 328 328 328 326 326 326 326 327 327 326 326 327 326 326 324 323
321 322 327 337 341 334 330 330 330 330 333 335 334 335 339 340 338 335 328 327 327 328 329 330 330 328 327 327 327 326 327 325 326 326 326 326 326 325 325 326 326 324 323
324 324 326 334 342 335 333 331 331 334 336 335 339 340 338 338 329 329 328 327 328 328 330 330 329 328 328 327 326 326 326 326 326 326 327 327 326 325 325 325 326 325 321
323 324 326 333 340 337 338 340 340 336 337 339 340 338 334 329 330 329 329 328 329 329 330 329 327 328 327 325 325 326 327 326 326 325 326 326 326 325 325 324 324 324 323
323 325 329 333 337 337 338 339 339 337 339 340 333 329 330 331 331 330 329 330 330 328 326 327 328 327 326 326 325 325 326 326 326 326 326 326 325 325 325 323 323 322 324
322 327 330 333 336 336 336 337 337 337 337 330 330 330 331 331 330 330 330 329 325 326 326 327 327 326 326 326 325 325 326 327 326 323 324 323 323 322 322 323 322 323 322
323 328 333 332 333 334 334 335 335 334 331 330 331 331 330 329 330 330 327 325 327 326 325 326 327 325 325 326 326 326 325 325 324 324 323 322 323 323 323 322 323 322 322
323 330 330 331 332 332 334 335 335 333 331 330 331 330 329 330 330 327 326 327 327 325 325 326 326 325 327 325 326 324 323 323 322 322 322 323 323 323 322 323 323 320 321
324 328 330 332 333 333 333 331 330 329 330 331 331 330 330 329 328 327 328 328 326 325 325 326 325 325 326 325 323 323 322 322 322 322 323 323 324 324 322 322 322 321 322
326 326 330 332 332 330 329 330 331 331 331 330 330 328 327 326 328 328 327 326 326 325 326 325 326 325 325 324 323 322 322 322 322 322 322 322 323 323 324 323 322 323 323
325 323 325 326 328 329 330 330 330 330 330 329 326 324 326 327 326 325 324 324 325 325 326 325 326 325 324 324 323 323 323 321 320 321 321 322 322 322 322 323 322 322 323
326 326 327 329 329 329 330 330 330 330 329 327 326 325 326 324 323 323 323 324 324 326 325 325 325 325 324 324 324 324 323 322 320 320 320 320 320 321 321 322 323 323 323
330 330 330 330 329 329 330 331 330 330 329 326 325 325 324 323 322 322 323 324 324 326 326 326 324 324 324 324 322 322 321 320 320 320 319 319 319 320 320 321 322 323 323
329 330 330 329 330 330 331 331 330 329 329 326 325 324 324 324 322 322 325 325 325 325 324 324 324 324 322 322 321 321 321 321 320 320 320 320 320 320 321 321 321 321 322
329 330 330 330 331 330 330 330 330 329 329 328 326 326 326 323 322 323 322 322 323 323 324 324 324 323 322 321 322 322 322 321 320 320 321 321 322 322 322 323 323 322 322
331 331 330 330 330 330 329 329 329 329 329 328 326 327 325 323 323 324 323 323 322 322 323 324 324 323 323 323 323 322 321 320 320 320 321 321 321 322 323 324 323 322 322
330 329 330 330 329 328 328 328 328 328 328 327 327 326 323 323 322 322 323 325 323 322 322 322 323 324 323 324 323 322 321 321 321 322 323 322 322 324 324 324 325 325 324
329 329 330 329 328 327 327 327 327 328 327 327 327 324 323 323 323 323 324 325 324 323 323 323 324 324 324 323 323 323 323 323 323 323 324 325 325 324 325 324 325 324 323
329 329 330 329 328 327 327 326 326 327 327 326 324 323 323 323 324 324 325 324 324 324 323 323 323 323 323 323 324 324 324 324 325 325 324 324 324 324 325 325 325 323 323

GFSGL_850_thetae_075.txt.gz
Theta_e
319 319 320 323 325 328 330 331 334 336 330 318 319 335 341 336 346 346 342 340 335 328 334 345 346 346 345 340 341 340 335 334 333 334 336 335 332 326 330 326 326 330 330
317 317 318 319 322 325 328 330 329 325 331 333 328 326 335 342 342 338 338 341 336 343 346 346 348 346 341 341 341 338 334 334 334 333 336 335 329 327 329 327 326 329 331
313 315 316 317 319 322 325 328 330 331 333 334 336 339 340 344 347 342 339 341 347 348 346 348 346 344 343 341 339 338 335 335 335 334 335 334 332 330 330 331 329 329 329
312 312 313 316 318 320 323 326 329 327 336 335 335 337 341 346 347 348 346 347 348 347 347 345 345 343 343 339 340 337 337 335 333 333 333 334 331 331 330 331 328 328 328
312 312 312 314 317 318 321 324 328 328 336 336 336 338 341 344 345 346 347 347 347 347 346 345 344 343 342 339 337 336 334 334 335 332 332 333 332 331 330 329 329 328 325
312 311 312 314 315 316 320 323 328 329 335 337 336 338 340 344 344 345 347 346 347 346 344 344 342 341 340 337 332 335 335 333 332 334 332 331 331 332 330 331 329 323 326
311 311 312 313 314 316 320 323 326 330 336 336 337 339 342 345 344 344 345 347 346 344 343 341 342 340 337 332 330 330 333 331 331 331 333 332 331 332 329 330 328 326 328
311 311 311 311 312 316 320 323 326 331 337 335 339 344 345 346 343 342 345 346 344 342 342 340 338 338 335 334 333 329 329 331 329 328 330 329 331 331 328 330 328 328 328
310 310 309 308 312 316 321 325 327 332 336 336 342 344 344 346 343 342 343 344 343 343 340 340 338 337 334 332 335 333 332 331 330 329 328 327 327 327 328 328 329 329 327
310 310 309 310 313 318 322 323 326 332 334 338 344 343 343 345 344 341 341 342 341 341 339 338 336 335 335 330 331 332 331 331 330 329 327 326 327 327 327 327 328 327 327
310 309 310 310 314 319 320 321 323 333 336 342 343 343 346 344 341 339 341 340 339 338 336 336 334 334 332 330 329 330 331 329 329 327 327 326 326 326 326 327 326 326 327
311 312 313 315 317 318 319 319 324 335 338 342 341 343 346 340 341 340 340 338 337 335 332 334 334 330 330 329 328 328 329 329 327 326 326 326 326 326 325 326 326 326 325
312 313 314 315 317 317 318 320 329 337 338 341 344 344 341 341 340 338 336 334 332 331 334 333 332 331 329 328 328 326 326 327 326 326 326 326 326 326 325 325 327 327 326
313 315 316 319 317 319 318 322 335 338 341 342 341 342 338 340 339 335 333 333 332 334 333 332 329 327 327 328 326 326 326 327 327 326 326 325 326 324 325 326 325 324 324
315 317 319 316 319 321 320 335 338 339 340 339 339 337 338 339 337 332 330 332 332 332 331 329 327 328 328 327 327 326 325 326 326 326 325 324 323 323 324 325 324 325 325
318 321 322 328 330 333 336 337 338 338 339 339 336 337 337 336 332 330 331 332 331 331 328 327 327 327 327 326 326 326 327 326 326 326 325 324 323 323 325 325 324 324 325
322 321 325 331 331 333 335 335 336 335 336 336 334 331 331 331 330 330 330 330 330 327 329 328 327 327 326 326 326 327 326 325 324 323 323 324 323 323 323 323 323 323 326
320 322 327 331 332 333 333 334 333 330 331 331 332 332 332 331 331 330 330 328 327 326 329 327 326 326 326 326 327 327 326 325 326 324 324 323 323 323 323 323 325 325 326
321 323 329 330 331 331 331 332 331 331 330 331 331 331 330 330 329 328 327 327 327 328 328 326 326 326 326 326 327 327 326 325 324 324 324 324 323 323 323 324 324 325 323
322 326 330 329 330 331 331 331 331 329 329 330 330 329 328 328 326 327 327 327 326 327 326 326 326 326 326 327 326 325 326 325 325 324 323 323 324 323 323 322 324 324 324
326 329 328 327 330 329 329 331 331 331 330 327 328 327 327 328 327 326 325 324 326 326 326 325 327 326 326 325 324 324 326 325 325 324 324 323 322 322 321 322 324 323 323
326 328 329 330 330 330 331 331 331 330 329 325 326 326 327 327 326 325 324 325 325 325 326 325 325 325 325 326 326 325 324 325 324 324 322 323 322 322 322 322 322 322 322
328 329 330 330 330 331 331 330 329 328 326 326 326 325 327 327 326 326 326 326 325 325 325 325 324 325 325 325 326 325 325 325 324 324 324 324 323 324 324 325 324 323 322
329 330 331 331 332 330 331 330 328 327 326 326 325 326 326 325 324 324 324 324 324 324 325 324 324 323 324 324 325 324 324 325 324 323 323 323 323 325 323 322 322 323 324
331 330 329 330 330 330 329 328 327 326 325 324 325 325 324 323 322 322 323 323 324 324 324 324 324 323 322 323 322 322 321 321 321 321 321 322 322 322 323 323 323 325 324
331 331 331 330 329 329 328 327 326 324 324 324 324 323 323 323 323 323 322 321 322 323 323 323 323 323 323 323 323 323 321 322 321 322 322 323 324 324 324 324 323 322 321

GFSGL_850_thetae_078.txt.gz
Theta_e
320 320 320 320 321 322 325 326 327 329 332 336 328 314 323 337 347 344 346 343 351 350 350 348 341 329 334 344 346 344 342 340 335 334 336 336 335 333 332 329 325 326 329
318 317 318 318 318 319 321 322 324 328 326 325 334 334 319 316 340 345 337 337 348 352 350 346 333 334 340 347 346 340 339 338 335 333 334 335 335 333 329 325 326 325 327
315 314 314 314 317 316 318 320 320 324 323 324 324 333 333 327 317 333 340 348 351 350 348 340 335 339 342 346 345 341 339 337 336 332 335 334 334 333 330 329 329 330 328
315 314 314 313 312 313 315 318 318 317 323 324 323 331 337 334 339 333 343 344 347 348 344 343 341 342 345 344 342 340 339 337 333 333 335 334 333 332 331 330 329 329 330
315 315 315 314 313 312 312 314 316 313 318 324 325 326 339 333 340 341 341 345 347 347 348 347 345 345 344 344 342 339 338 336 334 334 333 331 332 332 330 330 331 329 328
316 316 315 314 313 312 312 313 316 316 318 323 326 323 337 337 339 342 346 348 347 347 349 348 345 344 344 342 341 338 336 333 335 335 333 331 332 332 331 330 329 329 328
317 316 315 314 313 312 313 314 314 316 319 323 325 324 335 337 339 342 345 348 347 349 348 345 346 344 342 342 339 337 335 334 333 332 330 332 332 331 331 330 329 329 326
316 315 314 313 313 312 312 313 312 314 319 322 324 325 334 338 339 340 345 345 347 346 348 345 344 343 341 341 339 335 332 332 332 330 330 330 331 330 331 330 328 329 327
316 315 314 313 312 311 311 311 309 312 316 322 322 325 334 337 338 341 345 346 345 346 346 344 343 341 340 338 335 330 329 329 330 331 330 329 329 328 327 329 329 329 329
314 313 312 311 311 312 311 309 312 314 318 322 326 327 334 336 338 343 345 345 342 346 345 342 341 340 337 336 333 334 333 331 331 330 330 330 328 326 326 327 328 329 328
312 312 311 310 310 310 310 310 313 315 319 321 324 329 336 336 341 344 344 343 345 342 342 341 339 338 337 334 332 333 331 330 331 331 328 327 326 326 327 327 327 328 328
310 310 310 309 310 312 313 315 316 318 320 320 323 329 336 338 342 343 342 341 342 341 340 338 337 336 335 333 330 330 330 330 330 328 327 327 326 326 326 326 327 326 326
309 309 309 311 311 313 314 315 317 319 320 320 322 331 338 339 340 340 340 341 339 339 338 337 333 333 334 331 329 328 328 328 327 327 326 326 326 326 326 326 326 325 325
309 309 309 310 312 315 315 316 317 318 319 320 320 334 340 338 338 339 340 339 338 336 334 334 333 332 330 330 328 328 327 326 327 326 326 326 326 326 326 325 325 327 325
309 309 311 312 313 312 314 316 317 320 319 319 331 337 339 336 337 340 337 336 335 333 334 333 332 331 330 328 327 327 326 325 327 326 326 325 325 325 323 324 325 325 325
311 313 314 312 314 316 316 318 319 320 325 333 337 338 336 337 337 337 334 333 331 333 333 331 329 327 327 327 327 327 326 325 326 326 326 325 324 323 323 324 324 325 325
313 314 316 318 322 324 321 319 321 325 331 337 337 336 336 336 336 334 333 332 332 330 329 329 326 330 328 327 327 327 326 326 325 325 325 325 324 323 324 324 326 325 324
317 320 322 327 322 321 320 325 333 336 338 338 337 335 335 334 333 331 330 330 331 329 330 328 326 329 327 326 327 327 327 326 325 324 323 323 323 323 323 324 324 324 323
320 321 323 322 330 332 333 335 336 336 335 334 333 333 334 332 330 330 330 330 329 329 329 328 326 327 326 327 327 327 327 326 325 324 324 324 323 324 324 323 324 325 325
321 323 329 330 332 333 332 331 331 332 331 331 332 332 331 331 331 330 329 328 328 328 327 325 326 326 325 326 327 326 326 324 323 324 324 324 324 323 323 323 324 324 324
325 327 330 331 332 333 332 331 330 329 330 331 330 330 330 330 328 328 328 327 327 327 326 329 328 326 326 327 327 326 325 325 324 324 323 323 324 324 323 323 322 322 325
326 329 331 331 331 330 330 331 330 329 330 329 327 327 328 327 327 326 326 326 326 325 326 326 326 326 326 326 326 326 325 324 324 324 324 323 322 322 322 322 325 324 322
326 328 328 329 329 331 331 330 329 328 327 327 327 327 327 326 325 325 324 325 326 328 326 325 325 326 326 326 325 325 325 325 324 324 323 323 323 323 325 324 324 324 323
328 329 328 329 330 331 330 329 327 327 327 326 326 327 326 325 325 324 323 325 324 324 325 326 326 325 325 326 326 325 325 324 324 324 324 324 324 324 325 324 323 322 323
330 329 331 329 329 329 329 327 327 327 326 326 326 326 325 325 324 324 325 324 324 325 325 324 324 325 325 325 325 325 324 324 324 324 323 323 323 322 322 322 323 323 324
330 332 330 329 330 328 327 327 327 326 324 325 325 325 325 324 324 324 323 323 323 324 324 324 324 323 323 322 322 322 321 321 322 322 322 323 323 324 324 323 323 322 321

GFSGL_850_thetae_081.txt.gz
Theta_e
319 321 320 320 319 320 322 322 322 323 324 327 330 332 322 319 318 326 337 339 339 341 342 345 347 344 342 341 343 342 344 343 342 338 335 336 335 335 335 334 332 329 326
321 320 318 318 318 319 318 319 319 320 319 319 325 326 326 331 322 318 319 340 347 343 343 346 347 348 346 348 341 336 340 342 342 340 335 335 336 336 335 333 330 326 325
320 319 316 316 315 315 315 316 316 317 319 319 319 319 317 320 323 318 316 319 336 341 342 341 338 346 349 346 334 338 338 342 339 339 335 333 334 334 333 332 330 328 329
318 316 315 315 314 314 313 313 312 311 312 312 313 313 317 318 321 325 328 333 320 321 327 325 342 346 346 342 338 339 340 340 340 337 335 334 334 334 332 331 330 329 328
316 316 315 315 314 314 314 314 314 313 311 310 310 312 312 318 317 324 334 333 338 331 329 333 346 348 344 335 343 342 343 340 339 336 334 333 334 333 331 331 330 329 329
316 316 316 315 315 315 315 315 314 313 312 310 310 312 312 314 317 318 334 339 338 341 339 339 343 344 340 342 345 345 343 341 338 336 333 333 333 332 331 331 330 329 328
318 318 317 316 316 316 315 315 313 312 312 311 310 310 315 317 320 317 326 337 339 339 341 343 344 345 341 346 346 344 341 339 337 333 333 334 333 330 331 331 330 330 327
313 313 314 316 316 316 315 314 313 312 312 311 311 309 313 320 322 322 322 335 338 339 341 343 344 341 340 344 342 340 339 337 335 333 334 332 329 330 331 331 330 330 329
312 315 315 315 316 315 315 313 313 312 312 311 309 310 309 316 321 320 323 334 338 340 340 341 341 339 342 341 342 340 338 336 333 333 332 330 329 328 328 328 329 329 329
312 311 311 310 312 315 314 313 312 312 311 310 309 310 310 313 319 321 324 334 337 340 340 340 339 337 339 340 341 340 338 335 330 329 329 329 329 328 328 327 327 329 329
312 312 313 313 313 312 312 312 311 311 309 309 310 310 313 316 319 324 326 334 337 339 339 339 337 339 338 340 338 334 331 330 331 330 330 330 329 328 326 326 327 327 328
309 309 309 310 310 311 311 311 309 308 309 312 313 314 317 319 321 323 329 334 336 339 339 338 339 337 340 337 334 333 333 332 331 330 330 328 327 326 326 326 327 327 328
307 308 308 307 308 309 309 309 308 309 312 314 316 316 319 320 320 324 331 334 338 338 339 338 337 339 337 335 333 333 332 330 329 330 328 327 326 326 326 326 327 326 326
307 308 309 309 309 308 308 311 311 311 312 315 315 317 320 320 320 328 334 337 338 338 338 338 338 337 336 334 332 330 329 328 328 326 326 326 326 326 326 326 326 326 325
307 308 308 308 309 309 309 310 311 312 315 316 316 317 318 318 319 332 336 338 338 337 338 337 335 334 334 333 330 328 327 327 326 326 326 326 325 325 326 326 326 325 322
306 307 308 309 310 311 312 313 313 314 313 314 315 315 318 320 325 336 335 335 331 335 336 334 333 332 331 331 329 327 326 326 326 326 326 324 324 324 325 324 323 324 325
307 309 310 311 312 310 309 311 312 314 315 316 318 319 319 325 334 335 334 327 335 333 334 333 332 331 330 328 326 327 326 325 326 326 326 325 323 323 323 323 324 324 325
311 312 313 314 316 317 314 314 314 316 317 319 320 321 323 330 334 330 336 334 333 333 332 332 330 327 326 326 327 326 326 325 325 325 325 324 323 322 323 324 324 325 325
314 316 318 325 321 321 320 316 317 320 323 326 322 330 325 329 332 334 332 332 332 330 329 327 326 324 327 327 326 326 326 325 325 324 324 323 323 323 323 323 323 324 324
317 323 327 323 326 326 326 323 325 321 324 319 325 329 332 332 331 331 331 330 329 328 327 327 325 329 326 326 327 327 326 325 325 324 323 323 323 324 323 324 323 323 323
322 326 331 326 329 322 323 322 325 321 326 327 330 331 331 331 331 330 329 328 328 327 326 326 329 328 326 327 327 326 326 324 323 324 323 323 323 323 323 323 323 324 323
324 328 331 331 330 330 329 327 328 329 329 329 329 329 330 330 329 328 327 327 327 326 325 325 326 326 326 326 326 326 325 324 323 323 323 322 322 321 322 322 323 324 322
325 329 332 331 330 329 329 328 328 329 328 327 327 328 329 328 328 326 326 325 325 325 325 327 327 326 327 326 326 325 324 324 324 324 323 322 322 322 322 323 323 323 323
328 328 330 330 329 329 329 328 328 327 327 327 328 327 327 326 325 325 324 324 325 325 325 326 326 326 326 326 325 325 325 324 324 323 323 323 323 324 324 325 325 324 322
328 328 329 329 328 328 328 327 327 326 326 325 326 326 325 323 323 324 324 324 323 326 324 325 326 326 326 325 325 325 324 324 323 324 324 324 324 324 324 322 322 323 323
329 328 328 328 327 327 327 326 326 325 326 326 325 324 323 323 323 324 324 323 323 324 325 325 325 325 325 325 325 324 323 323 323 323 322 322 323 323 322 323 322 322 321

GFSGL_850_thetae_084.txt.gz
Theta_e
319 319 318 318 320 320 319 321 322 322 322 323 324 328 329 331 331 328 323 323 327 333 338 338 339 341 341 343 342 345 340 340 342 340 340 339 336 336 337 335 334 334 332
319 319 319 320 320 320 318 317 318 320 320 319 319 319 320 322 323 324 327 331 336 332 327 336 336 335 337 336 336 343 344 344 343 339 341 339 335 335 335 334 334 333 332
319 319 319 321 320 318 318 317 317 316 316 315 315 315 314 314 313 313 316 320 325 330 332 325 337 335 336 334 335 340 345 343 338 340 343 340 336 335 335 335 334 332 330
317 319 319 320 319 317 316 314 313 312 312 313 312 312 310 310 309 309 311 314 318 324 332 335 325 331 335 335 328 340 343 341 335 343 341 339 336 335 335 334 332 330 329
317 316 320 320 317 316 316 315 315 315 315 315 314 313 311 309 308 308 309 310 315 320 334 335 334 333 321 320 327 344 342 338 340 341 339 336 334 335 334 333 331 330 330
315 318 318 316 316 316 315 315 315 315 315 316 314 314 312 311 310 308 308 311 316 320 324 336 335 336 330 325 339 341 340 337 340 340 339 337 335 334 333 332 331 330 330
317 315 316 316 315 315 315 315 315 316 316 315 314 312 313 312 312 310 308 310 316 319 320 331 337 338 337 337 341 341 338 338 341 342 340 338 335 334 333 332 330 330 330
314 314 315 315 315 316 316 316 317 316 315 315 314 313 313 313 313 311 308 309 319 323 320 327 336 338 338 341 340 338 334 339 342 341 338 336 333 334 332 330 331 330 330
313 313 313 312 312 312 313 314 314 315 315 314 313 313 313 313 312 311 308 309 312 319 319 325 334 338 339 339 338 337 336 340 338 338 335 333 333 331 329 330 330 330 330
309 309 313 314 313 313 312 311 310 314 315 314 314 313 313 312 310 309 308 310 311 318 319 325 333 337 338 337 337 337 337 338 337 337 334 333 331 329 329 328 328 328 328
308 307 307 308 312 313 313 312 312 312 314 314 314 313 312 311 310 309 309 310 312 318 325 327 333 338 337 336 331 336 335 336 337 335 331 329 329 329 329 328 327 326 327
307 307 306 306 306 309 310 311 312 312 312 312 312 311 311 310 309 312 311 312 314 318 323 328 336 337 336 327 333 335 335 336 332 330 329 330 330 328 326 326 326 327 327
306 305 306 307 307 308 308 309 310 309 309 309 310 310 310 310 309 314 314 316 317 320 322 330 336 336 327 329 337 338 335 331 331 330 329 329 328 326 326 326 325 326 327
306 306 306 306 307 307 306 307 308 308 308 308 308 309 310 309 315 317 318 319 319 321 325 334 337 336 334 337 336 335 332 332 330 329 329 328 326 326 326 326 326 327 326
304 305 305 306 306 307 307 308 308 309 309 309 309 310 312 313 316 316 318 319 319 323 332 334 337 336 335 336 335 333 333 331 329 328 326 326 326 326 326 325 326 326 325
304 305 305 306 307 307 308 308 308 309 309 309 309 310 313 314 315 316 317 325 327 335 335 336 336 334 334 335 333 331 330 328 327 326 326 326 325 325 325 325 325 325 324
305 305 305 306 307 307 307 307 309 310 310 310 311 312 313 313 313 315 324 327 330 333 334 330 329 333 335 333 332 329 328 326 326 326 325 324 323 323 324 324 323 324 324
305 305 307 309 310 309 309 308 307 309 312 312 312 313 314 315 317 317 322 329 330 327 326 331 332 331 332 333 331 328 326 326 325 325 325 324 322 322 323 324 324 324 324
307 309 310 311 313 313 313 310 309 308 310 311 313 315 316 317 319 321 326 329 327 327 329 331 331 331 330 329 328 326 326 325 325 325 325 323 322 322 323 323 323 323 324
309 311 316 320 320 317 314 312 310 312 311 312 315 320 320 320 320 322 326 326 325 330 332 330 331 330 327 325 326 326 325 325 325 324 324 323 322 322 323 323 324 324 324
313 320 324 324 321 319 315 314 313 313 316 319 321 323 322 324 326 322 324 325 327 331 330 329 327 324 326 326 326 326 325 325 324 323 323 323 324 323 323 323 323 323 324
318 322 324 324 323 324 322 323 323 323 323 323 327 328 326 326 328 330 330 329 328 327 326 325 324 325 326 326 326 326 325 323 324 323 323 323 323 323 323 323 323 323 323
323 327 327 327 325 322 324 321 321 323 324 326 327 327 328 329 329 328 328 327 326 325 325 326 326 326 326 326 326 325 324 323 323 323 323 322 321 322 322 322 324 324 323
327 327 327 327 326 325 326 326 325 326 326 327 329 329 329 328 327 326 325 325 325 324 325 325 325 326 327 326 326 324 324 324 323 323 322 322 322 322 322 323 323 324 324
328 327 327 327 326 326 326 326 327 328 329 329 328 327 326 326 325 324 323 323 324 323 324 325 326 327 326 325 325 324 324 324 323 322 322 323 323 324 325 325 323 322 323
327 327 327 326 326 326 326 326 327 328 328 328 327 326 325 324 324 323 324 324 325 325 325 325 326 326 326 325 325 325 324 323 323 323 324 324 324 323 322 323 322 322 321

GFSGL_850_thetae_087.txt.gz
Theta_e
317 316 317 318 318 318 317 318 318 320 321 324 325 325 327 329 329 329 323 320 328 331 332 332 332 334 332 335 331 335 337 339 339 338 341 339 339 338 337 336 335 334 334
318 317 317 319 319 319 319 319 318 318 317 317 319 319 319 319 321 324 326 327 326 328 329 331 329 330 334 334 333 334 335 334 337 338 336 336 337 337 338 336 335 334 334
318 318 318 319 320 319 319 320 319 318 317 318 317 316 314 312 311 311 312 313 314 316 319 322 328 331 327 332 334 334 334 334 330 336 337 336 336 337 338 335 334 334 334
317 318 318 319 320 319 320 319 319 317 315 314 312 313 313 313 311 310 308 308 308 309 311 319 321 330 332 332 329 331 334 336 325 338 338 337 340 339 338 335 334 334 333
316 317 319 319 320 319 319 320 318 315 315 315 314 315 315 314 313 311 310 310 309 308 308 311 315 323 333 333 335 333 335 339 331 339 338 337 339 338 337 335 334 334 332
315 316 316 316 319 320 320 320 317 315 315 315 314 314 315 315 313 311 312 312 311 310 308 308 310 314 321 331 330 334 337 338 339 339 338 335 335 337 336 334 333 333 331
316 316 316 315 315 317 319 318 316 315 315 315 314 315 316 315 314 313 313 312 312 312 309 308 309 310 315 331 334 334 338 340 340 338 338 335 338 338 335 334 333 332 331
315 316 316 315 315 315 314 316 315 314 314 314 315 316 316 315 314 313 313 312 312 310 308 308 309 311 313 324 332 336 337 339 339 334 336 339 339 337 335 333 333 331 331
313 313 313 312 312 313 313 313 312 314 315 316 316 316 315 314 314 314 313 313 312 309 308 308 309 311 314 321 331 334 337 337 336 334 335 339 338 335 333 333 331 330 331
309 310 309 309 309 309 310 313 313 314 313 313 313 313 310 314 315 314 313 313 310 309 308 308 310 311 316 322 331 335 336 336 332 331 335 333 335 334 332 330 328 329 329
310 310 310 310 309 309 308 307 308 312 313 313 313 311 310 312 314 313 313 312 310 309 309 310 310 312 320 327 332 334 336 334 330 331 333 335 334 332 330 329 328 328 328
307 308 308 308 308 307 306 306 306 306 309 312 313 312 311 311 313 313 312 311 310 309 309 312 311 312 322 333 333 334 333 330 334 335 335 333 331 329 328 329 328 327 326
306 306 307 306 306 305 306 306 306 306 306 308 311 313 313 312 312 312 312 311 310 308 312 312 312 316 324 335 332 333 330 333 335 335 334 330 329 329 327 326 325 326 326
303 303 304 304 305 305 306 306 306 307 308 308 309 309 311 311 311 310 310 310 309 312 314 315 316 320 324 334 327 328 329 333 332 331 329 329 329 327 326 326 325 326 326
303 304 304 304 305 305 305 306 306 306 307 307 308 308 308 308 309 309 308 309 312 317 318 319 319 321 329 328 324 326 332 332 331 330 329 329 328 326 325 325 325 325 327
303 303 304 304 304 305 305 305 306 306 306 307 307 307 308 308 307 308 309 313 316 316 318 323 321 324 333 325 326 328 333 332 332 330 328 327 326 325 324 324 325 325 326
302 303 303 303 304 304 304 305 306 307 307 307 308 308 309 308 309 311 314 315 315 318 321 322 327 330 332 329 327 332 332 332 330 328 326 325 325 325 324 324 325 323 325
302 303 303 304 305 305 305 306 306 306 307 307 307 308 309 309 309 311 313 313 315 320 325 327 329 331 329 327 331 332 331 330 327 326 325 324 323 323 323 324 323 324 324
305 306 307 305 306 306 306 306 307 307 307 310 309 308 309 310 311 313 313 315 319 325 328 328 331 325 325 328 330 331 329 327 325 325 324 323 322 322 322 323 324 325 324
304 305 306 305 308 308 311 310 308 308 307 307 311 311 312 312 312 314 316 319 322 328 329 329 326 326 329 331 331 330 326 325 325 325 324 323 322 321 322 323 323 323 323
308 311 313 317 313 312 312 310 309 308 308 308 311 311 313 314 315 317 320 322 326 329 325 325 330 330 330 330 330 326 326 325 325 324 323 323 322 321 321 322 324 324 323
312 319 323 322 318 313 311 310 309 309 310 311 312 315 317 318 317 321 324 325 325 327 328 330 331 330 329 327 327 326 325 325 324 323 323 322 322 323 323 323 324 324 324
321 324 322 322 322 321 318 314 313 313 316 318 320 321 320 321 323 325 325 326 326 328 330 330 329 326 325 326 325 325 325 324 323 322 323 323 323 323 323 323 323 323 323
325 324 323 323 323 321 323 323 324 324 325 325 324 325 325 325 325 325 326 326 328 327 326 325 324 325 326 326 325 324 323 323 323 323 323 321 322 322 322 323 324 324 323
325 325 325 322 322 323 325 324 324 325 324 323 324 324 323 326 328 327 326 326 325 325 325 325 326 326 326 326 325 323 323 323 323 322 322 322 322 322 323 324 324 324 322
326 325 325 322 322 323 323 324 325 327 325 327 328 327 327 326 325 324 323 323 324 325 325 326 326 327 326 325 324 323 323 323 323 323 323 323 323 324 324 324 322 322 321

GFSGL_850_thetae_093.txt.gz
Theta_e
321 320 319 317 315 316 316 316 316 315 314 314 317 320 321 323 324 326 330 332 334 334 333 332 331 332 333 333 334 333 332 332 333 333 335 333 332 334 331 330 329 330 334
318 317 317 317 317 317 317 317 316 316 314 315 319 321 324 325 325 329 330 330 330 329 328 327 328 326 326 326 326 326 329 331 328 328 325 331 334 325 329 330 333 332 334
315 316 317 317 317 317 317 317 317 316 315 317 318 318 320 321 320 319 318 318 319 320 319 317 315 315 317 319 319 319 328 331 331 330 326 327 330 328 327 328 333 336 334
314 315 316 317 317 317 316 316 315 318 317 317 318 318 317 319 316 312 311 311 310 309 309 308 308 308 308 308 309 313 317 326 332 334 330 331 328 327 328 330 333 334 334
314 315 315 315 315 317 317 317 319 319 318 318 318 318 315 315 312 314 312 311 310 311 311 311 310 310 310 309 308 308 310 321 329 331 334 330 323 325 331 332 334 335 333
308 312 315 316 315 315 316 316 317 319 320 319 319 319 316 314 314 314 315 315 314 313 312 311 310 310 310 309 308 308 308 317 325 329 331 331 324 318 324 331 337 336 335
307 308 312 313 316 316 315 316 317 317 319 320 320 319 319 316 314 314 314 315 315 315 313 313 311 311 309 308 308 308 308 311 317 319 327 331 335 330 334 334 336 336 335
307 307 309 311 313 316 315 315 315 316 318 319 320 320 319 319 315 314 313 314 315 316 315 314 313 312 311 309 308 308 308 309 313 319 324 330 334 336 334 337 336 336 335
306 307 308 309 311 312 315 315 315 314 315 316 318 319 319 320 318 315 314 313 314 315 315 314 314 313 311 311 309 308 309 309 312 315 323 331 335 336 337 337 333 335 334
305 305 307 308 309 311 312 311 312 313 313 313 314 316 318 318 318 317 314 313 313 314 315 312 312 313 312 312 311 308 309 310 316 320 326 332 335 336 333 332 333 334 336
301 302 303 306 307 308 309 311 310 309 310 311 311 312 313 313 314 315 314 313 314 315 314 313 310 310 311 312 311 309 309 311 314 321 327 332 334 334 332 329 333 334 335
301 302 303 304 305 306 307 309 309 309 309 309 309 310 311 310 312 312 313 313 314 314 314 313 311 310 310 311 311 309 309 311 314 322 331 332 333 331 329 330 332 332 330
301 302 302 302 304 305 305 307 308 309 310 310 310 311 311 311 310 310 310 309 310 311 312 311 311 310 310 310 310 308 311 312 320 331 332 332 330 329 331 332 331 329 329
299 301 301 301 301 302 304 306 306 307 308 309 309 310 310 310 310 310 310 310 309 308 308 308 309 310 311 311 311 309 312 316 329 330 330 331 329 328 330 330 329 328 326
299 299 300 300 301 300 301 303 304 305 306 307 308 308 309 309 309 309 310 308 308 308 307 308 310 311 311 312 310 311 313 323 330 331 331 330 328 329 329 328 326 326 326
298 299 300 300 301 301 301 302 302 303 304 304 304 306 307 307 308 308 308 307 307 307 308 312 312 314 315 315 313 313 315 326 329 330 329 330 329 329 328 326 326 325 326
298 299 300 301 301 302 303 303 304 304 304 304 305 305 306 308 308 307 307 307 307 309 311 312 313 314 315 316 316 316 319 327 329 329 327 326 329 328 327 324 325 326 326
298 298 299 299 300 300 301 303 304 304 305 305 305 305 306 306 306 306 307 307 307 308 309 310 311 313 315 316 317 317 324 326 328 330 328 329 328 327 325 325 325 325 325
297 298 299 299 300 300 300 300 300 302 303 304 305 306 306 306 306 306 307 307 307 308 308 309 310 314 316 316 320 323 325 326 327 330 329 328 327 325 325 324 324 325 324
299 301 299 299 300 299 300 300 301 302 303 304 304 305 306 306 306 306 306 306 308 310 309 310 310 315 316 316 320 323 326 327 326 328 327 325 324 323 323 324 323 324 324
299 299 300 298 298 299 299 300 301 303 303 304 305 305 306 307 306 306 306 307 308 309 311 313 315 316 317 318 322 326 327 326 327 327 326 325 324 325 325 325 324 325 325
305 307 308 309 308 307 308 305 301 303 304 305 305 306 306 307 307 308 309 309 309 309 310 313 314 315 319 322 324 328 326 327 326 327 326 325 324 324 324 325 325 323 323
317 315 313 310 309 308 308 305 304 306 306 306 307 308 308 308 309 309 309 310 309 311 312 313 317 321 324 326 328 327 326 327 326 325 325 323 322 324 325 325 324 323 324
320 319 316 313 311 310 309 308 307 307 307 307 309 308 310 310 309 309 309 311 312 314 318 322 324 325 326 327 328 326 326 325 325 325 325 324 324 323 324 323 324 324 323
321 320 319 318 316 313 313 311 311 311 311 311 311 311 312 313 312 313 315 319 321 322 323 324 325 326 328 327 327 325 325 325 324 323 323 323 323 323 323 323 323 323 323
322 320 319 319 318 317 317 316 316 315 315 314 313 315 316 316 319 321 322 322 324 325 325 326 326 327 327 327 326 325 324 323 322 321 321 322 323 323 323 323 323 323 323

GFSGL_850_thetae_096.txt.gz
Theta_e
321 326 328 328 328 328 328 327 325 317 314 320 324 324 326 327 329 331 334 335 337 337 337 337 336 334 335 335 330 330 331 326 329 332 334 330 332 324 329 333 334 332 333
319 319 321 324 326 327 327 327 324 320 321 323 325 327 327 328 329 330 330 329 333 335 336 335 336 335 334 333 332 332 332 332 334 334 332 333 327 324 324 332 329 330 329
317 318 316 320 323 324 325 328 328 327 327 324 325 325 325 325 326 327 327 328 330 331 332 333 333 333 333 332 331 331 330 328 328 334 333 331 323 326 325 329 329 329 330
314 315 317 316 318 321 322 320 321 322 322 326 325 323 323 322 323 323 323 323 324 325 326 325 323 323 324 325 326 327 327 329 329 332 332 331 329 327 330 328 321 331 329
312 313 314 315 315 319 317 317 316 317 316 316 319 326 323 321 321 320 318 318 319 319 318 317 317 317 315 312 312 316 317 321 321 322 326 330 331 332 326 325 319 332 336
309 311 312 313 314 316 319 320 317 316 316 316 323 325 324 320 317 314 318 318 318 318 319 318 317 312 311 310 309 308 308 308 316 321 322 326 331 332 330 323 319 322 330
308 309 310 311 313 317 319 320 322 319 317 317 319 324 325 322 317 314 315 320 320 320 320 319 318 316 313 315 315 310 311 310 311 311 323 325 327 331 325 325 322 320 325
306 307 308 310 311 314 317 319 320 322 323 322 322 321 325 324 319 315 314 315 321 321 321 320 316 316 316 314 311 313 316 317 319 321 321 323 321 321 331 326 328 328 333
306 306 306 308 310 312 315 317 320 321 322 324 325 325 325 325 321 319 316 314 317 320 320 320 320 317 315 311 312 311 316 316 316 317 313 315 317 322 327 334 335 337 336
305 305 306 307 310 310 312 315 318 320 320 320 322 324 325 325 323 320 319 316 317 318 320 320 318 316 315 311 311 311 315 316 316 319 322 324 320 322 329 333 336 336 336
304 303 303 305 307 308 311 313 315 317 319 319 319 320 321 321 322 320 319 319 317 317 318 318 319 319 316 312 310 310 309 311 311 311 318 318 323 324 331 333 332 336 335
302 303 303 302 304 306 307 311 313 316 317 317 318 318 319 319 317 319 319 319 318 317 318 318 318 317 316 314 311 310 309 311 311 312 316 318 320 329 332 332 332 334 334
302 301 302 301 301 303 305 308 310 313 315 315 315 316 316 317 318 315 314 314 315 315 317 318 317 316 315 314 310 309 310 310 312 317 317 317 328 331 332 331 330 331 333
300 300 300 300 300 303 304 305 307 310 312 313 314 315 315 315 315 316 314 313 311 312 313 314 314 313 311 312 311 310 312 316 317 317 315 329 330 331 331 329 328 331 331
299 300 300 300 301 302 302 303 304 306 309 311 312 313 314 315 315 315 315 315 314 312 311 312 313 314 314 314 315 315 317 319 318 317 324 329 328 330 327 326 329 329 331
298 298 299 299 301 301 302 302 302 302 306 308 310 311 313 313 313 313 312 313 313 314 313 312 313 313 314 315 315 316 317 319 318 321 329 328 329 328 327 328 329 331 330
298 299 298 299 300 301 301 302 302 302 302 304 306 308 309 310 310 310 310 310 309 309 309 311 312 312 313 314 315 316 317 320 321 325 329 328 328 328 329 329 330 330 330
297 297 298 298 299 300 301 302 303 303 303 303 303 304 305 306 307 308 308 308 309 308 309 311 312 313 314 315 316 317 319 321 322 328 328 328 326 325 328 329 329 329 328
297 297 297 298 298 298 299 300 301 303 304 304 305 305 304 305 305 306 307 308 309 310 310 311 313 313 314 315 316 318 319 322 324 325 327 328 327 327 328 328 328 328 328
298 299 298 298 298 298 298 299 300 300 301 304 305 306 306 306 305 305 306 307 308 310 310 311 311 312 314 314 317 318 322 322 325 326 328 327 327 327 327 327 328 327 327
300 298 298 298 297 297 298 298 299 300 301 301 303 304 305 306 306 307 307 307 308 309 310 311 312 312 313 316 318 319 324 323 326 326 327 328 327 327 326 326 327 327 327
304 305 306 304 305 302 300 299 300 300 301 302 304 305 305 305 306 307 307 307 308 309 310 311 314 315 313 316 318 321 322 324 326 326 326 327 327 326 326 327 327 327 327
311 312 311 310 308 305 306 303 300 301 302 303 304 305 305 306 306 307 308 309 309 308 309 312 311 314 317 319 320 320 323 327 326 327 327 326 327 327 326 327 327 327 326
317 313 314 311 308 306 305 304 303 303 304 305 306 306 306 307 307 308 308 309 309 310 311 312 314 317 317 320 322 324 327 326 326 327 326 326 326 326 326 326 326 325 323
318 315 314 315 311 309 308 308 308 308 308 308 308 308 308 308 309 310 311 311 312 313 314 316 317 318 323 325 326 327 325 324 327 326 326 325 326 326 325 323 323 324 324
317 316 316 315 315 315 312 310 310 309 311 312 311 310 311 311 312 313 314 315 316 316 317 318 323 325 326 327 327 326 327 327 326 326 325 326 325 323 322 323 323 323 323

GFSGL_850_thetae_102.txt.gz
Theta_e
319 320 321 322 324 324 326 328 331 331 334 331 336 334 340 338 337 336 335 337 335 326 333 336 336 338 339 338 338 337 338 335 334 334 333 332 331 330 326 326 325 323 323
318 318 318 318 321 323 324 324 326 328 330 331 332 334 339 338 336 333 323 336 331 328 329 332 336 336 335 332 332 337 334 333 333 334 332 332 331 328 324 324 322 322 324
315 315 315 316 317 318 320 321 320 322 325 327 326 325 327 334 336 333 325 325 321 333 335 335 334 332 332 334 335 332 328 329 332 332 332 330 328 323 323 322 322 322 329
315 314 314 313 313 314 317 316 317 318 320 322 323 318 317 332 335 334 333 335 334 333 333 333 333 330 327 331 331 329 330 331 331 331 329 328 327 323 324 325 326 327 330
314 314 313 312 312 312 312 316 316 316 316 316 317 318 318 323 329 330 331 332 331 330 330 331 329 331 330 329 330 329 330 329 328 326 325 322 322 324 327 330 331 329 331
314 313 313 312 311 311 311 312 316 314 315 315 317 317 318 316 324 327 328 327 327 328 329 330 330 330 327 326 326 324 321 317 314 311 310 311 313 317 320 325 327 330 331
314 313 312 312 311 311 311 310 311 315 315 314 315 314 317 316 320 320 322 324 324 324 324 325 324 320 317 315 312 310 310 310 310 314 314 313 314 313 315 314 316 324 328
312 312 312 311 310 310 309 310 310 311 315 315 315 316 317 317 319 321 321 321 320 321 322 321 318 319 317 316 316 317 313 315 317 319 317 314 313 312 317 318 321 325 323
311 310 310 310 309 309 309 309 309 310 312 316 316 318 316 316 317 317 320 318 319 320 319 320 318 321 319 317 318 318 315 313 314 317 317 316 311 309 310 312 320 320 314
309 309 309 308 308 308 308 308 308 309 312 314 316 318 319 316 317 317 319 315 318 322 320 321 321 319 321 319 318 318 316 314 315 315 313 311 311 310 312 317 318 321 323
305 306 306 306 307 308 307 307 307 308 308 311 315 317 319 320 318 319 317 316 315 321 323 322 323 322 323 323 322 319 317 317 313 313 313 312 313 312 316 318 320 322 325
302 302 305 306 305 307 307 307 306 306 306 307 310 315 318 320 320 319 320 320 317 317 323 323 322 321 321 321 320 319 319 318 316 316 315 313 314 315 318 321 321 322 321
300 300 302 305 305 306 306 306 306 305 305 305 307 311 316 320 321 321 320 320 318 316 320 318 319 321 321 320 320 320 319 318 317 317 315 315 317 320 321 320 318 326 330
298 300 301 302 304 304 304 304 305 306 305 306 306 310 313 318 320 321 320 320 321 319 318 321 320 320 320 320 320 319 318 318 318 316 316 317 317 321 321 320 325 331 333
297 299 299 301 302 302 302 302 303 304 305 305 307 310 312 317 319 318 321 319 320 320 320 319 320 320 319 319 319 318 318 318 317 318 318 319 321 320 320 325 328 332 332
296 297 299 299 302 302 302 302 302 303 304 304 305 309 313 315 313 314 321 320 319 319 319 320 320 320 320 320 319 319 318 317 318 318 319 319 319 320 320 327 329 330 329
296 297 298 299 299 300 301 301 302 302 302 302 303 305 309 310 310 309 317 319 319 317 317 316 316 318 319 319 318 318 318 318 318 317 318 319 320 319 321 327 329 327 326
295 295 297 298 299 299 300 300 301 301 302 304 303 303 305 307 309 309 309 317 319 317 317 316 316 317 317 317 318 317 317 316 316 316 317 318 319 320 323 327 327 327 325
295 295 296 296 298 298 298 301 301 301 302 303 304 304 304 305 307 309 308 309 315 317 317 316 317 317 317 316 315 315 315 316 316 317 318 320 320 320 326 327 327 325 322
300 298 296 295 296 297 297 298 299 300 301 302 303 303 305 305 306 308 308 308 311 314 315 315 315 314 314 313 313 313 315 315 316 317 317 318 319 319 326 326 326 324 322
308 305 301 297 296 296 296 297 297 298 300 302 303 304 304 305 306 306 308 309 309 312 314 314 313 312 312 312 311 314 315 316 316 318 319 320 320 322 320 322 323 326 327
311 310 307 304 301 298 296 296 297 298 299 300 303 304 304 304 306 308 307 308 309 310 312 312 312 312 313 313 313 314 315 316 316 319 320 319 323 325 323 323 327 328 328
312 311 310 309 306 302 298 297 296 297 298 300 301 303 305 305 305 307 308 309 310 310 310 311 311 312 312 313 313 315 315 315 317 321 319 320 325 326 323 326 327 328 327
313 312 311 308 305 303 301 298 297 298 298 300 301 302 303 306 307 307 307 308 309 309 309 309 309 309 312 313 313 315 316 316 318 320 320 324 327 323 326 326 328 327 326
313 312 312 309 307 303 301 300 299 300 300 302 302 302 303 305 306 306 307 307 308 309 308 308 309 311 312 312 312 312 314 315 317 321 322 325 324 323 327 327 327 326 324
313 312 312 311 309 307 305 304 303 303 303 304 304 305 305 305 305 306 308 308 309 309 310 310 310 311 311 312 313 313 316 319 318 321 325 325 325 326 327 327 326 326 323

GFSGL_850_thetae_105.txt.gz
Theta_e
318 319 319 319 318 318 318 321 322 321 322 324 327 328 330 330 331 333 333 333 325 324 336 337 335 333 331 327 332 332 333 334 335 335 332 333 333 333 332 331 331 329 324
318 317 317 317 316 316 317 317 317 317 316 316 318 320 323 324 327 327 329 332 329 327 333 332 325 324 325 324 327 330 330 336 334 329 328 328 332 333 332 330 327 321 321
317 317 316 315 314 314 314 314 314 314 314 314 314 315 318 320 321 322 323 322 329 329 332 331 325 324 327 324 329 330 329 334 335 332 332 329 329 330 328 325 322 322 324
316 316 315 314 314 314 314 313 311 310 311 312 313 314 314 316 316 316 319 318 318 319 329 327 324 321 325 329 330 330 334 334 332 330 329 329 325 323 324 327 328 326 329
316 315 315 314 314 314 313 312 312 311 310 310 309 312 314 315 316 316 316 315 317 320 319 324 323 321 330 330 329 331 332 331 330 330 329 328 328 327 327 324 323 326 326
315 315 314 314 314 313 313 312 312 311 311 310 310 312 314 315 314 315 316 317 323 326 325 323 329 330 329 327 328 330 329 329 328 326 325 323 320 316 313 313 311 311 314
313 313 313 313 313 313 313 312 311 311 310 310 310 310 312 315 315 317 316 318 323 325 330 329 329 328 326 329 328 328 325 317 311 309 309 309 310 311 310 309 312 315 318
312 311 312 312 312 312 312 311 311 310 309 309 309 310 311 314 316 317 316 320 319 317 324 326 326 326 324 321 321 315 310 310 310 309 310 312 311 311 309 309 310 309 309
310 310 310 310 310 310 310 310 309 309 307 309 308 309 311 314 317 317 319 320 322 322 322 322 321 318 316 314 311 311 310 312 312 313 313 313 312 311 311 311 312 316 316
306 306 306 306 306 307 307 308 308 308 307 308 308 308 311 314 317 317 316 318 319 318 320 320 317 318 319 317 313 313 313 313 314 314 314 314 313 312 313 314 316 318 319
303 301 301 302 303 305 306 305 306 308 308 308 306 307 308 310 316 318 316 316 318 318 320 319 319 319 320 318 319 318 316 316 316 316 315 315 315 314 315 316 319 320 321
298 298 299 299 300 303 302 304 306 308 307 307 307 307 307 308 314 318 317 317 317 318 319 318 321 321 320 321 319 318 318 318 318 318 317 317 316 315 317 319 321 321 321
296 296 297 298 299 301 302 306 305 306 307 306 306 306 305 306 310 316 319 318 318 318 318 318 318 319 322 320 320 319 319 319 319 318 318 318 316 317 317 318 320 320 322
295 295 296 296 299 299 300 303 304 305 306 305 305 305 305 305 309 312 318 320 320 319 317 317 321 321 321 321 321 320 320 320 319 319 318 317 317 318 319 320 320 322 326
294 295 295 296 297 299 300 302 304 305 303 303 305 306 306 307 311 311 316 319 320 320 319 317 317 320 319 319 319 321 320 320 319 318 317 317 318 318 320 321 319 323 327
294 295 295 296 298 299 300 302 301 303 302 303 304 305 306 308 310 312 314 318 320 320 319 317 316 319 319 320 319 319 319 318 318 317 317 318 318 319 320 319 318 326 327
294 295 295 295 297 298 299 300 301 302 302 302 302 304 304 305 306 309 314 315 315 318 320 319 318 318 319 319 319 320 319 319 317 318 318 318 317 319 318 319 320 327 327
298 297 295 295 296 297 299 299 301 301 301 301 302 302 303 303 304 309 308 314 315 318 319 319 319 319 319 319 320 320 318 318 317 317 317 315 317 318 319 319 322 326 325
303 302 300 296 295 296 297 299 299 300 300 301 302 303 304 303 304 308 310 308 314 318 319 317 316 316 316 318 318 318 318 317 317 317 316 318 318 319 319 318 322 326 325
309 308 304 301 298 296 296 298 299 299 301 301 302 303 304 304 303 305 310 309 309 316 317 316 315 316 316 317 317 316 316 316 313 314 315 316 317 317 319 319 323 326 325
310 309 308 304 302 298 296 296 297 298 299 301 302 302 304 305 305 305 308 310 310 314 316 317 316 317 317 317 317 316 314 312 313 316 318 318 318 318 320 321 322 323 324
311 311 310 307 304 300 298 296 296 296 297 299 301 303 303 303 306 306 306 308 310 312 315 315 315 315 314 313 312 313 311 314 315 316 316 316 317 319 319 322 321 320 320
311 311 308 305 304 300 299 296 296 296 297 298 300 302 304 304 304 307 307 308 310 311 312 313 313 313 312 314 313 313 313 314 314 315 315 316 320 320 321 325 323 324 326
311 311 308 305 303 301 299 297 297 296 297 299 300 301 303 305 305 306 308 308 308 310 311 312 313 312 312 312 313 313 312 314 316 316 315 318 320 323 325 324 325 325 326
311 310 309 306 304 302 300 299 298 298 298 299 300 300 302 304 306 307 306 308 309 310 310 311 311 312 312 312 312 311 310 311 315 316 315 317 321 325 324 324 324 326 325
310 309 309 308 306 305 303 302 302 302 301 302 302 302 303 303 306 306 306 306 308 309 310 310 310 311 311 311 311 309 311 312 312 313 314 317 322 325 323 325 326 326 325

GFSGL_850_thetae_108.txt.gz
Theta_e
317 317 318 318 317 317 316 316 315 313 312 312 311 311 312 312 314 316 319 323 326 327 329 329 329 329 327 330 333 330 329 331 328 326 331 332 334 333 331 331 332 331 330
316 316 318 318 317 317 317 316 315 314 314 313 311 309 309 309 311 312 315 316 317 322 324 328 326 328 333 332 331 324 325 325 325 329 330 330 332 330 327 325 330 331 328
316 318 318 317 316 316 316 315 315 314 314 313 312 311 310 309 308 311 314 316 316 317 318 321 329 329 329 329 326 322 322 324 325 328 329 330 332 329 328 330 330 326 322
316 317 317 316 316 316 315 315 314 314 314 313 312 312 310 310 309 309 314 314 314 315 315 315 315 319 324 328 321 322 323 324 324 329 329 331 328 325 327 326 326 324 323
314 314 315 315 315 315 315 314 313 313 313 312 312 311 311 310 309 309 311 315 315 316 315 316 318 317 318 324 322 321 321 324 328 329 329 330 328 326 322 324 326 324 321
312 312 312 312 312 312 313 313 313 313 313 312 312 312 311 310 309 309 309 315 315 317 316 316 317 320 322 323 323 322 324 329 329 329 329 327 329 326 324 323 321 317 311
310 310 310 310 311 311 312 312 313 313 312 312 311 311 311 310 310 309 310 315 316 317 318 317 318 321 326 324 323 322 327 328 328 327 328 325 324 318 313 310 309 308 308
310 310 310 309 309 310 310 311 311 311 311 311 310 310 309 309 308 308 309 315 317 317 319 318 323 321 323 323 323 327 326 328 326 319 313 310 310 310 309 309 310 309 311
307 306 305 305 305 305 306 306 307 309 309 310 309 309 308 307 308 309 309 315 317 319 321 321 322 324 325 324 323 324 322 314 309 309 310 310 311 312 312 312 312 312 314
304 303 303 302 302 302 302 303 304 305 305 306 307 307 307 307 308 308 310 316 317 318 321 320 318 320 323 323 322 324 312 310 311 313 314 313 313 314 313 314 314 317 318
301 301 300 299 299 299 299 300 301 302 303 305 306 307 307 308 307 307 310 312 318 318 320 320 319 319 317 314 312 310 311 313 314 314 314 314 315 316 315 316 316 317 319
299 298 298 298 297 297 298 299 301 301 301 304 307 306 307 307 306 307 307 310 317 316 318 320 319 319 316 315 314 315 316 317 317 317 317 317 317 316 316 316 317 319 321
297 297 296 297 297 297 297 298 299 303 303 305 306 307 307 306 306 305 306 310 316 316 317 319 319 319 319 318 317 318 320 319 318 318 318 317 317 317 318 318 319 320 320
297 297 297 296 296 296 296 297 299 300 303 304 306 307 306 305 305 305 309 309 316 318 317 318 317 319 319 319 318 319 319 319 319 319 319 317 317 318 318 318 320 320 319
296 296 296 296 296 296 296 297 299 301 303 305 305 306 304 305 306 308 310 309 315 319 319 318 319 319 318 320 319 320 320 321 320 319 318 316 317 318 319 319 320 319 321
297 297 296 295 295 296 296 298 300 300 302 304 304 305 305 306 306 308 312 309 313 318 319 318 317 318 318 319 319 319 319 320 320 319 318 317 318 317 317 319 320 318 325
296 297 298 298 295 296 296 297 298 301 302 302 302 303 304 305 306 308 307 312 314 317 319 319 316 317 320 320 320 319 319 319 319 319 317 318 317 316 315 319 319 319 326
300 303 301 301 299 296 295 296 299 299 300 302 301 301 304 304 305 307 307 312 315 315 317 319 318 317 316 319 319 318 318 318 319 317 317 317 317 316 319 320 318 318 324
305 307 307 304 301 298 296 296 298 299 301 301 302 301 302 302 304 304 307 308 312 314 315 319 319 318 318 316 318 318 319 319 318 318 317 317 316 317 317 318 318 319 323
309 309 307 305 303 299 297 296 297 299 299 301 301 302 304 303 303 303 307 309 311 314 317 318 318 318 318 318 318 319 318 317 317 317 315 314 315 315 317 318 320 319 323
309 309 306 305 303 300 298 296 297 298 299 301 301 302 303 304 304 304 307 309 309 314 317 317 316 317 317 317 318 317 317 316 316 314 312 316 317 317 318 319 319 321 323
308 307 305 304 302 300 298 296 296 297 298 300 302 303 304 303 304 303 306 309 310 312 317 316 316 316 316 316 316 316 316 313 312 314 315 315 316 318 320 320 320 323 322
308 307 305 302 301 299 297 296 296 296 297 298 300 303 303 304 304 305 305 307 310 312 314 315 316 316 316 315 315 313 312 312 312 313 314 315 315 315 318 320 321 323 323
308 307 306 302 300 299 297 296 296 296 297 298 300 302 304 304 304 306 306 306 310 312 312 313 315 314 314 314 313 313 313 313 311 311 315 316 315 315 320 323 323 324 324
308 307 306 305 302 301 300 298 297 297 298 300 300 302 303 305 304 306 307 307 310 311 312 312 312 311 312 313 313 313 313 312 312 310 310 315 315 315 318 324 321 324 324
305 305 305 305 304 303 302 301 301 300 300 301 301 301 301 303 305 305 306 307 308 308 311 312 312 311 312 312 312 312 312 312 310 309 310 312 314 314 318 323 323 322 324

GFSGL_850_thetae_111.txt.gz
Theta_e
316 317 317 316 316 316 316 316 316 316 316 315 314 314 314 313 312 310 309 308 310 315 318 318 322 323 327 328 328 327 324 329 330 330 329 329 329 330 332 333 333 332 331
317 317 316 316 317 317 317 315 316 316 316 315 314 314 313 313 313 312 311 311 310 308 313 316 316 319 323 328 328 328 328 329 328 328 328 327 324 327 329 333 333 331 329
316 316 316 318 318 318 317 317 316 316 316 315 314 314 313 313 312 312 311 311 311 309 309 312 315 315 318 320 327 330 327 326 325 324 324 325 324 325 330 330 331 327 328
315 315 316 317 317 318 317 317 316 316 315 314 314 314 313 312 312 312 311 311 311 310 309 311 313 314 315 314 318 325 328 326 324 322 322 324 323 326 330 330 329 327 329
313 313 313 313 313 312 312 313 314 314 314 314 313 313 312 312 312 312 311 311 311 310 309 310 314 314 315 315 317 319 322 323 324 322 323 324 324 327 330 330 326 326 324
310 310 310 309 309 309 309 310 310 311 311 311 312 313 313 312 311 311 311 311 310 309 309 310 315 316 316 316 315 316 316 318 323 322 324 324 325 327 328 327 323 324 323
308 309 309 309 309 308 308 308 308 309 311 311 312 312 312 312 311 310 310 310 308 307 308 311 316 316 316 318 318 317 317 321 323 323 323 324 326 326 328 326 323 319 312
308 308 307 306 305 305 305 305 305 306 306 306 308 310 311 310 310 310 310 309 308 307 309 311 316 317 318 319 319 321 317 324 323 324 326 325 320 325 325 318 311 309 308
305 303 303 305 305 304 303 303 303 303 305 306 306 308 309 309 309 309 309 308 307 308 310 314 317 317 320 320 322 320 321 325 325 326 324 323 322 313 309 309 311 312 311
303 304 303 303 302 301 302 302 301 301 301 302 304 305 305 305 306 306 306 308 308 308 311 317 317 317 321 321 319 322 324 324 324 321 315 311 310 311 312 313 314 313 315
303 303 302 301 300 299 299 299 299 299 299 301 303 303 304 305 306 307 308 308 307 309 309 315 316 316 321 321 323 323 323 321 315 311 311 313 314 315 315 314 315 316 317
299 299 300 299 298 298 297 297 297 298 299 300 301 302 303 305 306 306 307 306 307 308 310 316 317 320 317 320 320 319 314 312 313 314 314 315 316 316 315 316 316 318 318
298 299 298 298 298 297 297 297 297 297 297 300 303 303 304 306 306 307 306 306 308 307 312 317 317 318 317 317 314 313 313 314 315 315 317 317 317 316 317 317 318 318 318
297 297 298 298 299 298 298 298 296 297 297 300 301 304 306 306 307 306 305 306 307 309 314 317 318 316 313 315 315 316 316 317 317 317 318 318 317 317 317 318 318 319 318
296 299 299 300 300 300 297 297 296 297 298 300 302 304 305 306 305 305 305 307 309 311 315 317 318 315 316 318 319 320 319 319 318 318 318 317 316 317 317 318 318 319 319
298 300 300 299 299 299 298 297 297 297 298 300 301 304 305 305 306 306 309 311 308 312 310 318 318 317 319 318 319 319 319 319 319 319 319 318 317 317 316 317 318 318 321
298 300 300 300 300 300 299 296 296 297 299 300 301 302 305 305 306 306 307 309 308 308 313 318 318 318 318 318 318 318 319 319 320 320 319 317 317 317 315 318 319 318 319
302 303 302 304 304 301 299 297 296 296 299 301 301 302 303 304 304 305 306 307 307 310 316 318 317 318 318 318 319 319 319 319 319 318 319 317 317 316 317 318 319 318 319
305 306 305 305 304 301 298 297 296 296 299 300 302 302 302 303 302 304 304 305 309 311 316 318 318 318 317 318 319 319 319 318 318 319 318 317 316 315 316 318 319 319 319
307 306 304 304 303 301 299 297 296 296 299 300 301 301 301 301 302 303 304 304 309 310 315 318 319 317 316 317 318 318 318 318 319 318 316 316 314 315 315 318 319 319 319
306 305 303 302 302 300 298 296 295 297 299 300 301 301 302 303 302 302 303 303 306 309 315 317 318 319 318 317 318 318 318 318 317 316 316 312 316 317 317 318 319 319 321
305 303 302 301 299 298 297 295 296 297 298 300 301 301 303 304 304 303 302 303 307 310 314 316 317 317 317 317 318 317 316 316 316 316 314 315 315 315 316 317 319 320 321
305 305 303 301 299 298 296 296 296 297 297 301 301 303 304 304 304 304 303 304 308 309 313 316 317 316 316 316 316 316 315 312 311 313 312 314 314 314 316 318 320 320 321
304 304 303 302 300 299 297 296 296 296 297 300 302 303 303 304 305 304 303 305 309 310 312 316 316 316 315 315 316 315 312 312 312 311 311 310 313 315 315 316 322 324 323
301 302 303 303 302 300 299 298 297 298 298 299 301 302 304 304 304 305 305 306 308 310 310 314 316 315 314 315 314 313 313 313 312 312 312 311 309 311 314 314 322 321 322
300 300 301 302 302 302 301 300 299 299 300 300 300 302 303 304 303 305 306 306 308 310 311 311 312 313 313 313 313 313 313 312 312 312 311 310 309 311 312 313 323 322 321

GFSGL_850_thetae_114.txt.gz
Theta_e
316 316 316 316 317 317 316 316 317 317 316 315 315 315 315 315 313 313 313 313 313 313 311 309 309 313 316 318 320 326 328 328 327 329 327 326 329 330 330 331 330 332 332
317 317 317 317 317 317 318 318 318 318 317 316 316 316 316 316 314 313 313 313 312 312 312 312 310 309 312 316 317 322 327 328 328 327 327 328 328 329 329 328 330 331 333
315 315 316 316 317 317 318 318 318 318 318 318 317 318 318 317 315 314 313 312 312 312 312 312 312 311 310 309 314 318 324 327 328 328 328 329 328 329 327 327 326 328 329
313 313 314 314 314 314 314 315 315 315 315 316 316 315 315 316 314 313 313 312 312 311 312 311 311 310 309 308 312 314 315 320 324 327 326 326 323 323 324 325 326 327 328
311 311 311 311 311 311 311 311 310 310 310 310 311 312 313 313 313 313 312 312 312 311 311 311 311 310 308 308 313 314 314 315 318 323 326 322 324 324 322 324 325 327 328
308 308 308 307 307 307 307 307 307 307 308 308 308 308 309 310 310 311 312 311 311 311 310 310 310 310 309 308 310 315 315 316 319 324 322 323 323 324 324 325 325 327 329
307 307 307 306 305 304 303 304 305 306 307 308 307 306 306 308 310 311 312 312 311 310 310 310 310 310 308 307 308 313 316 316 316 316 317 324 323 323 323 324 326 327 326
306 305 304 303 302 304 306 306 306 305 305 305 306 307 306 307 306 309 311 311 309 309 309 310 310 309 309 308 310 315 316 316 317 317 317 318 321 323 324 325 326 325 320
304 302 302 303 305 305 304 304 305 304 304 304 304 304 304 305 306 306 309 309 309 309 309 309 309 308 308 311 316 317 317 316 317 318 318 317 323 324 323 324 322 319 311
301 303 304 304 304 304 303 303 303 301 301 301 303 302 302 302 304 305 307 308 307 307 307 307 307 308 309 314 316 316 318 319 319 318 319 319 323 323 321 316 314 309 311
303 302 303 302 300 300 300 301 300 300 299 300 301 302 302 302 303 305 305 305 306 307 308 308 308 310 310 315 318 320 320 320 319 320 321 323 320 319 313 310 312 314 313
300 300 300 300 300 299 299 301 300 298 299 299 298 298 300 301 303 302 303 305 307 307 307 308 309 311 316 317 317 320 319 320 321 321 319 316 313 313 313 314 314 315 317
298 298 298 299 299 300 299 299 297 297 297 297 297 298 301 303 303 305 306 306 306 307 306 306 308 316 317 317 319 318 317 316 315 311 310 311 314 315 315 315 315 317 318
296 298 299 299 299 299 298 298 298 298 298 297 297 298 301 303 306 306 306 306 306 305 306 308 311 316 317 318 317 317 317 312 311 313 314 315 316 316 316 317 318 318 318
296 297 298 299 300 300 300 299 298 299 297 297 297 298 301 303 305 306 305 304 305 308 309 309 314 317 318 317 314 316 316 315 315 316 317 317 316 317 317 318 317 317 319
296 297 299 300 300 300 299 302 302 300 298 297 296 297 301 303 304 305 306 307 305 311 307 309 314 317 314 315 316 316 316 317 318 318 318 317 316 317 316 316 317 317 318
296 299 301 302 303 302 300 298 298 299 298 297 298 299 301 304 304 305 306 307 310 308 308 309 315 316 313 316 317 318 317 318 319 319 319 318 317 317 315 316 317 316 318
300 303 302 303 303 302 300 298 296 296 296 297 300 300 302 304 304 305 305 305 307 308 310 311 316 317 316 318 317 318 318 319 319 320 319 318 317 316 315 317 317 317 318
302 304 303 302 301 301 299 298 297 296 296 299 300 301 303 303 304 304 303 304 306 308 308 313 316 317 317 317 317 318 318 319 319 318 318 317 316 316 316 317 317 318 319
304 303 301 300 299 300 299 297 296 295 296 299 300 301 302 302 303 302 303 303 306 306 309 314 316 317 317 317 318 318 318 318 318 318 318 317 316 315 314 315 318 318 319
302 303 301 299 298 297 297 295 295 296 298 300 301 301 301 301 301 301 302 302 306 307 309 316 317 317 318 318 319 318 318 318 318 317 316 316 312 316 316 317 318 319 319
302 302 301 300 298 297 296 295 296 297 298 300 301 301 302 303 303 302 302 302 306 307 309 315 317 317 316 317 317 317 317 318 317 316 316 315 314 316 316 316 316 318 320
301 302 302 301 298 297 296 296 296 297 298 300 301 302 303 304 304 303 303 304 306 308 310 313 317 318 317 317 318 318 317 316 316 314 314 314 314 314 314 315 316 319 321
300 301 301 301 300 298 296 296 296 297 298 300 301 303 303 304 304 304 303 305 306 309 312 315 317 317 318 317 315 315 313 312 311 311 312 312 311 309 311 314 315 315 321
299 300 301 302 301 300 298 298 298 299 299 301 302 303 303 304 304 305 304 304 308 313 315 315 316 315 315 315 315 314 312 312 312 312 312 312 310 310 309 312 313 317 321
298 299 300 301 301 301 301 300 299 300 300 300 302 303 303 304 304 305 306 306 308 314 313 315 315 314 314 314 314 313 313 312 312 312 312 312 310 309 310 312 313 322 321

GFSGL_850_thetae_117.txt.gz
Theta_e
318 318 318 317 317 316 317 317 317 317 318 318 318 317 316 316 316 316 315 314 314 314 313 313 313 313 313 310 309 315 322 324 326 329 328 330 330 328 328 329 329 329 327
318 317 317 317 317 317 317 317 318 317 318 318 319 319 318 317 317 317 317 316 315 313 313 313 313 313 313 312 311 311 316 317 322 324 328 330 330 327 327 328 329 329 329
314 314 314 315 315 315 315 316 316 317 318 318 318 318 318 318 317 317 318 318 316 314 313 313 312 312 312 312 311 315 318 320 319 322 326 327 330 330 330 330 329 329 328
313 312 312 312 312 313 313 313 313 313 313 314 315 315 315 315 315 316 316 316 317 316 313 312 312 312 312 312 311 310 314 317 318 318 327 326 326 328 329 329 329 328 327
310 309 309 309 308 308 309 309 309 309 310 310 310 310 310 310 310 312 312 314 315 315 313 312 312 312 312 311 312 312 311 313 317 319 321 324 326 327 327 327 327 328 328
308 308 307 307 306 306 306 305 305 305 304 304 304 304 304 304 306 306 307 309 313 314 314 313 312 311 311 310 311 311 310 309 313 316 319 319 321 323 326 325 327 326 328
307 306 306 305 304 304 303 302 303 304 305 307 308 309 309 309 309 309 307 306 307 311 312 313 313 314 312 310 310 310 310 310 308 309 315 319 319 320 322 321 324 324 327
305 305 304 303 302 302 303 304 305 306 306 307 307 307 307 308 308 308 308 307 307 308 309 311 313 313 312 312 312 313 312 312 312 309 311 315 318 319 319 320 322 324 325
303 302 301 301 302 303 303 303 303 303 302 303 303 304 304 306 306 306 305 306 307 308 309 311 312 310 309 309 310 311 310 310 309 311 315 316 316 316 316 318 322 324 324
300 301 302 302 301 300 300 300 300 300 301 300 301 302 302 304 306 306 304 305 307 308 308 308 309 308 309 309 308 308 308 309 309 313 318 318 317 317 318 319 323 324 320
300 300 300 299 299 298 299 299 298 298 299 300 299 300 301 303 304 305 303 302 303 305 306 307 308 308 308 307 308 310 310 311 313 317 316 318 316 317 319 323 324 320 319
298 297 297 297 298 298 299 299 299 299 299 299 299 301 303 303 301 302 302 303 303 303 304 306 308 308 308 309 309 310 315 316 316 316 316 317 318 319 322 320 312 311 312
297 298 298 299 300 300 299 300 300 300 299 299 299 300 302 300 301 303 303 304 305 305 305 306 307 306 306 308 314 314 316 318 319 317 318 319 319 321 316 313 314 314 315
298 298 298 299 300 301 300 301 300 300 299 299 299 298 298 299 300 304 305 306 306 306 306 306 306 306 308 314 314 315 317 318 318 318 319 319 316 313 312 314 315 316 317
297 299 299 299 300 301 302 301 300 300 298 297 297 297 297 298 302 303 304 305 305 307 306 307 308 309 313 313 312 314 314 315 315 314 313 312 313 316 315 316 317 318 319
297 299 299 300 301 301 301 302 302 299 298 297 297 296 296 297 302 303 305 305 307 305 306 309 308 310 315 315 314 315 316 316 315 315 315 315 316 316 317 317 317 317 321
297 298 299 300 301 301 300 299 298 299 297 297 297 297 297 299 302 304 304 306 308 308 309 309 310 311 315 315 316 316 315 317 318 318 316 316 317 317 316 317 317 318 322
297 299 299 301 300 299 299 298 297 296 296 297 297 299 300 301 302 304 304 305 306 308 309 309 310 313 314 315 317 316 317 318 319 319 317 317 317 316 315 318 318 322 323
297 299 300 300 299 298 298 298 297 296 296 297 300 300 301 302 303 304 304 304 304 307 308 311 311 315 314 315 317 317 318 319 319 319 318 317 316 316 316 318 320 320 321
299 300 301 300 299 297 297 296 296 296 296 299 300 301 301 303 303 304 304 303 304 307 308 310 314 316 315 317 317 318 319 318 319 318 317 316 316 316 318 320 321 321 320
299 300 300 300 298 297 296 296 296 298 299 300 301 301 301 303 303 303 303 302 303 306 309 312 315 316 317 317 318 319 319 318 318 317 317 316 314 315 316 318 321 321 322
299 300 300 300 298 297 296 297 297 298 299 300 301 301 301 302 303 302 302 302 305 306 310 314 315 316 318 319 319 319 319 318 318 316 316 316 315 318 318 321 322 322 321
298 300 300 300 298 297 297 297 297 298 299 300 302 303 303 304 304 303 302 303 306 307 308 315 316 317 318 318 318 317 318 317 316 316 315 319 319 319 319 319 320 321 320
299 300 300 300 299 298 298 298 299 299 300 301 302 303 304 304 305 303 305 307 307 309 312 315 317 317 317 316 317 317 317 316 314 316 316 315 314 310 314 313 315 316 316
298 299 300 300 300 299 299 299 299 300 300 301 302 304 304 304 305 304 304 306 310 312 314 317 317 317 317 317 316 314 313 312 312 312 312 312 312 312 315 316 316 313 313
298 298 299 300 300 300 301 301 300 300 300 301 301 302 303 305 305 306 306 307 311 312 314 316 317 317 315 314 313 312 311 312 312 312 312 312 312 313 314 316 312 310 317

GFSGL_850_thetae_120.txt.gz
Theta_e
322 320 319 318 318 318 317 317 317 317 317 321 326 327 327 326 326 321 317 318 320 320 317 318 319 318 319 318 318 318 318 318 318 319 322 324 326 328 331 333 335 335 334
318 318 318 318 317 317 317 317 317 318 319 323 324 324 326 326 326 326 325 323 321 320 320 320 319 319 318 318 319 319 319 319 320 321 320 321 323 326 330 331 331 335 334
317 317 318 317 316 315 315 315 314 316 318 319 320 322 323 323 323 324 325 325 324 323 320 319 319 318 318 317 317 317 317 317 316 317 319 321 321 324 327 329 329 332 334
315 315 315 315 314 313 312 312 312 313 314 314 315 316 317 318 319 320 321 322 323 323 323 321 320 319 318 318 317 317 318 317 316 316 316 318 320 321 325 328 329 331 332
313 313 313 312 312 312 312 310 310 309 309 311 312 312 313 313 314 315 317 318 318 319 320 321 320 319 318 317 317 317 317 316 314 314 315 316 318 321 323 327 328 329 329
312 311 311 311 310 310 310 310 309 309 309 309 309 310 310 310 309 309 309 310 312 313 315 316 317 318 319 317 315 314 313 314 314 313 314 314 315 321 321 321 325 325 327
310 310 309 309 309 308 308 307 307 308 308 309 309 310 310 311 311 311 310 310 310 311 312 312 313 314 315 316 316 315 314 311 310 311 313 313 313 314 319 322 323 324 325
308 308 307 307 306 306 306 306 307 308 308 309 309 310 310 310 310 309 308 308 309 310 310 312 313 314 314 313 314 315 315 315 313 312 313 315 316 315 314 320 322 322 323
306 306 305 304 304 305 305 306 307 307 307 307 307 307 307 307 306 306 304 304 305 306 308 310 311 313 313 313 312 315 315 315 314 314 313 313 312 311 310 317 320 321 320
304 304 304 304 304 305 305 305 304 303 303 303 303 303 303 302 302 304 302 303 304 307 308 310 309 310 312 313 313 313 313 312 312 312 313 312 313 312 310 316 318 319 318
303 303 303 303 303 302 301 300 300 300 299 300 301 302 302 302 304 304 304 303 303 305 306 307 307 308 308 309 309 309 309 309 310 311 311 313 315 315 317 317 317 318 318
302 301 301 300 299 299 299 300 300 300 300 300 299 300 302 302 303 303 302 302 302 303 304 305 305 306 307 308 309 309 309 309 310 311 313 312 313 315 318 318 318 319 321
297 296 299 299 300 300 299 300 299 299 298 298 298 298 301 301 302 303 302 303 304 304 304 305 306 307 307 307 307 306 306 307 308 308 309 311 315 317 317 318 319 319 315
297 297 298 298 298 299 299 300 301 300 299 298 297 297 298 299 301 301 302 304 305 306 306 306 306 306 307 308 307 313 314 315 315 315 314 314 316 316 318 319 316 313 316
295 295 295 296 298 300 301 301 301 301 298 296 297 296 297 298 299 299 302 303 305 305 306 309 310 310 311 310 312 315 315 317 319 318 317 317 318 319 319 314 315 317 316
292 293 295 297 299 300 300 300 300 300 298 297 298 297 297 298 298 299 302 304 306 308 306 308 309 311 311 313 312 315 313 317 319 319 319 319 317 316 315 315 314 313 319
293 295 297 299 300 300 299 299 299 300 298 297 297 297 298 298 298 300 303 304 306 308 306 307 309 310 314 312 312 315 314 314 315 315 317 317 318 318 318 319 319 321 321
295 297 297 298 300 299 299 298 297 298 297 297 298 298 299 299 300 302 304 305 306 308 309 310 311 313 313 314 314 315 318 319 319 319 318 320 320 319 319 320 321 321 323
295 297 298 300 300 299 298 297 297 296 296 298 300 301 301 301 302 304 304 305 306 307 308 310 310 315 316 316 316 317 320 320 320 320 320 320 319 319 320 321 321 322 323
297 298 299 300 299 298 297 297 297 298 299 300 300 301 302 303 303 304 305 307 305 305 308 309 311 316 315 316 317 318 318 320 322 321 320 320 320 320 320 321 321 320 321
298 299 300 299 298 298 298 297 298 299 300 301 301 301 302 304 305 305 306 306 303 306 308 310 312 317 317 320 319 320 320 322 321 321 320 320 320 319 320 321 321 321 321
298 299 300 299 298 297 297 298 298 299 300 301 302 303 302 304 305 306 306 304 302 307 308 310 314 318 319 317 320 321 321 321 321 320 320 319 320 320 320 320 321 321 322
299 300 300 300 298 298 298 299 299 300 301 302 302 303 304 306 306 305 305 302 306 306 309 314 316 319 320 321 321 321 321 320 321 321 321 321 320 321 321 320 320 319 321
299 300 300 299 299 299 299 299 300 300 301 302 303 305 305 307 305 303 304 307 307 309 312 314 316 319 320 321 320 320 320 320 321 321 320 319 318 315 317 318 319 320 320
298 299 300 300 300 299 299 299 300 301 302 302 303 304 306 306 305 305 305 307 310 313 314 315 317 319 320 320 318 318 317 318 318 317 316 316 316 316 316 316 318 318 319
297 297 298 299 299 299 300 300 300 301 301 301 302 303 305 306 306 306 307 309 311 315 317 317 318 319 319 318 318 316 314 313 312 315 316 316 316 316 316 316 318 318 318

GFSGL_850_thetae_126.txt.gz
Theta_e
330 331 331 331 330 330 330 330 329 327 327 327 328 331 331 331 330 330 329 327 325 325 325 324 324 323 321 323 322 320 320 321 321 321 319 317 318 317 318 320 322 323 322
324 325 326 326 327 326 326 326 324 323 323 322 323 324 327 328 328 329 329 329 328 328 327 326 325 323 323 322 322 322 322 321 321 320 320 320 319 322 320 318 315 315 318
322 321 322 322 322 322 322 320 319 317 317 317 317 319 320 322 325 326 326 326 327 328 327 327 326 325 325 324 326 325 324 324 325 325 324 324 324 320 318 317 317 320 322
320 319 319 319 319 318 317 317 317 316 317 317 317 318 318 319 320 320 321 321 322 323 324 325 325 324 325 325 324 323 323 322 322 322 322 322 322 320 319 317 321 321 323
319 318 318 317 317 317 316 316 316 316 315 314 314 315 315 315 315 316 316 316 317 318 319 320 321 322 322 322 322 321 320 320 320 322 322 322 322 322 319 318 316 315 318
317 316 316 315 314 314 314 313 313 313 313 313 313 313 312 312 313 313 313 313 313 313 313 312 313 314 318 320 321 320 319 320 322 321 321 321 320 320 320 318 316 315 314
315 314 313 313 312 312 311 311 310 310 310 310 310 309 310 310 311 312 313 312 312 312 312 312 312 312 313 314 314 314 313 313 314 316 320 320 320 319 318 318 317 315 314
313 312 311 310 309 309 308 308 308 308 308 309 310 311 311 311 312 312 312 311 311 311 311 311 310 310 309 309 310 311 314 315 316 317 316 317 319 318 318 317 316 315 314
312 310 309 308 308 307 307 307 308 308 308 308 309 308 307 307 307 307 306 307 307 307 308 308 308 307 307 308 309 309 310 312 312 313 315 317 317 317 317 316 316 315 314
309 308 307 307 306 307 307 307 307 306 306 305 304 305 304 304 305 305 304 304 304 305 306 306 306 306 306 307 307 308 309 311 312 313 314 315 315 315 315 314 315 314 315
307 306 306 305 305 304 304 304 303 302 302 303 304 305 305 306 306 306 305 304 304 303 303 305 305 305 305 306 308 309 309 308 309 310 312 314 314 315 315 316 315 315 314
305 304 303 301 301 301 299 299 299 300 300 302 303 304 305 305 304 303 302 301 302 302 303 303 303 303 303 304 305 306 306 306 306 307 309 311 313 315 315 315 314 314 313
302 301 300 299 299 298 297 297 297 298 297 298 299 300 299 300 300 300 300 300 302 303 303 303 303 303 304 306 305 305 305 305 306 306 307 309 309 310 310 312 313 313 313
299 298 298 297 296 295 295 295 297 298 299 299 299 298 298 298 298 298 298 300 301 301 302 302 303 303 305 306 307 308 307 307 307 307 307 308 309 310 310 310 312 314 314
298 296 295 295 295 296 297 298 299 299 299 298 298 298 298 298 298 297 297 298 299 301 300 301 304 305 306 306 307 310 310 310 308 309 309 309 310 311 312 312 313 315 317
294 295 295 296 297 298 299 299 299 298 299 298 298 298 297 297 297 297 297 298 299 299 300 304 306 307 308 309 309 312 311 311 312 312 312 313 312 311 310 313 314 313 319
295 296 297 297 297 298 299 298 298 299 299 300 300 300 300 300 300 299 298 300 303 304 305 307 307 308 309 311 311 313 314 314 316 315 316 315 313 314 314 311 313 314 319
296 297 297 298 299 299 299 299 299 299 300 301 302 302 302 301 301 301 302 304 305 307 307 307 307 308 310 313 313 314 314 316 318 315 316 316 315 314 314 314 316 316 318
298 298 298 299 299 299 299 299 299 301 301 302 303 303 304 304 305 305 304 305 306 307 305 304 309 310 313 313 314 315 315 317 318 318 316 316 315 315 316 317 318 318 317
299 298 299 298 298 299 299 300 301 302 301 302 303 304 303 304 305 306 307 307 307 307 305 308 309 311 314 314 314 314 318 318 318 318 316 318 318 318 317 317 317 317 318
299 299 298 298 298 299 300 301 301 301 302 302 303 303 304 305 307 307 307 308 307 306 307 310 312 315 315 315 318 316 315 320 323 321 320 317 315 317 318 318 316 317 319
299 299 300 299 299 299 300 300 301 302 302 302 303 305 306 307 308 307 307 307 305 307 310 311 313 316 317 315 314 319 320 321 320 318 319 322 321 321 321 320 320 320 320
298 299 300 301 300 300 300 300 300 302 301 301 303 304 305 305 306 306 306 306 308 310 311 313 315 317 315 315 317 320 320 321 322 321 321 320 320 321 321 321 320 321 321
299 299 299 300 299 299 300 300 300 301 300 300 303 304 304 305 306 307 308 308 309 310 311 313 316 318 314 317 320 318 321 319 319 319 319 318 318 318 319 322 321 320 321
298 298 298 298 299 298 298 299 299 300 301 301 302 303 304 305 307 308 310 312 314 313 312 316 315 314 316 319 317 318 318 318 318 317 317 318 317 317 318 319 319 320 320
296 296 296 295 296 296 297 297 298 298 299 300 302 302 303 305 306 307 312 313 315 316 318 318 319 319 317 317 318 318 317 318 318 318 317 317 317 315 317 318 318 319 320

GFSGL_850_thetae_129.txt.gz
Theta_e
333 333 334 335 333 333 333 332 332 331 329 331 331 331 331 332 332 331 331 330 330 329 328 327 325 324 323 323 322 322 322 323 323 322 322 321 322 320 320 319 320 319 315
324 324 326 330 330 330 329 329 330 328 327 325 324 326 327 329 329 329 329 329 329 330 330 330 329 327 327 326 326 325 324 324 323 323 323 323 321 322 323 321 321 319 315
321 320 320 320 320 320 320 319 318 318 318 317 317 317 317 317 318 322 325 325 325 325 325 325 324 323 323 323 323 324 324 324 324 324 324 323 323 323 323 323 321 319 316
319 319 319 318 318 317 317 316 316 316 316 315 315 315 315 315 315 315 317 318 320 320 321 321 321 322 323 324 324 324 323 323 322 321 322 322 320 320 319 317 315 319 319
318 318 317 316 316 315 314 314 314 313 313 312 313 313 312 312 313 313 314 314 314 315 316 315 315 316 317 320 321 322 322 322 322 323 322 322 321 321 320 317 319 320 318
316 315 315 314 313 312 312 311 311 311 311 312 312 312 312 312 312 312 311 310 309 309 311 312 312 312 312 312 313 313 314 314 315 314 315 317 321 321 321 320 321 319 317
315 314 313 312 311 310 309 309 309 308 308 308 308 309 309 309 309 310 311 311 312 312 312 312 312 311 311 311 311 311 311 311 313 314 315 314 314 314 317 320 319 319 318
313 312 311 310 309 309 308 308 308 307 307 307 307 307 308 308 308 309 309 310 310 310 310 310 309 309 309 308 308 308 309 309 309 311 313 314 315 316 317 316 317 318 318
312 310 309 308 307 307 307 307 306 306 306 307 307 306 306 305 305 305 305 304 304 305 305 306 307 306 306 306 306 306 306 306 307 308 309 311 312 314 315 316 317 317 318
308 307 307 307 306 306 306 305 304 304 303 304 303 304 304 305 306 305 305 304 304 305 305 307 307 306 305 305 305 305 304 306 307 308 309 311 314 314 313 313 316 316 316
306 306 305 305 304 303 302 303 302 302 302 302 302 303 303 304 305 304 303 302 302 302 303 305 306 305 304 303 303 304 304 306 307 308 309 309 309 311 313 315 316 316 316
304 304 302 302 302 302 302 301 300 299 299 301 301 302 303 303 302 302 300 300 300 300 300 302 303 304 303 302 302 302 303 304 305 306 306 306 306 307 311 312 314 315 315
302 301 302 302 301 300 299 299 298 298 299 299 299 299 300 299 298 298 299 299 299 299 301 301 302 302 302 303 303 303 305 306 305 305 305 305 305 305 308 313 315 315 316
302 301 301 301 300 299 299 298 298 299 298 298 298 298 298 297 297 297 297 297 298 298 300 300 301 302 302 303 305 306 306 306 306 307 307 306 306 306 307 309 309 311 312
300 300 299 299 299 299 299 299 299 298 298 298 298 298 298 298 299 298 297 297 297 297 298 300 302 303 304 306 308 308 309 309 310 310 310 307 307 307 307 308 309 310 310
299 298 298 298 299 299 299 299 299 300 301 301 300 300 301 301 301 300 299 298 298 299 300 302 304 305 307 308 308 309 310 311 312 311 312 311 310 308 309 310 312 312 312
298 298 298 299 299 299 299 299 299 302 301 302 302 302 303 303 303 302 301 302 304 304 304 305 305 305 309 309 310 312 313 314 314 314 314 314 313 311 311 310 311 314 313
298 297 299 299 299 299 299 300 301 301 301 302 303 304 304 304 305 305 304 305 305 306 306 305 306 309 310 312 313 314 314 315 317 315 314 314 313 313 313 313 313 311 313
298 299 299 298 299 299 299 300 301 300 302 302 303 303 303 304 305 306 306 307 307 307 305 305 309 311 314 313 314 315 316 317 318 316 314 315 314 314 314 314 314 312 314
299 299 297 298 298 298 299 300 300 302 302 302 302 303 305 305 306 307 308 308 308 306 305 308 311 314 313 314 315 316 313 316 318 318 316 314 313 313 314 314 314 315 317
300 301 300 299 298 298 299 299 300 301 302 301 303 304 305 306 307 307 307 306 306 307 310 311 315 316 316 315 314 316 315 316 317 318 318 317 317 316 316 317 317 317 317
300 300 300 300 300 299 299 298 299 301 301 301 304 305 305 306 306 306 306 307 308 310 311 313 315 316 315 317 319 319 320 318 315 316 316 317 315 315 316 317 317 317 317
300 299 299 300 300 300 300 299 299 300 300 301 303 304 304 305 306 307 310 310 311 312 313 313 315 315 316 318 318 319 319 319 319 320 319 318 319 318 316 317 318 318 319
298 298 299 299 300 299 298 297 298 298 300 301 302 303 304 304 305 309 312 313 312 314 314 314 315 316 316 317 317 318 318 318 318 318 318 319 320 321 320 320 319 320 319
296 296 297 297 298 298 298 298 298 297 298 301 302 302 303 305 306 310 313 315 316 316 315 317 315 317 314 314 316 317 317 317 317 317 317 318 319 320 321 321 320 320 320
294 294 294 294 294 295 296 296 296 298 299 300 300 302 303 304 306 310 311 313 316 316 317 316 315 313 314 315 314 316 317 317 317 316 316 314 315 317 317 317 318 319 319